[[{"header":{"parameterUnit":"m.s-1","parameterCategory":1,"la1":30.6,"la2":29.2853,"lo1":-89.7004,"lo2":-87.6739,"dy":0.0162,"dx":0.0183,"nx":112,"ny":82,"refTime":"2023-10-22T06:00:00:Z","depth":0,"parameterNumber":2,"parameterNumberName":"U-component_of_WINDS"},"data":[0.0,0.0,0.0,0.0,0.0,0.0,0.0,0.0,0.0,0.0,0.0,0.0,0.0,0.0,0.0,0.0,0.0,0.0,0.0,0.0,0.0,0.0,0.0,0.0,0.0,0.0,0.0,0.0,0.0,0.0,0.0,0.0,0.0,0.0,0.0,0.0,0.0,0.0,0.0,0.0,0.0,0.0,0.0,0.0,0.0,0.0,0.0,0.0,0.0,0.0,0.0,0.0,0.0,0.0,0.0,0.0,0.0,0.0,0.0,0.0,0.0,0.0,0.0,0.0,0.0,0.0,0.0,0.0,0.0,0.0,0.0,0.0,0.0,0.0,0.0,0.0,0.0,0.0,0.0,0.0,0.0,0.0,0.0,0.0,0.0,0.0,0.0,0.0,0.0,0.0,-3.2399,-3.2399,-3.1498,-3.0898,-3.0898,-3.0898,-3.0898,-3.0898,0.0,0.0,0.0,0.0,0.0,0.0,0.0,0.0,0.0,0.0,0.0,0.0,0.0,0.0,0.0,0.0,0.0,0.0,0.0,0.0,0.0,0.0,0.0,0.0,0.0,0.0,0.0,0.0,0.0,0.0,0.0,0.0,0.0,0.0,0.0,0.0,0.0,0.0,0.0,0.0,0.0,0.0,0.0,0.0,0.0,0.0,0.0,0.0,0.0,0.0,0.0,0.0,0.0,0.0,0.0,0.0,0.0,0.0,0.0,0.0,0.0,0.0,0.0,0.0,0.0,0.0,0.0,0.0,0.0,0.0,0.0,0.0,0.0,0.0,0.0,0.0,0.0,0.0,0.0,0.0,0.0,0.0,0.0,0.0,0.0,0.0,0.0,0.0,0.0,0.0,0.0,0.0,0.0,0.0,0.0,0.0,0.0,0.0,0.0,0.0,0.0,0.0,0.0,0.0,-3.117,-3.117,-3.0995,-3.0898,-3.0898,-3.0898,-3.0898,-3.0898,0.0,0.0,0.0,0.0,0.0,0.0,0.0,0.0,0.0,0.0,0.0,0.0,0.0,0.0,0.0,0.0,0.0,0.0,0.0,0.0,0.0,0.0,0.0,0.0,0.0,0.0,0.0,0.0,0.0,0.0,0.0,0.0,0.0,0.0,0.0,0.0,0.0,0.0,0.0,0.0,0.0,0.0,0.0,0.0,0.0,0.0,0.0,0.0,0.0,0.0,0.0,0.0,0.0,0.0,0.0,0.0,0.0,0.0,0.0,0.0,0.0,0.0,0.0,0.0,0.0,0.0,0.0,0.0,0.0,0.0,0.0,0.0,0.0,0.0,0.0,0.0,0.0,0.0,0.0,0.0,0.0,0.0,0.0,0.0,0.0,0.0,0.0,0.0,0.0,0.0,0.0,0.0,0.0,0.0,0.0,0.0,0.0,0.0,0.0,0.0,0.0,0.0,0.0,-3.1228,-3.0898,-3.0898,-3.0898,-3.0898,-3.0898,-3.0898,-3.0898,-3.0898,-3.0898,0.0,0.0,0.0,0.0,0.0,0.0,0.0,0.0,0.0,0.0,0.0,0.0,0.0,0.0,0.0,0.0,0.0,0.0,0.0,0.0,0.0,0.0,0.0,0.0,0.0,0.0,0.0,0.0,0.0,0.0,0.0,0.0,0.0,0.0,0.0,0.0,0.0,0.0,0.0,0.0,0.0,0.0,0.0,0.0,0.0,0.0,0.0,0.0,0.0,0.0,0.0,0.0,0.0,0.0,0.0,0.0,0.0,0.0,0.0,0.0,0.0,0.0,0.0,0.0,0.0,0.0,0.0,0.0,0.0,0.0,0.0,0.0,0.0,0.0,0.0,0.0,0.0,0.0,0.0,0.0,0.0,0.0,0.0,0.0,0.0,0.0,0.0,0.0,0.0,0.0,0.0,0.0,0.0,0.0,0.0,0.0,0.0,0.0,0.0,0.0,0.0,0.0,-3.0704,-3.0645,-3.0645,-3.0645,-3.0645,-3.0645,-3.0645,-3.0704,-3.0762,-3.0762,0.0,0.0,0.0,0.0,0.0,0.0,0.0,0.0,0.0,0.0,0.0,0.0,0.0,0.0,0.0,0.0,0.0,0.0,0.0,0.0,0.0,0.0,0.0,0.0,0.0,0.0,0.0,0.0,0.0,0.0,0.0,0.0,0.0,0.0,0.0,0.0,0.0,0.0,0.0,0.0,0.0,0.0,0.0,0.0,0.0,0.0,0.0,0.0,0.0,0.0,0.0,0.0,0.0,0.0,0.0,0.0,0.0,0.0,0.0,0.0,0.0,0.0,0.0,0.0,0.0,0.0,0.0,0.0,0.0,0.0,0.0,0.0,0.0,0.0,0.0,0.0,0.0,0.0,0.0,0.0,0.0,0.0,0.0,0.0,0.0,0.0,0.0,0.0,0.0,0.0,0.0,0.0,0.0,0.0,0.0,0.0,0.0,0.0,0.0,0.0,0.0,0.0,-3.0157,-2.9981,-2.9981,-2.9981,-2.9981,-2.9981,-2.9981,-3.0098,-3.0392,-3.045,0.0,0.0,0.0,0.0,0.0,0.0,0.0,0.0,0.0,0.0,0.0,0.0,0.0,0.0,0.0,0.0,0.0,0.0,0.0,0.0,0.0,0.0,0.0,0.0,0.0,0.0,0.0,0.0,0.0,0.0,0.0,0.0,0.0,0.0,0.0,0.0,0.0,0.0,0.0,0.0,0.0,0.0,0.0,0.0,0.0,0.0,0.0,0.0,0.0,0.0,0.0,0.0,0.0,0.0,0.0,0.0,0.0,0.0,0.0,0.0,0.0,0.0,0.0,0.0,0.0,0.0,0.0,0.0,0.0,0.0,0.0,0.0,0.0,0.0,0.0,0.0,0.0,0.0,0.0,0.0,0.0,0.0,0.0,0.0,0.0,0.0,0.0,0.0,0.0,0.0,0.0,0.0,0.0,0.0,0.0,0.0,0.0,0.0,0.0,0.0,0.0,0.0,-2.9981,-2.9922,-2.9922,-2.9922,-2.9922,-2.9922,-2.9922,-2.9922,-3.0098,0.0,0.0,0.0,0.0,0.0,0.0,0.0,0.0,0.0,0.0,0.0,0.0,0.0,0.0,0.0,0.0,0.0,0.0,0.0,0.0,0.0,0.0,0.0,0.0,0.0,0.0,0.0,0.0,0.0,0.0,0.0,0.0,0.0,0.0,0.0,0.0,0.0,0.0,0.0,0.0,0.0,0.0,0.0,0.0,0.0,0.0,0.0,0.0,0.0,0.0,0.0,0.0,0.0,0.0,0.0,0.0,0.0,0.0,0.0,0.0,0.0,0.0,0.0,0.0,0.0,0.0,0.0,0.0,0.0,0.0,0.0,0.0,0.0,0.0,0.0,0.0,0.0,0.0,0.0,0.0,0.0,0.0,0.0,0.0,0.0,0.0,0.0,0.0,0.0,0.0,0.0,0.0,0.0,0.0,0.0,0.0,0.0,0.0,0.0,0.0,0.0,0.0,-2.9764,-2.9799,-2.9777,-2.9646,-2.9627,-2.945,-2.9016,-2.8957,-2.9016,-2.9135,0.0,0.0,0.0,0.0,0.0,0.0,0.0,0.0,0.0,0.0,0.0,0.0,0.0,0.0,0.0,0.0,0.0,0.0,0.0,0.0,0.0,0.0,0.0,0.0,0.0,0.0,0.0,0.0,0.0,0.0,0.0,0.0,0.0,0.0,0.0,0.0,0.0,0.0,0.0,0.0,0.0,0.0,0.0,0.0,0.0,0.0,0.0,0.0,0.0,0.0,0.0,0.0,0.0,0.0,0.0,0.0,0.0,0.0,0.0,0.0,0.0,0.0,0.0,0.0,0.0,0.0,0.0,0.0,0.0,0.0,0.0,0.0,0.0,0.0,0.0,0.0,0.0,0.0,0.0,0.0,0.0,0.0,0.0,0.0,0.0,0.0,0.0,0.0,0.0,0.0,0.0,0.0,0.0,0.0,0.0,0.0,0.0,0.0,0.0,0.0,0.0,0.0,-2.9505,-2.9504,-2.9434,-2.903,-2.8993,-2.8439,-2.7099,-2.6978,-2.7142,0.0,0.0,0.0,0.0,0.0,0.0,0.0,0.0,0.0,0.0,0.0,0.0,0.0,0.0,0.0,0.0,0.0,0.0,0.0,0.0,0.0,0.0,0.0,0.0,0.0,0.0,0.0,0.0,0.0,0.0,0.0,0.0,0.0,0.0,0.0,0.0,0.0,0.0,0.0,0.0,0.0,0.0,0.0,0.0,0.0,0.0,0.0,0.0,0.0,0.0,0.0,0.0,0.0,0.0,0.0,0.0,0.0,0.0,0.0,0.0,0.0,0.0,0.0,0.0,0.0,0.0,0.0,0.0,0.0,0.0,0.0,0.0,0.0,0.0,0.0,0.0,0.0,0.0,0.0,0.0,0.0,0.0,0.0,0.0,0.0,0.0,0.0,0.0,0.0,0.0,0.0,0.0,0.0,0.0,0.0,0.0,0.0,0.0,0.0,0.0,0.0,0.0,0.0,-2.8509,-2.7645,-2.6972,-2.681,-2.6793,-2.6668,-2.6228,-2.6228,-2.6569,-2.7432,0.0,0.0,0.0,0.0,0.0,0.0,0.0,0.0,0.0,0.0,0.0,0.0,0.0,0.0,0.0,0.0,0.0,0.0,0.0,0.0,0.0,0.0,0.0,0.0,0.0,0.0,0.0,0.0,0.0,0.0,0.0,0.0,0.0,0.0,0.0,0.0,0.0,0.0,0.0,0.0,0.0,0.0,0.0,0.0,0.0,0.0,0.0,0.0,0.0,0.0,0.0,0.0,0.0,0.0,0.0,0.0,0.0,0.0,0.0,0.0,0.0,0.0,0.0,0.0,0.0,0.0,0.0,0.0,0.0,0.0,0.0,0.0,0.0,0.0,0.0,0.0,0.0,0.0,0.0,0.0,0.0,0.0,0.0,0.0,0.0,0.0,0.0,0.0,0.0,0.0,0.0,0.0,0.0,0.0,0.0,0.0,0.0,0.0,0.0,0.0,0.0,0.0,-2.7267,-2.66,-2.6054,-2.5912,-2.5896,-2.572,-2.5206,-2.5141,-2.545,-2.6055,0.0,0.0,0.0,0.0,0.0,0.0,0.0,0.0,0.0,0.0,0.0,0.0,0.0,0.0,0.0,0.0,0.0,0.0,0.0,0.0,0.0,0.0,0.0,0.0,0.0,0.0,0.0,0.0,0.0,0.0,0.0,0.0,0.0,0.0,0.0,0.0,0.0,0.0,0.0,0.0,0.0,0.0,0.0,0.0,0.0,0.0,0.0,0.0,0.0,0.0,0.0,0.0,0.0,0.0,0.0,0.0,0.0,0.0,0.0,0.0,0.0,0.0,0.0,0.0,0.0,0.0,0.0,0.0,0.0,0.0,0.0,0.0,0.0,0.0,0.0,0.0,0.0,0.0,0.0,0.0,0.0,0.0,0.0,0.0,0.0,0.0,0.0,0.0,0.0,0.0,0.0,0.0,0.0,0.0,0.0,0.0,0.0,0.0,0.0,0.0,0.0,0.0,-2.5845,-2.6015,-2.6012,-2.5652,-2.5621,-2.5169,-2.4029,-2.3898,-2.3949,-2.405,0.0,0.0,0.0,0.0,0.0,0.0,0.0,0.0,0.0,0.0,0.0,0.0,0.0,0.0,0.0,0.0,0.0,0.0,0.0,0.0,0.0,0.0,0.0,0.0,0.0,0.0,0.0,0.0,0.0,0.0,0.0,0.0,0.0,0.0,0.0,0.0,0.0,0.0,0.0,0.0,0.0,0.0,0.0,0.0,0.0,0.0,0.0,0.0,0.0,0.0,0.0,0.0,0.0,0.0,0.0,0.0,0.0,0.0,0.0,0.0,-2.6962,-2.6934,0.0,0.0,0.0,0.0,0.0,0.0,0.0,0.0,0.0,0.0,0.0,0.0,0.0,0.0,0.0,0.0,0.0,0.0,0.0,0.0,0.0,0.0,0.0,0.0,0.0,0.0,0.0,0.0,0.0,0.0,0.0,0.0,0.0,0.0,0.0,0.0,0.0,0.0,0.0,0.0,-2.5204,-2.4324,-2.3609,-2.3539,-2.3539,-2.3404,-2.3147,-2.3147,-2.3442,-2.4254,-2.4305,0.0,0.0,0.0,0.0,0.0,0.0,0.0,0.0,0.0,0.0,0.0,0.0,0.0,0.0,0.0,0.0,0.0,0.0,0.0,0.0,0.0,0.0,0.0,0.0,0.0,0.0,0.0,0.0,0.0,0.0,0.0,0.0,0.0,0.0,0.0,0.0,0.0,0.0,0.0,0.0,0.0,0.0,0.0,0.0,0.0,0.0,0.0,0.0,0.0,0.0,0.0,0.0,0.0,0.0,0.0,0.0,0.0,0.0,0.0,-2.5732,-2.5651,0.0,0.0,0.0,0.0,0.0,0.0,0.0,0.0,0.0,0.0,0.0,0.0,0.0,0.0,0.0,0.0,0.0,0.0,0.0,0.0,0.0,0.0,0.0,0.0,0.0,0.0,0.0,0.0,0.0,0.0,0.0,0.0,0.0,0.0,0.0,0.0,0.0,0.0,0.0,0.0,-2.4176,-2.3434,-2.2928,-2.2928,-2.2928,-2.2928,-2.2928,-2.2928,-2.3134,-2.3646,-2.37,0.0,0.0,0.0,0.0,0.0,0.0,0.0,0.0,0.0,0.0,0.0,0.0,0.0,0.0,0.0,0.0,0.0,0.0,0.0,0.0,0.0,0.0,0.0,0.0,0.0,0.0,0.0,0.0,0.0,0.0,0.0,0.0,0.0,0.0,0.0,0.0,0.0,0.0,0.0,0.0,0.0,0.0,0.0,0.0,0.0,0.0,0.0,0.0,0.0,0.0,0.0,0.0,0.0,-2.6386,-2.6386,-2.6386,-2.6386,-2.6266,-2.6012,-2.5772,-2.5611,-2.5518,-2.5518,0.0,0.0,0.0,0.0,0.0,0.0,0.0,0.0,0.0,0.0,0.0,0.0,0.0,0.0,0.0,0.0,0.0,0.0,0.0,0.0,0.0,0.0,0.0,0.0,-2.4414,-2.4282,-2.3805,0.0,0.0,0.0,0.0,0.0,0.0,0.0,0.0,0.0,0.0,0.0,-2.3407,-2.318,-2.3088,-2.3088,-2.2979,-2.2939,-2.2939,-2.2968,-2.2928,-2.2928,-2.2859,-2.2859,0.0,0.0,0.0,0.0,0.0,0.0,0.0,0.0,0.0,0.0,0.0,0.0,0.0,0.0,0.0,0.0,0.0,0.0,0.0,0.0,0.0,0.0,0.0,0.0,0.0,0.0,0.0,0.0,0.0,0.0,0.0,0.0,-2.6162,-2.597,0.0,0.0,0.0,0.0,0.0,0.0,0.0,0.0,0.0,0.0,0.0,0.0,0.0,-2.6386,-2.6386,-2.6386,-2.6386,-2.6386,-2.6386,-2.6386,-2.6386,-2.6386,-2.6373,-2.6333,-2.6293,0.0,-2.5518,-2.5518,0.0,0.0,0.0,0.0,0.0,0.0,0.0,0.0,0.0,0.0,0.0,0.0,0.0,0.0,0.0,0.0,0.0,0.0,0.0,0.0,0.0,0.0,-2.36,-2.36,-2.36,-2.3574,0.0,-2.3805,-2.4142,-2.4142,-2.3941,0.0,0.0,0.0,0.0,0.0,0.0,0.0,-2.3714,-2.3674,-2.3647,-2.3647,-2.342,-2.326,-2.326,-2.302,-2.2928,-2.2928,-2.2585,-2.2516,-2.2859,-2.231,0.0,0.0,0.0,0.0,0.0,0.0,0.0,0.0,0.0,0.0,0.0,0.0,0.0,0.0,0.0,0.0,0.0,0.0,0.0,0.0,0.0,0.0,0.0,0.0,0.0,0.0,0.0,0.0,0.0,-2.6012,-2.6199,-2.6199,-2.6319,-2.6386,0.0,0.0,0.0,0.0,0.0,0.0,0.0,0.0,0.0,-2.3472,-2.3472,-2.3472,-2.3472,-2.4455,-2.4945,-2.4945,-2.4945,-2.4945,-2.4945,-2.3884,-2.3472,-2.3472,-2.3472,-2.3341,-2.3139,-2.4174,-2.4579,-2.4409,0.0,0.0,0.0,0.0,-2.2047,-2.2035,-2.1601,-2.1479,-2.1479,-2.1479,0.0,0.0,0.0,0.0,0.0,0.0,0.0,-2.2297,0.0,0.0,-2.3364,-2.3364,-2.3364,-2.3364,-2.3364,-2.3571,-2.3775,0.0,-2.3831,-2.3885,-2.3885,0.0,0.0,0.0,0.0,-2.4008,-2.4008,-2.3875,-2.3768,-2.3768,-2.3647,-2.351,-2.3285,-2.3166,-2.2946,-2.2735,-2.244,-2.2336,-2.2475,-2.2056,-2.1966,0.0,0.0,0.0,0.0,0.0,0.0,0.0,0.0,0.0,0.0,0.0,0.0,0.0,0.0,0.0,0.0,0.0,0.0,0.0,0.0,0.0,0.0,0.0,0.0,0.0,0.0,0.0,0.0,-2.5859,-2.5898,-2.6307,-2.5581,-2.5251,0.0,0.0,0.0,0.0,0.0,0.0,-2.2992,-2.1867,-2.1222,-2.1222,-2.1222,-2.1243,-2.1308,-2.2532,-2.3132,-2.3109,-2.3109,-2.3028,-2.2866,-2.1557,-2.0987,-2.0987,-2.0987,-2.0945,-2.1054,-2.2545,-2.3164,-2.298,-2.1508,-2.0873,-2.0682,-2.0043,-1.9724,-1.9625,-1.9171,-1.8984,-1.8984,-1.8984,-1.8984,-1.8984,-1.8984,0.0,0.0,0.0,0.0,-2.0277,-2.0201,-2.1046,-2.1964,-2.1964,-2.1964,-2.1964,-2.1964,-2.1992,-2.2307,0.0,-2.3661,-2.3822,-2.3822,0.0,0.0,0.0,-2.4156,-2.4024,-2.4024,-2.3839,-2.3707,-2.3707,-2.3641,-2.3445,-2.3158,-2.3093,-2.2911,-2.2624,-2.2337,-2.2223,-2.2294,-2.195,-2.1779,-2.1989,0.0,0.0,0.0,0.0,0.0,0.0,0.0,0.0,0.0,0.0,0.0,0.0,0.0,0.0,0.0,0.0,0.0,0.0,0.0,0.0,0.0,0.0,0.0,0.0,0.0,0.0,0.0,0.0,0.0,-2.6228,-2.3472,0.0,0.0,0.0,0.0,-2.0958,-2.113,-2.113,-2.0797,-2.105,-2.1222,-2.1222,-2.1222,-2.133,-2.1484,-2.1566,-2.1498,-2.1108,-2.1108,-2.0941,-2.044,-2.0356,-2.0356,-2.0356,-2.0356,-2.0236,-2.019,-2.0973,-2.1303,-2.1292,-2.1211,-2.0948,-2.0593,-2.0203,-1.9871,-1.9433,-1.9143,-1.8984,-1.8984,-1.8984,-1.8984,-1.8984,-1.8984,-1.8984,0.0,0.0,-1.8504,-1.8416,-1.8034,-1.8034,-1.8112,-1.8112,-1.8112,-1.8112,-1.8112,-1.8271,-1.9458,0.0,-2.3438,-2.3438,-2.3438,0.0,-2.3438,-2.3438,-2.3438,-2.3426,-2.3426,-2.3413,-2.34,-2.34,-2.3171,-2.3006,-2.3006,-2.2777,-2.2624,-2.2624,-2.2253,-2.2169,-2.2527,-2.1869,-2.1869,-2.2574,-2.067,0.0,0.0,0.0,0.0,0.0,0.0,0.0,0.0,0.0,0.0,0.0,0.0,0.0,0.0,0.0,0.0,0.0,0.0,0.0,0.0,0.0,0.0,0.0,0.0,0.0,0.0,0.0,0.0,-2.2992,-2.1947,0.0,-2.1695,-2.1211,-2.0635,-2.015,-1.9267,-1.8673,-1.8641,-1.7669,-1.7242,-1.7363,-1.7371,-1.7406,-1.7475,-1.855,-1.9071,-1.8969,-1.8969,-1.8885,-1.8641,-1.7561,-1.7061,-1.7061,-1.7061,-1.7019,-1.6952,-1.7229,-1.7879,-1.8617,-1.7483,-1.691,-1.6738,-1.6351,-1.6163,-1.5992,-1.552,-1.5415,-1.5415,-1.5415,-1.5415,-1.5415,-1.5415,-1.5328,-1.524,-1.508,-1.5721,-1.6423,-1.6273,-1.7056,-1.7835,-1.7835,-1.7835,-1.7835,-1.7835,-1.7858,-1.8329,-1.9569,-2.07,-2.1464,-2.1464,-2.2384,-2.3154,-2.3364,-2.3364,-2.3364,-2.3364,-2.3364,-2.3364,-2.3364,-2.3275,-2.3151,-2.2929,-2.2841,-2.219,-2.0911,-2.0467,-1.9925,-1.9033,-1.8602,-1.8456,-1.8737,-1.8008,-1.7676,0.0,0.0,0.0,0.0,0.0,0.0,0.0,0.0,0.0,0.0,0.0,0.0,0.0,0.0,0.0,0.0,0.0,0.0,0.0,0.0,0.0,0.0,0.0,0.0,0.0,-2.1383,-2.0565,-2.1141,-2.0008,-1.9359,-1.9674,-1.9014,-1.8472,-1.8055,-1.7087,-1.6518,-1.6449,-1.5547,-1.5101,-1.5213,-1.522,-1.5242,-1.5294,-1.6385,-1.6922,-1.6894,-1.6894,-1.6808,-1.6559,-1.5463,-1.4866,-1.4866,-1.4866,-1.4837,-1.4872,-1.4872,-1.5378,-1.6028,-1.5211,-1.4801,-1.4634,-1.4307,-1.4111,-1.3888,-1.35,-1.3403,-1.3403,-1.3403,-1.3403,-1.3403,-1.3403,-1.3329,-1.3247,-1.3247,-1.3987,-1.4708,-1.4708,-1.5506,-1.6292,-1.6292,-1.6292,-1.6292,-1.6292,-1.6241,-1.6279,-1.6279,-1.8047,-1.9503,-1.9503,-2.0429,-2.1429,-2.2274,-2.1883,-2.172,-2.2349,-2.1883,-2.1493,-2.1493,-2.1493,-2.1417,-2.1201,-2.1201,-2.0582,-1.9198,-1.8988,-1.8375,-1.7312,-1.7039,-1.6936,-1.6936,-1.6276,-1.5916,-1.5907,0.0,0.0,0.0,0.0,0.0,0.0,0.0,0.0,0.0,0.0,0.0,0.0,0.0,0.0,0.0,0.0,0.0,0.0,0.0,0.0,0.0,0.0,0.0,-2.0899,-1.9592,-1.9115,-2.0807,-1.7656,-1.6032,-1.7746,-1.595,-1.4539,-1.4287,-1.4638,-1.4711,-1.4529,-1.4885,-1.5142,-1.5149,-1.5149,-1.5223,-1.5372,-1.5372,-1.5279,-1.4992,-1.4992,-1.4734,-1.4299,-1.4299,-1.4299,-1.4299,-1.4299,-1.4217,-1.4082,-1.4082,-1.3987,-1.3937,-1.4793,-1.4878,-1.4443,-1.4443,-1.4096,-1.3614,-1.3464,-1.3417,-1.3417,-1.3417,-1.3417,-1.3417,-1.3417,-1.3417,-1.3417,-1.3417,-1.3417,-1.3417,-1.3417,-1.3417,-1.3417,-1.3417,-1.3417,-1.3417,-1.3417,-1.3295,-1.3193,-1.3193,-1.5626,-1.7706,-1.7757,-1.7757,-1.8386,-2.0053,-1.8858,0.0,-2.0131,-1.8858,-1.7835,-1.7835,-1.7835,-1.7835,-1.7835,-1.7835,-1.7757,-1.7757,-1.7757,-1.7678,-1.7678,-1.7492,-1.7477,-1.7477,-1.565,-1.4633,-1.4549,0.0,0.0,0.0,0.0,0.0,0.0,0.0,0.0,0.0,0.0,0.0,0.0,0.0,0.0,0.0,0.0,0.0,0.0,0.0,0.0,0.0,-1.9186,-1.8789,-1.9277,-1.7819,-1.6772,-1.7009,-1.6032,-1.5345,-1.5294,-1.4808,-1.4287,-1.394,-1.4032,-1.4101,-1.4174,-1.4354,-1.4409,-1.452,-1.4527,-1.4548,-1.4583,-1.4583,-1.4611,-1.4476,-1.4476,-1.4387,-1.4299,-1.4299,-1.4299,-1.4299,-1.4299,-1.4278,-1.4238,-1.4238,-1.4211,-1.415,-1.4184,-1.4101,-1.4016,-1.4016,-1.3903,-1.3777,-1.3736,-1.3722,-1.3722,-1.3722,-1.3722,-1.3722,-1.3722,-1.3722,-1.3722,-1.3722,-1.3722,-1.3722,-1.3722,-1.3722,-1.3722,-1.3722,-1.3722,-1.3722,-1.3722,-1.3688,-1.3654,-1.3654,-1.4287,-1.5179,-1.5888,-1.7056,-1.7993,-1.8465,-1.815,0.0,-1.8465,-1.8072,-1.7835,-1.7835,-1.7835,-1.7835,-1.7835,-1.7835,-1.7284,-1.6115,-1.6035,-1.5567,-1.4381,-1.4256,-1.4234,-1.4234,-1.3756,-1.3968,0.0,0.0,0.0,0.0,0.0,0.0,0.0,0.0,0.0,0.0,0.0,0.0,0.0,0.0,0.0,0.0,0.0,0.0,0.0,0.0,0.0,0.0,-1.7901,-1.741,-1.7001,-1.6279,-1.5577,-1.5233,-1.5074,-1.4801,-1.4457,-1.4217,-1.4025,-1.3926,-1.3939,-1.4007,-1.4156,-1.4163,-1.4211,-1.4299,-1.4299,-1.4299,-1.4299,-1.4299,-1.4299,-1.4299,-1.4299,-1.4299,-1.4299,-1.4299,-1.4299,-1.4299,-1.4299,-1.4299,-1.4299,-1.4299,-1.4299,0.0,0.0,0.0,0.0,0.0,-1.3939,-1.3926,-1.3865,-1.3838,-1.3838,-1.3838,-1.3838,-1.3838,-1.3838,-1.3838,-1.3838,-1.3838,-1.3838,-1.3838,-1.3838,-1.3838,-1.3838,-1.3838,-1.3838,-1.3838,-1.3838,-1.3838,-1.3838,-1.3838,-1.3838,0.0,-1.4616,-1.5517,-1.6408,-1.7141,-1.6571,-1.6408,-1.7141,-1.6571,-1.6082,-1.6082,-1.6082,-1.613,-1.6064,-1.6056,0.0,0.0,0.0,-1.4158,-1.3131,-1.3051,0.0,0.0,0.0,-1.3394,-1.4317,-1.3296,0.0,0.0,-1.4028,-1.4034,0.0,0.0,0.0,0.0,0.0,0.0,0.0,0.0,0.0,0.0,0.0,0.0,0.0,0.0,0.0,0.0,-1.6706,-1.566,-1.4826,-1.5097,-1.5158,-1.4868,-1.4561,-1.4379,-1.4458,-1.4036,-1.3933,-1.4089,-1.4095,-1.4156,-1.4292,-1.4299,0.0,0.0,0.0,-1.4299,-1.4299,-1.4299,-1.4299,-1.4299,-1.4299,-1.4299,-1.4299,-1.4299,-1.4299,-1.4299,-1.4299,-1.4299,-1.4299,-1.4299,-1.4299,-1.4299,-1.4299,-1.4299,-1.4285,-1.415,-1.4095,-1.4082,-1.3939,0.0,0.0,-1.3892,-1.3892,-1.3892,-1.3892,-1.3892,-1.3892,-1.3892,-1.3892,-1.3892,-1.3892,-1.3892,-1.3892,-1.3892,-1.3892,-1.3892,-1.3892,-1.3892,-1.3892,-1.3892,-1.3892,-1.3892,-1.3892,-1.3865,-1.4351,-1.5964,-1.4856,-1.4351,-1.5964,-1.4771,-1.3838,-1.3838,0.0,0.0,-1.3661,-1.3654,-1.3593,-1.3458,-1.3451,-1.3383,-1.3227,-1.322,-1.3159,-1.3017,-1.301,-1.3003,-1.2983,-1.2983,-1.2976,-1.2956,-1.2678,-1.2556,0.0,0.0,0.0,0.0,0.0,0.0,0.0,0.0,0.0,0.0,0.0,0.0,0.0,0.0,0.0,-1.6607,-1.5996,-1.5508,-1.4914,-1.478,-1.457,-1.4469,-1.4401,-1.4372,-1.4187,-1.4114,-1.4089,-1.4245,-1.4258,-1.4272,-1.4299,-1.4299,-1.4299,-1.4299,-1.4299,-1.4299,-1.4299,-1.4299,-1.4299,-1.4299,-1.4299,0.0,-1.4299,-1.4299,-1.4299,-1.4299,-1.4299,-1.4299,-1.4299,-1.4299,-1.4299,-1.4299,-1.4299,-1.4299,-1.4299,-1.4265,-1.4258,-1.4251,-1.4224,-1.4211,-1.4211,-1.4211,-1.4211,-1.4211,-1.4211,-1.4211,0.0,-1.4211,-1.4211,-1.4211,-1.4211,-1.4211,-1.4211,-1.4211,-1.4211,-1.4211,-1.4211,-1.4211,-1.4211,-1.4211,-1.4211,-1.4211,-1.4211,-1.4007,-1.3923,-1.4265,-1.4009,-1.3923,-1.4265,-1.4009,-1.3838,-1.3838,-1.3838,-1.3831,-1.3804,-1.3797,-1.379,-1.3756,-1.3756,-1.3688,-1.3546,-1.3539,-1.3471,-1.3315,-1.3315,-1.3254,-1.3132,-1.3132,-1.3071,-1.3043,-1.2901,-1.2874,0.0,0.0,0.0,0.0,0.0,0.0,0.0,0.0,0.0,0.0,0.0,-1.9592,-1.8789,0.0,-1.6961,-1.5996,-1.5917,-1.5669,-1.4824,-1.4885,-1.4786,-1.4279,-1.4256,-1.4281,-1.417,-1.4183,-1.4217,-1.4292,-1.4299,-1.4299,-1.4299,-1.4299,-1.4299,-1.4299,-1.4299,-1.4299,-1.4299,-1.4299,-1.4299,-1.4299,-1.4299,-1.4299,-1.4299,-1.4299,-1.4299,-1.4299,-1.4299,-1.4299,-1.4299,-1.4299,-1.4299,-1.4299,-1.4299,-1.4299,-1.4299,-1.4299,-1.4299,-1.4299,-1.4299,-1.4299,-1.4299,-1.4299,-1.4299,-1.4299,-1.4299,-1.4299,-1.4299,-1.4299,-1.4299,-1.4299,-1.4299,-1.4299,-1.4299,-1.4299,-1.4299,-1.4299,-1.4299,-1.4299,-1.4299,-1.4299,-1.4299,-1.4299,-1.4299,-1.417,-1.4068,-1.4068,-1.4068,-1.4068,-1.4068,-1.4068,-1.4068,-1.4068,-1.4068,-1.4041,-1.3966,-1.3885,-1.3838,-1.3838,-1.3838,-1.381,-1.3736,-1.3736,-1.3702,-1.362,-1.3553,-1.3478,-1.3403,-1.3322,-1.3247,-1.318,-1.318,-1.3105,0.0,0.0,0.0,0.0,0.0,0.0,0.0,-2.0939,-2.0805,-2.0282,-1.9033,-1.8073,-1.811,-1.6987,-1.5988,-1.5753,-1.5968,-1.5778,-1.4729,-1.4967,-1.4894,-1.4203,-1.4116,-1.4163,-1.4285,-1.4299,-1.4299,-1.4299,-1.4299,-1.4299,-1.4299,-1.4299,-1.4299,-1.4299,-1.4299,-1.4299,-1.4299,-1.4299,-1.4299,-1.4299,-1.4299,-1.4299,-1.4299,-1.4299,-1.4299,-1.4299,-1.4299,-1.4299,-1.4299,-1.4299,-1.4299,-1.4299,-1.4299,-1.4299,-1.4299,-1.4299,-1.4299,-1.4299,-1.4299,-1.4299,-1.4299,-1.4299,-1.4299,-1.4299,-1.4299,-1.4299,-1.4299,-1.4299,-1.4299,-1.4299,-1.4299,-1.4299,-1.4299,-1.4299,-1.4299,-1.4299,-1.4299,-1.4299,-1.4299,-1.4299,-1.4299,-1.4299,-1.4299,-1.4299,-1.4299,-1.4299,-1.4299,-1.4299,-1.4299,-1.4299,-1.4299,-1.4299,-1.4299,-1.4251,-1.4129,-1.4,-1.3933,-1.3933,-1.3933,-1.3919,-1.3885,-1.3885,-1.3871,-1.3838,-1.3729,-1.3668,-1.3668,-1.3546,-1.3485,-1.3485,-1.3485,-1.3329,-2.7966,-2.6524,-2.4857,-2.4717,-2.2887,-2.085,0.0,-1.8899,-1.8491,-1.6936,-1.6451,-1.6336,-1.6493,-1.6443,-1.6165,-1.5917,-1.5645,-1.532,-1.4743,-1.4527,-1.436,-1.4272,-1.4272,-1.4278,-1.4299,-1.4299,-1.4299,-1.4299,-1.4299,-1.4299,-1.4299,-1.4299,-1.4299,-1.4299,-1.4299,-1.4299,-1.4299,-1.4299,-1.4299,-1.4299,-1.4299,-1.4299,-1.4299,-1.4299,-1.4299,-1.4299,-1.4299,-1.4299,-1.4299,-1.4299,-1.4299,-1.4299,-1.4299,-1.4299,-1.4299,-1.4299,-1.4299,-1.4299,-1.4299,-1.4299,-1.4299,-1.4299,-1.4299,-1.4299,-1.4299,-1.4299,-1.4299,-1.4299,-1.4299,-1.4299,-1.4299,-1.4299,-1.4299,-1.4299,-1.4299,-1.4299,-1.4299,-1.4299,-1.4299,-1.4299,-1.4299,-1.4299,-1.4299,-1.4299,-1.4299,-1.4299,-1.4299,-1.4299,-1.4299,-1.4299,-1.4299,-1.4299,-1.4299,-1.4292,-1.4278,-1.4258,-1.4251,-1.4251,-1.4251,-1.419,-1.4055,-1.4048,-1.398,-1.3759,-1.3824,-1.3817,-1.3817,-1.3797,-1.379,-1.379,-1.379,-1.3634,-2.6102,-2.4566,-2.2898,-2.1677,-1.9848,-1.8156,-1.7421,-1.7256,-1.7064,-1.6147,-1.6121,-1.6219,-1.6292,-1.6137,-1.6095,-1.6012,-1.5666,-1.5314,-1.4885,-1.478,-1.4646,-1.4299,-1.4299,-1.4299,-1.4299,-1.4299,-1.4299,-1.4299,-1.4299,-1.4299,-1.4299,-1.4299,-1.4299,-1.4299,-1.4299,-1.4299,-1.4299,-1.4299,-1.4299,-1.4299,-1.4299,-1.4299,-1.4299,-1.4299,-1.4299,-1.4299,-1.4299,-1.4299,-1.4299,-1.4299,-1.4299,-1.4299,-1.4299,-1.4299,-1.4299,-1.4299,-1.4299,-1.4299,-1.4299,-1.4299,-1.4299,-1.4299,-1.4299,-1.4299,-1.4299,-1.4299,-1.4299,-1.4299,-1.4299,-1.4299,-1.4299,-1.4299,-1.4299,-1.4299,-1.4299,-1.4299,-1.4299,-1.4299,-1.4299,-1.4299,-1.4299,-1.4299,-1.4299,-1.4299,-1.4299,-1.4299,-1.4299,-1.4299,-1.4299,-1.4299,-1.4299,-1.4299,-1.4299,-1.4299,-1.4299,-1.4299,-1.4299,-1.4299,-1.4299,-1.4272,-1.4204,-1.4204,-1.4177,-1.4109,-1.4021,-1.3973,-1.3973,-1.3885,-1.3838,-1.3838,-1.3838,-1.3777,-2.4997,-2.3255,-2.1618,-1.9483,-1.7583,-1.6235,-1.6235,-1.6235,-1.6211,-1.6137,-1.6219,-1.6332,-1.6438,-1.6135,-1.5934,-1.6017,-1.5613,-1.5213,-1.4889,-1.4822,-1.4646,-1.4299,-1.4299,-1.4299,-1.4299,-1.4299,-1.4299,-1.4299,-1.4299,-1.4299,-1.4299,-1.4299,-1.4299,-1.4299,-1.4299,-1.4299,-1.4299,-1.4299,-1.4299,-1.4299,-1.4299,-1.4299,-1.4299,-1.4299,-1.4299,-1.4299,-1.4299,-1.4299,-1.4299,-1.4299,-1.4299,-1.4299,-1.4299,-1.4299,-1.4299,-1.4299,-1.4299,-1.4299,-1.4299,-1.4299,-1.4299,-1.4299,-1.4299,-1.4299,-1.4299,-1.4299,-1.4299,-1.4299,-1.4299,-1.4299,-1.4299,-1.4299,-1.4299,-1.4299,-1.4299,-1.4299,-1.4299,-1.4299,-1.4299,-1.4299,-1.4299,-1.4299,-1.4299,-1.4299,-1.4299,-1.4299,-1.4299,-1.4299,-1.4299,-1.4299,-1.4299,-1.4299,-1.4299,-1.4299,-1.4299,-1.4299,-1.4299,-1.4299,-1.4299,-1.4299,-1.4299,-1.4299,-1.4299,-1.4299,-1.419,-1.4136,-1.4136,-1.4021,-1.3966,-1.3966,-1.3966,-1.3946,-2.5635,-2.3614,-2.1618,-1.9566,-1.7569,-1.5974,-1.5974,-1.5974,-1.6097,-1.6259,-1.63,-1.6414,-1.6685,-1.6404,-1.6025,-1.5763,-1.5344,-1.4815,-1.4387,-1.4299,-1.4299,-1.4299,-1.4299,-1.4299,-1.4299,-1.4299,-1.4299,-1.4299,-1.4299,-1.4299,-1.4299,-1.4299,-1.4299,-1.4299,-1.4299,-1.4299,-1.4299,-1.4299,-1.4299,-1.4299,-1.4299,-1.4299,-1.4299,-1.4299,-1.4299,-1.4299,-1.4299,-1.4299,-1.4299,-1.4299,-1.4299,-1.4299,-1.4299,-1.4299,-1.4299,-1.4299,-1.4299,-1.4299,-1.4299,-1.4299,-1.4299,-1.4299,-1.4299,-1.4299,-1.4299,-1.4299,-1.4299,-1.4299,-1.4299,-1.4299,-1.4299,-1.4299,-1.4299,-1.4299,-1.4299,-1.4299,-1.4299,-1.4299,-1.4299,-1.4299,-1.4299,-1.4299,-1.4299,-1.4299,-1.4299,-1.4299,-1.4299,-1.4299,-1.4299,-1.4299,-1.4299,-1.4299,-1.4299,-1.4299,-1.4299,-1.4299,-1.4299,-1.4299,-1.4299,-1.4299,-1.4299,-1.4299,-1.4299,-1.4299,-1.4292,-1.4292,-1.4292,-1.4285,-1.4285,-1.4285,-1.4285,-1.4204,-2.3626,-2.1618,-1.9649,-1.7569,-1.6493,-1.599,-1.6186,-1.6219,-1.6267,-1.6446,-1.6584,-1.6706,-1.6741,-1.6507,-1.6164,-1.5785,-1.5352,-1.4911,-1.4822,-1.4476,-1.4387,-1.4734,-1.4476,-1.4299,-1.4299,-1.4299,-1.4299,-1.4299,-1.4299,-1.4299,-1.4299,-1.4299,-1.4299,-1.4299,-1.4299,-1.4299,-1.4299,-1.4299,-1.4299,-1.4299,-1.4299,-1.4299,-1.4299,-1.4299,-1.4299,-1.4299,-1.4299,-1.4299,-1.4299,-1.4299,-1.4299,-1.4299,-1.4299,-1.4299,-1.4299,-1.4299,-1.4299,-1.4299,-1.4299,-1.4299,-1.4299,-1.4299,-1.4299,-1.4299,-1.4299,-1.4299,-1.4299,-1.4299,-1.4299,-1.4299,-1.4299,-1.4299,-1.4299,-1.4299,-1.4299,-1.4299,-1.4299,-1.4299,-1.4299,-1.4299,-1.4299,-1.4299,-1.4299,-1.4299,-1.4333,-1.4428,-1.436,-1.4299,-1.4299,-1.4299,-1.4299,-1.4299,-1.4299,-1.4299,-1.4299,-1.4299,-1.4299,-1.4299,-1.4299,-1.4299,-1.4299,-1.4299,-1.4299,-1.4299,-1.4299,-1.4299,-1.4299,-1.4299,-1.4299,-1.4299,-1.4299,-1.4272,-2.1608,-2.0113,-1.856,-1.6493,-1.5966,-1.6089,-1.6267,-1.63,-1.6373,-1.6625,-1.6771,-1.6782,-1.6846,-1.6594,-1.6313,-1.5961,-1.5521,-1.5264,-1.5264,-1.4999,-1.4911,-1.5175,-1.4822,-1.4564,-1.4564,-1.4387,-1.4299,-1.4299,-1.4299,-1.4299,-1.4299,-1.4299,-1.4299,-1.4299,-1.4299,-1.4299,-1.4299,-1.4299,-1.4299,-1.4299,-1.4299,-1.4299,-1.4299,-1.4299,-1.4299,-1.4299,-1.4299,-1.4299,-1.4299,-1.4299,-1.4299,-1.4306,-1.4353,-1.4373,-1.438,-1.4434,-1.4455,-1.4441,-1.434,-1.4299,-1.4299,-1.4299,-1.4299,-1.4299,-1.4299,-1.4299,-1.4299,-1.4299,-1.4299,-1.4299,-1.4299,-1.4299,-1.4299,-1.4299,-1.4299,-1.4299,-1.4299,-1.434,-1.4373,-1.4373,-1.4421,-1.4455,-1.4455,-1.4455,-1.4489,-1.4577,-1.4516,-1.4455,-1.4455,-1.4455,-1.4455,-1.4455,-1.4455,-1.4455,-1.4455,-1.4455,-1.4434,-1.438,-1.4373,-1.4353,-1.4299,-1.4299,-1.4299,-1.4299,-1.4299,-1.4299,-1.4299,-1.4299,-1.4299,-1.4299,-1.4299,-1.4299,-1.9649,-1.9011,-1.8468,-1.6493,-1.5966,-1.6089,-1.6267,-1.63,-1.6405,-1.6693,-1.6766,-1.6822,-1.708,-1.6753,-1.6401,-1.6401,-1.6057,-1.5704,-1.5704,-1.5704,-1.5704,-1.5704,-1.5352,-1.4992,-1.4992,-1.4564,-1.4299,-1.4299,-1.4299,-1.4299,-1.4299,-1.4299,-1.4299,-1.4299,-1.4299,-1.4299,-1.4299,-1.4299,-1.4299,-1.4299,-1.4299,-1.4299,-1.4299,-1.4306,-1.4312,-1.4312,-1.4319,-1.4326,-1.4326,-1.4326,-1.4326,-1.4333,-1.4468,-1.4523,-1.4543,-1.4685,-1.474,-1.4699,-1.4421,-1.4326,-1.4326,-1.4326,-1.4326,-1.4326,-1.4326,-1.4326,-1.4326,-1.4326,-1.4326,-1.4326,-1.4326,-1.4326,-1.4326,-1.4326,-1.4326,-1.4326,-1.4326,-1.4428,-1.4523,-1.4523,-1.4638,-1.474,-1.474,-1.474,-1.474,-1.4753,-1.4753,-1.4746,-1.474,-1.474,-1.474,-1.474,-1.474,-1.474,-1.474,-1.474,-1.4679,-1.4529,-1.4523,-1.4462,-1.4326,-1.4319,-1.4312,-1.4312,-1.4306,-1.4299,-1.4299,-1.4299,-1.4299,-1.4299,-1.4299,-1.4299,-1.9279,-1.8009,-1.6675,-1.6139,-1.5966,-1.6089,-1.6267,-1.63,-1.6405,-1.6693,-1.6766,-1.6822,-1.708,-1.7024,-1.6841,-1.6489,-1.6313,-1.6225,-1.6225,-1.5881,-1.5793,-1.6137,-1.5785,-1.5352,-1.4992,-1.4911,-1.4646,-1.4299,-1.4299,-1.4299,-1.4299,-1.4299,-1.4299,-1.4299,-1.4299,-1.4299,-1.4299,-1.4299,-1.4299,-1.4299,-1.4299,-1.4299,-1.4306,-1.4407,-1.4455,-1.4462,-1.4577,-1.4624,-1.4624,-1.4624,-1.4624,-1.4631,-1.4665,-1.4679,-1.4685,-1.4726,-1.474,-1.4726,-1.4652,-1.4624,-1.4624,-1.4624,-1.4624,-1.4624,-1.4624,-1.4624,-1.4624,-1.4624,-1.4624,-1.4624,-1.4624,-1.4624,-1.4624,-1.4624,-1.4624,-1.4624,-1.4624,-1.4658,-1.4679,-1.4679,-1.4713,-1.474,-1.474,-1.474,-1.478,-1.4896,-1.4909,-1.4869,-1.4753,-1.474,-1.474,-1.474,-1.474,-1.474,-1.474,-1.474,-1.4726,-1.4685,-1.4679,-1.4665,-1.4631,-1.4516,-1.4455,-1.4455,-1.4353,-1.4299,-1.4299,-1.4299,-1.4299,-1.4299,-1.4299,-1.4299,-1.7743,-1.6848,-1.5966,-1.5966,-1.5966,-1.6089,-1.6267,-1.63,-1.6389,-1.6674,-1.6795,-1.6798,-1.6982,-1.7055,-1.7024,-1.6753,-1.6665,-1.6665,-1.6665,-1.6497,-1.6409,-1.6665,-1.6313,-1.5785,-1.5352,-1.508,-1.4822,-1.4299,-1.4299,-1.4299,-1.4299,-1.4299,-1.4299,-1.4299,-1.4299,-1.4299,-1.4299,-1.4299,-1.4333,-1.4394,-1.4394,-1.4428,-1.4496,-1.4577,-1.4611,-1.4618,-1.4706,-1.474,-1.474,-1.474,-1.474,-1.4746,-1.4814,-1.4841,-1.4848,-1.4909,-1.4936,-1.4936,-1.4936,-1.4936,-1.4916,-1.478,-1.474,-1.474,-1.474,-1.474,-1.474,-1.474,-1.474,-1.474,-1.474,-1.474,-1.474,-1.474,-1.474,-1.474,-1.474,-1.4794,-1.4862,-1.4923,-1.4936,-1.4936,-1.4936,-1.4936,-1.4964,-1.5052,-1.5065,-1.5031,-1.4943,-1.4936,-1.4936,-1.4936,-1.4936,-1.4936,-1.4936,-1.4936,-1.4909,-1.4841,-1.4841,-1.4808,-1.474,-1.4658,-1.4611,-1.4611,-1.4468,-1.4394,-1.4394,-1.4333,-1.4299,-1.4299,-1.4299,-1.4299,-1.5966,-1.5966,-1.5966,-1.5966,-1.5966,-1.6081,-1.6235,-1.6267,-1.6324,-1.6503,-1.669,-1.6741,-1.6766,-1.6998,-1.7112,-1.7112,-1.7112,-1.7112,-1.7112,-1.7112,-1.7112,-1.7024,-1.6665,-1.6225,-1.5616,-1.5264,-1.4822,-1.4299,-1.4299,-1.4299,-1.4299,-1.4299,-1.4299,-1.4299,-1.4299,-1.4299,-1.4299,-1.4319,-1.4387,-1.4509,-1.4529,-1.4611,-1.474,-1.476,-1.4767,-1.4774,-1.4794,-1.4801,-1.4801,-1.4801,-1.4801,-1.4814,-1.4943,-1.4997,-1.5011,-1.514,-1.5181,-1.5181,-1.5181,-1.5181,-1.514,-1.4882,-1.4801,-1.4801,-1.4801,-1.4801,-1.4801,-1.4801,-1.4801,-1.4801,-1.4801,-1.4801,-1.4801,-1.4801,-1.4801,-1.4801,-1.4801,-1.4903,-1.5038,-1.516,-1.5181,-1.5181,-1.5181,-1.5181,-1.5181,-1.5181,-1.5181,-1.5181,-1.5181,-1.5181,-1.5181,-1.5181,-1.5181,-1.5181,-1.5181,-1.5181,-1.5126,-1.5004,-1.4997,-1.4936,-1.4801,-1.478,-1.4767,-1.4767,-1.4618,-1.4543,-1.4543,-1.4421,-1.4346,-1.4326,-1.4326,-1.4319,-1.5966,-1.5966,-1.5966,-1.5966,-1.5966,-1.5974,-1.5998,-1.6089,-1.6137,-1.6316,-1.6495,-1.6674,-1.6741,-1.6998,-1.7112,-1.7112,-1.7112,-1.7112,-1.7112,-1.7112,-1.6936,-1.6577,-1.6489,-1.6049,-1.5168,-1.508,-1.4822,-1.4299,-1.4299,-1.4299,-1.4299,-1.4299,-1.4299,-1.4299,-1.4299,-1.4299,-1.4299,-1.4414,-1.4489,-1.4516,-1.4638,-1.4713,-1.4746,-1.4875,-1.493,-1.4936,-1.5059,-1.5106,-1.5106,-1.5106,-1.5106,-1.5106,-1.5133,-1.5147,-1.5147,-1.5174,-1.5181,-1.5181,-1.5181,-1.5181,-1.5174,-1.512,-1.5106,-1.5106,-1.5106,-1.5106,-1.5106,-1.5106,-1.5106,-1.5106,-1.5106,-1.5106,-1.5106,-1.5106,-1.5106,-1.5106,-1.5106,-1.5126,-1.5153,-1.5174,-1.5181,-1.5181,-1.5181,-1.5181,-1.5181,-1.5181,-1.5181,-1.5181,-1.5181,-1.5181,-1.5181,-1.5181,-1.5181,-1.5181,-1.5181,-1.5181,-1.5174,-1.5147,-1.5147,-1.5133,-1.5106,-1.4991,-1.493,-1.493,-1.478,-1.4699,-1.4699,-1.4672,-1.4597,-1.4475,-1.4475,-1.4414,-1.5966,-1.5966,-1.5966,-1.5966,-1.5966,-1.5966,-1.5966,-1.5966,-1.6073,-1.6154,-1.6308,-1.6495,-1.6674,-1.686,-1.7006,-1.7096,-1.7112,-1.7112,-1.7112,-1.7112,-1.7024,-1.6753,-1.6577,-1.6225,-1.5785,-1.5521,-1.5264,-1.5094,-1.4822,-1.4564,-1.4299,-1.4557,-1.4646,-1.4646,-1.4729,-1.4771,-1.4771,-1.4647,-1.4672,-1.4753,-1.4828,-1.4903,-1.497,-1.5045,-1.5079,-1.5086,-1.5153,-1.5181,-1.5181,-1.5181,-1.5181,-1.5181,-1.5181,-1.5181,-1.5181,-1.5181,-1.5181,-1.5181,-1.5181,-1.5181,-1.5181,-1.5181,-1.5181,-1.5181,-1.5181,-1.5181,-1.5181,-1.5181,-1.5181,-1.5181,-1.5181,-1.5181,-1.5181,-1.5181,-1.5181,-1.5181,-1.5181,-1.5181,-1.5181,-1.5181,-1.5181,-1.5181,-1.5181,-1.5181,-1.5181,-1.5181,-1.5181,-1.5181,-1.5181,-1.5181,-1.5181,-1.5181,-1.5181,-1.5181,-1.5181,-1.5181,-1.5181,-1.5181,-1.5181,-1.5181,-1.5181,-1.512,-1.5079,-1.5079,-1.4936,-1.4862,-1.4862,-1.478,-1.4706,-1.4631,-1.4631,-1.459,-1.5966,-1.5966,-1.5966,-1.5966,-1.5966,-1.5966,-1.5966,-1.5966,-1.5966,-1.5966,-1.6186,-1.6357,-1.6544,-1.673,-1.6909,-1.708,-1.7112,-1.7112,-1.7112,-1.7112,-1.7024,-1.6936,-1.6577,-1.6401,-1.6225,-1.5881,-1.5704,-1.5704,-1.5352,-1.4911,-1.4476,-1.4939,-1.5219,-1.5219,-1.5288,-1.5284,-1.5284,-1.4895,-1.4848,-1.497,-1.5004,-1.5072,-1.5181,-1.5181,-1.5181,-1.5181,-1.5181,-1.5181,-1.5181,-1.5181,-1.5181,-1.5181,-1.5181,-1.5181,-1.5181,-1.5181,-1.5181,-1.5181,-1.5181,-1.5181,-1.5181,-1.5181,-1.5181,-1.5181,-1.5181,-1.5181,-1.5181,-1.5181,-1.5181,-1.5181,-1.5181,-1.5181,-1.5181,-1.5181,-1.5181,-1.5181,-1.5181,-1.5181,-1.5181,-1.5181,-1.5181,-1.5181,-1.5181,-1.5181,-1.5181,-1.5181,-1.5181,-1.5181,-1.5181,-1.5181,-1.5181,-1.5181,-1.5181,-1.5181,-1.5181,-1.5181,-1.5181,-1.5181,-1.5181,-1.5181,-1.5181,-1.5181,-1.5181,-1.5181,-1.5072,-1.5018,-1.5018,-1.4896,-1.4821,-1.4787,-1.4787,-1.4774,-1.5966,-1.5966,-1.5966,-1.5966,-1.5966,-1.5966,-1.5966,-1.5966,-1.5966,-1.5966,-1.6186,-1.6357,-1.6544,-1.673,-1.6909,-1.708,-1.7112,-1.7112,-1.7112,-1.7112,-1.6928,-1.6489,-1.6401,-1.6225,-1.5793,-1.5704,-1.5704,-1.5704,-1.5616,-1.544,-1.4992,-1.5572,-1.5921,-1.5921,-1.5626,-1.544,-1.544,-1.5144,-1.4957,-1.497,-1.5099,-1.5167,-1.5181,-1.5181,-1.5181,-1.5181,-1.5181,-1.5181,-1.5181,-1.5181,-1.5181,-1.5181,-1.5181,-1.5181,-1.5181,-1.5181,-1.5181,-1.5181,-1.5181,-1.5181,-1.5181,-1.5181,-1.5181,-1.5181,-1.5181,-1.5181,-1.5181,-1.5181,-1.5181,-1.5181,-1.5181,-1.5181,-1.5181,-1.5181,-1.5181,-1.5181,-1.5181,-1.5181,-1.5181,-1.5181,-1.5181,-1.5181,-1.5181,-1.5181,-1.5181,-1.5181,-1.5181,-1.5181,-1.5181,-1.5181,-1.5181,-1.5181,-1.5181,-1.5181,-1.5181,-1.5181,-1.5181,-1.5181,-1.5181,-1.5181,-1.5181,-1.5181,-1.5181,-1.5181,-1.5167,-1.516,-1.516,-1.5147,-1.5072,-1.495,-1.495,-1.4875,-1.5966,-1.5966,-1.5966,-1.5966,-1.5966,-1.5966,-1.5966,-1.5966,-1.5966,-1.5966,-1.6097,-1.6202,-1.6381,-1.6568,-1.6747,-1.6925,-1.7039,-1.7112,-1.7112,-1.7112,-1.7024,-1.6841,-1.6577,-1.6401,-1.6497,-1.6321,-1.6137,-1.6137,-1.6409,-1.6321,-1.5873,-1.6209,-1.639,-1.639,-1.6204,-1.6063,-1.6063,-1.5396,-1.5099,-1.5099,-1.5153,-1.5181,-1.5181,-1.5181,-1.5181,-1.5181,-1.5181,-1.5181,-1.5181,-1.5181,-1.5181,-1.5181,-1.5181,-1.5181,-1.5181,-1.5181,-1.5181,-1.5181,-1.5181,-1.5181,-1.5181,-1.5181,-1.5181,-1.5181,-1.5181,-1.5181,-1.5181,-1.5181,-1.5181,-1.5181,-1.5181,-1.5181,-1.5181,-1.5181,-1.5181,-1.5181,-1.5181,-1.5181,-1.5181,-1.5181,-1.5181,-1.5181,-1.5181,-1.5181,-1.5181,-1.5181,-1.5181,-1.5181,-1.5181,-1.5181,-1.5181,-1.5181,-1.5181,-1.5181,-1.5181,-1.5181,-1.5181,-1.5181,-1.5181,-1.5181,-1.5181,-1.5181,-1.5181,-1.5181,-1.5181,-1.5181,-1.5181,-1.5181,-1.5153,-1.5099,-1.5099,-1.5065,-1.5966,-1.5966,-1.5966,-1.5966,-1.5966,-1.5966,-1.5966,-1.5966,-1.5966,-1.5966,-1.5966,-1.6097,-1.6267,-1.6454,-1.6641,-1.6741,-1.6998,-1.7112,-1.7112,-1.7112,-1.7112,-1.7112,-1.6841,-1.6753,-1.7112,-1.6841,-1.6577,-1.6577,-1.6936,-1.6936,-1.6577,-1.6878,-1.7005,-1.7005,-1.6613,-1.6509,-1.6509,-1.5601,-1.5181,-1.5181,-1.5181,-1.5181,-1.5181,-1.5181,-1.5181,-1.5181,-1.5181,-1.5181,-1.5181,-1.5181,-1.5181,-1.5181,-1.5181,-1.5181,-1.5181,-1.5181,-1.5181,-1.5181,-1.5181,-1.5181,-1.5181,-1.5181,-1.5181,-1.5181,-1.5181,-1.5181,-1.5181,-1.5181,-1.5181,-1.5181,-1.5181,-1.5181,-1.5181,-1.5181,-1.5181,-1.5181,-1.5181,-1.5181,-1.5181,-1.5181,-1.5181,-1.5181,-1.5181,-1.5181,-1.5181,-1.5181,-1.5181,-1.5181,-1.5181,-1.5181,-1.5181,-1.5181,-1.5181,-1.5181,-1.5181,-1.5181,-1.5181,-1.5181,-1.5181,-1.5181,-1.5181,-1.5181,-1.5181,-1.5181,-1.5181,-1.5181,-1.5181,-1.5181,-1.5181,-1.5181,-1.5181,-1.5181,-1.5966,-1.5966,-1.5966,-1.5966,-1.5966,-1.5966,-1.5966,-1.5966,-1.5966,-1.5966,-1.5966,-1.6097,-1.6267,-1.6454,-1.6641,-1.6741,-1.6998,-1.7112,-1.7112,-1.7112,-1.7112,-1.7112,-1.7112,-1.7112,-1.7112,-1.7112,-1.7112,-1.7112,-1.7112,-1.7112,-1.7112,-1.7445,-1.7549,-1.7549,-1.6965,-1.6673,-1.6673,-1.5744,-1.5181,-1.5181,-1.5181,-1.5181,-1.5181,-1.5181,-1.5181,-1.5181,-1.5181,-1.5181,-1.5181,-1.5181,-1.5181,-1.5181,-1.5181,-1.5181,-1.5181,-1.5181,-1.5181,-1.5181,-1.5181,-1.5181,-1.5181,-1.5181,-1.5181,-1.5181,-1.5181,-1.5181,-1.5181,-1.5181,-1.5181,-1.5181,-1.5181,-1.5181,-1.5181,-1.5181,-1.5181,-1.5181,-1.5181,-1.5181,-1.5181,-1.5181,-1.5181,-1.5181,-1.5181,-1.5181,-1.5181,-1.5181,-1.5181,-1.5181,-1.5181,-1.5181,-1.5181,-1.5181,-1.5181,-1.5181,-1.5181,-1.5181,-1.5181,-1.5181,-1.5181,-1.5181,-1.5181,-1.5181,-1.5181,-1.5181,-1.5181,-1.5181,-1.5181,-1.5181,-1.5181,-1.5181,-1.5181,-1.5181,-1.5966,-1.5966,-1.5966,-1.5966,-1.5966,-1.5966,-1.5966,-1.5966,-1.5966,-1.5966,-1.5966,-1.5982,-1.6113,-1.6373,-1.66,-1.6657,-1.6917,-1.7112,-1.7112,-1.7112,-1.7112,-1.7112,-1.7112,-1.7112,-1.7112,-1.7112,-1.7112,-1.7112,-1.7112,-1.7112,-1.7112,-1.7339,-1.7518,-1.764,-1.6972,-1.6681,-1.6681,-1.6025,-1.5556,-1.5181,-1.5931,-1.6025,-1.5657,-1.6025,-1.6025,-1.5657,-1.5657,-1.5469,-1.5181,-1.5181,-1.5181,-1.5181,-1.5181,-1.5181,-1.5181,-1.5181,-1.5181,-1.5181,-1.5181,-1.5181,-1.5181,-1.5181,-1.5181,-1.5181,-1.5181,-1.5181,-1.5181,-1.5181,-1.5255,-1.5337,-1.5337,-1.5418,-1.5493,-1.5493,-1.5493,-1.5493,-1.5493,-1.5493,-1.5466,-1.5357,-1.5337,-1.5303,-1.5201,-1.5181,-1.5181,-1.5181,-1.5181,-1.5181,-1.5181,-1.5181,-1.5181,-1.5181,-1.5181,-1.5181,-1.5181,-1.5181,-1.5181,-1.5181,-1.5181,-1.5181,-1.5181,-1.5181,-1.5181,-1.5181,-1.5181,-1.5181,-1.5181,-1.5181,-1.5181,-1.5181,-1.5181,-1.5181,-1.5966,-1.5966,-1.5966,-1.5966,-1.5966,-1.5966,-1.5966,-1.5966,-1.5966,-1.5966,-1.5966,-1.5966,-1.5966,-1.6341,-1.6584,-1.6584,-1.6877,-1.7112,-1.7112,-1.7112,-1.7112,-1.7112,-1.7112,-1.7112,-1.7112,-1.7112,-1.7112,-1.7112,-1.7112,-1.7112,-1.7112,-1.7291,-1.7437,-1.7543,-1.7157,-1.6893,-1.6962,-1.6494,-1.6025,-1.5744,-1.64,-1.6494,-1.6213,-1.6587,-1.64,-1.5938,-1.5938,-1.5657,0.0,-1.5181,-1.5181,-1.5181,-1.5181,-1.5181,-1.5181,-1.5181,-1.5181,-1.5181,-1.5181,-1.5181,-1.5181,-1.5181,-1.5181,-1.5181,-1.5181,-1.5181,-1.5194,-1.5255,-1.5337,-1.5425,-1.5486,-1.5567,-1.5642,-1.5642,-1.5642,-1.5642,-1.5642,-1.5642,-1.5608,-1.5513,-1.5499,-1.5466,-1.5371,-1.5309,-1.5269,-1.5269,-1.5221,-1.5181,-1.5181,-1.5181,-1.5208,-1.5262,-1.5269,-1.5289,-1.535,-1.5248,-1.5181,-1.5181,-1.5181,-1.5181,-1.5181,-1.5181,-1.5181,-1.5181,-1.5181,-1.5181,-1.5181,-1.5181,-1.5181,-1.5181,-1.5181,-1.5181,0.0,-1.5966,-1.5966,-1.5966,-1.5966,-1.5966,-1.5966,-1.5966,0.0,-1.5966,-1.5966,-1.5966,-1.5966,-1.6341,-1.6584,-1.6584,-1.6877,-1.7112,-1.7112,-1.7112,-1.7112,-1.7112,-1.7112,-1.7112,-1.7112,-1.7112,-1.7112,-1.7112,-1.7112,-1.7112,-1.7112,-1.7274,-1.7372,-1.7388,-1.725,-1.7219,-1.7398,-1.6924,-1.6737,-1.6644,-1.6737,-1.6744,-1.6752,-1.6759,-1.6486,-1.5938,-1.5938,-1.5657,-1.5181,-1.5181,-1.5181,-1.5181,-1.5181,-1.5181,-1.5181,-1.5181,-1.5181,-1.5181,-1.5181,-1.5181,-1.5181,-1.5181,-1.5181,-1.5181,-1.5181,-1.5181,-1.5215,-1.5364,-1.5418,-1.5459,-1.5615,-1.5662,-1.5669,-1.5669,-1.5669,-1.5669,-1.5669,-1.5669,-1.5669,-1.5655,-1.5655,-1.5649,-1.5642,-1.552,-1.5425,-1.5425,-1.5303,-1.5215,-1.5215,-1.5215,-1.5269,-1.5411,-1.5425,-1.5486,-1.5628,-1.5377,-1.5215,-1.5215,-1.5208,-1.5201,-1.5201,-1.5187,-1.5181,-1.5181,-1.5181,-1.5181,-1.5181,-1.5181,-1.5181,-1.5181,-1.5181,-1.5181,-1.5966,0.0,-1.5966,-1.5966,-1.5966,-1.5966,0.0,-1.5966,-1.5966,-1.5966,-1.5966,-1.5966,-1.5966,-1.6341,-1.6584,-1.6584,-1.6877,-1.7112,-1.7112,-1.7112,-1.7112,-1.7112,-1.7112,-1.7112,-1.7112,-1.7112,-1.7112,-1.7112,-1.7112,-1.7112,-1.7112,-1.7153,-1.7242,-1.738,-1.738,-1.723,-1.7047,-1.6956,-1.6674,-1.6308,-1.7032,-1.7285,-1.705,-1.7419,-1.7212,-1.6494,-1.6494,-1.6025,-1.5181,-1.5181,-1.5181,-1.5181,-1.5181,-1.5181,-1.5181,-1.5181,-1.5181,-1.5181,-1.5181,-1.5181,-1.5181,-1.5181,-1.5181,-1.5181,-1.5181,-1.5181,-1.5215,-1.5364,-1.5493,-1.5622,-1.5764,-1.5886,-1.5974,-1.5974,-1.5974,-1.5974,-1.5974,-1.5974,-1.594,-1.5825,-1.5805,-1.5771,-1.5655,-1.5608,-1.5588,-1.5588,-1.5554,-1.5533,-1.5533,-1.5533,-1.5547,-1.5581,-1.5588,-1.5601,-1.5635,-1.5574,-1.5533,-1.5533,-1.5418,-1.5357,-1.5357,-1.5242,-1.5181,-1.5181,-1.5181,-1.5181,-1.5181,-1.5181,-1.5181,-1.5181,-1.5181,-1.5181,-1.5966,-1.5966,-1.5966,-1.5966,-1.5966,-1.5966,-1.5966,-1.5966,-1.5966,-1.5966,-1.5966,-1.5966,-1.5966,-1.6341,-1.6584,-1.6584,-1.6877,-1.7112,-1.7112,-1.7112,-1.7112,-1.7112,-1.7112,-1.7112,-1.7112,-1.7112,-1.7112,-1.7112,-1.7112,-1.7112,-1.7112,-1.7112,-1.7161,-1.7258,-1.7258,-1.721,-1.7195,-1.7195,-1.7104,-1.6824,-1.7368,-1.7507,-1.7421,-1.7604,-1.7333,-1.6569,-1.6569,-1.6054,-1.5181,-1.5181,-1.5181,-1.5181,-1.5181,-1.5181,-1.5181,-1.5181,-1.5181,-1.5181,-1.5181,-1.5181,-1.5181,-1.5181,-1.5181,-1.5181,-1.5181,-1.5181,-1.5228,-1.5452,-1.5574,-1.5689,-1.59,-1.6022,-1.6083,-1.6083,-1.6083,-1.6083,-1.6083,-1.6083,-1.6056,-1.5974,-1.5961,-1.5934,-1.5852,-1.5784,-1.5737,-1.5737,-1.5683,-1.5642,-1.5642,-1.5642,-1.5662,-1.573,-1.5737,-1.5764,-1.5839,-1.5845,-1.5784,-1.5649,-1.556,-1.5513,-1.5513,-1.5438,-1.5357,-1.5289,-1.5289,-1.5255,-1.5181,-1.5181,-1.5181,-1.5181,-1.5181,-1.5181,-1.5966,-1.5966,-1.5966,-1.5966,-1.5966,-1.5966,-1.5966,-1.5966,-1.5966,-1.5966,-1.5966,-1.5966,-1.5966,-1.6341,-1.6584,-1.6584,-1.6877,-1.7112,-1.7112,-1.7112,-1.7112,-1.7112,-1.7112,-1.7112,-1.7112,-1.7112,-1.7112,-1.7112,-1.7112,-1.7112,-1.7112,-1.7112,-1.7112,-1.7112,-1.7112,-1.7258,-1.7559,-1.7559,-1.7559,-1.7559,-1.7559,-1.7575,-1.7599,-1.7599,-1.7159,-1.6497,-1.6435,0.0,-1.5247,-1.5268,-1.5181,-1.5181,-1.5181,-1.5181,-1.5181,-1.5181,-1.5181,-1.5181,-1.5181,-1.5181,-1.5181,-1.5181,-1.5181,-1.5181,-1.5181,-1.5181,-1.5248,-1.5554,-1.5642,-1.571,-1.6001,-1.6083,-1.6083,-1.6083,-1.6083,-1.6083,-1.6083,-1.6083,-1.6083,-1.6083,-1.6083,-1.6083,-1.6083,-1.5974,-1.5886,-1.5886,-1.5784,-1.571,-1.571,-1.571,-1.575,-1.5872,-1.5886,-1.594,-1.6069,-1.6083,-1.5974,-1.5723,-1.5683,-1.5662,-1.5642,-1.5642,-1.5581,-1.5445,-1.5445,-1.5371,-1.5215,-1.5215,-1.5208,-1.5181,-1.5181,-1.5181,-1.5966,-1.5966,-1.5966,-1.5966,-1.5966,-1.5966,-1.5966,-1.5966,-1.5966,-1.5966,-1.5966,-1.5966,-1.5966,-1.6341,-1.6584,-1.6584,-1.6877,-1.7112,-1.7112,-1.7112,-1.7112,-1.7112,-1.7112,-1.7112,-1.7112,-1.7112,-1.7112,-1.7112,-1.7112,-1.7112,-1.7112,-1.7112,-1.7112,-1.7112,-1.7112,-1.7136,-1.7193,-1.7193,-1.7193,-1.7193,-1.7193,-1.7274,-1.7429,-1.7429,-1.7256,-1.6788,0.0,-1.6088,-1.5561,-1.5313,-1.5181,-1.5181,-1.5181,-1.5181,-1.5181,-1.5181,-1.5181,-1.5181,-1.5181,-1.5181,-1.5181,-1.5181,-1.5181,-1.5181,-1.5181,-1.5181,-1.5248,-1.5554,-1.5642,-1.571,-1.6001,-1.6083,-1.6083,-1.6083,-1.6083,-1.6083,-1.6083,-1.6083,-1.6083,-1.6083,-1.6083,-1.6083,-1.6083,-1.6062,-1.6049,-1.6049,-1.6029,-1.6015,-1.6015,-1.6015,-1.6022,-1.6042,-1.6049,-1.6056,-1.6083,-1.6083,-1.6062,-1.6015,-1.5893,-1.5764,-1.5642,-1.5642,-1.5628,-1.5601,-1.5601,-1.5527,-1.5377,-1.5377,-1.5309,-1.5181,-1.5181,-1.5181,-1.5966,-1.5966,-1.5966,-1.5966,-1.5966,-1.5966,-1.5966,-1.5966,-1.5966,-1.5966,-1.5966,-1.599,-1.617,-1.6397,-1.6641,-1.6836,-1.7006,-1.7112,-1.7112,-1.7112,-1.7112,-1.7112,-1.7112,-1.7112,-1.7112,-1.7112,-1.7112,-1.7112,-1.7112,-1.7112,-1.7112,-1.7112,-1.7112,-1.7112,-1.7112,-1.7112,-1.7112,-1.7112,-1.7112,-1.7112,-1.7112,-1.7153,-1.7242,-1.7242,-1.7064,-1.67,0.0,-1.5986,-1.5711,-1.5307,-1.5181,-1.5181,-1.5181,-1.5368,-1.5563,-1.5563,-1.5462,-1.5181,-1.5181,-1.5181,-1.5181,-1.5181,-1.5181,-1.5181,-1.5181,-1.5242,-1.535,-1.5574,-1.5642,-1.571,-1.6001,-1.6083,-1.6083,-1.6083,-1.6083,-1.6083,-1.6083,-1.6083,-1.6083,-1.6083,-1.6083,-1.6083,-1.6083,-1.6083,-1.6083,-1.6083,-1.6083,-1.6083,-1.6083,-1.6083,-1.6083,-1.6083,-1.6083,-1.6083,-1.6083,-1.6083,-1.6083,-1.6083,-1.6015,-1.5947,-1.5879,-1.5879,-1.5839,-1.5757,-1.5757,-1.5683,-1.5533,-1.5452,-1.5371,-1.5303,-1.5221,-1.5181,-1.5983,-1.6016,-1.5966,-1.5966,-1.5966,-1.5966,-1.5966,-1.5966,-1.5966,-1.5966,-1.6081,-1.6146,-1.6276,-1.6487,-1.6747,-1.7063,-1.7112,-1.7112,-1.7112,-1.7112,-1.7112,-1.7112,-1.7112,-1.7112,-1.7112,-1.7112,-1.7112,-1.7112,-1.7112,-1.7112,-1.7112,-1.7112,-1.7112,-1.7112,-1.7112,-1.7112,-1.7112,-1.7112,-1.7112,-1.7112,-1.7112,-1.7112,-1.7112,-1.7112,-1.692,-1.67,-1.6333,-1.6135,-1.593,-1.5531,-1.5428,-1.5556,-1.5368,-1.5563,-1.5938,-1.5938,-1.5563,-1.5181,-1.5181,-1.5181,-1.5181,-1.5181,-1.5181,-1.5181,-1.5181,-1.5289,-1.5445,-1.5594,-1.5662,-1.575,-1.6015,-1.6083,-1.6083,-1.6083,-1.6083,-1.6083,-1.6083,-1.6083,-1.6083,-1.6083,-1.6083,-1.6083,-1.6083,-1.6083,-1.6083,-1.6083,-1.6083,-1.6083,-1.6083,-1.6083,-1.6083,-1.6083,-1.6083,-1.6083,-1.6083,-1.6083,-1.6083,-1.6083,-1.6083,-1.6083,-1.6083,-1.6083,-1.6029,-1.5906,-1.5906,-1.5832,-1.5689,-1.5574,-1.5499,-1.5459,-1.5309,-1.5235,-1.5788,-1.5918,-1.5966,-1.5966,-1.5966,-1.5966,-1.5966,-1.5966,-1.5966,-1.5966,-1.617,-1.6292,-1.63,-1.6592,-1.6806,-1.708,-1.7112,-1.7112,-1.7112,-1.7112,-1.7112,-1.7112,-1.7112,-1.7112,-1.7112,-1.7112,-1.7112,-1.7112,-1.7112,-1.7112,-1.7112,-1.7112,-1.7112,-1.7112,-1.7112,-1.7112,-1.7112,-1.7112,-1.7112,-1.7112,-1.7112,-1.7112,-1.7112,-1.7112,-1.712,-1.7048,-1.6693,-1.6693,-1.6772,-1.6022,-1.5982,-1.6587,-1.6032,-1.5845,-1.5938,-1.5938,-1.5563,-1.5181,-1.5181,-1.5181,-1.5181,-1.5181,-1.5181,-1.5181,-1.5181,-1.5289,-1.5445,-1.5594,-1.5737,-1.5872,-1.6042,-1.6083,-1.6083,-1.6083,-1.6083,-1.6083,-1.6083,-1.6083,-1.6083,-1.6083,-1.6083,-1.6083,-1.6083,-1.6083,-1.6083,-1.6083,-1.6083,-1.6083,-1.6083,-1.6083,-1.6083,-1.6083,-1.6083,-1.6083,-1.6083,-1.6083,-1.6083,-1.6083,-1.6083,-1.6083,-1.6083,-1.6083,-1.6076,-1.6069,-1.6069,-1.5988,-1.5839,-1.5825,-1.575,-1.5622,-1.5466,-1.5398,-1.561,-1.574,-1.5878,-1.5878,-1.5959,-1.5966,-1.5966,-1.5966,-1.5966,-1.5966,-1.6186,-1.6373,-1.66,-1.6844,-1.7039,-1.7096,-1.7112,-1.7112,-1.7112,-1.7112,-1.7112,-1.7112,-1.7112,-1.7112,-1.7112,-1.7112,-1.7112,-1.7112,-1.7112,-1.7112,-1.7112,-1.7112,-1.7112,-1.7112,-1.7112,-1.7112,-1.7112,-1.7112,-1.7112,-1.7112,-1.7112,-1.7112,-1.7112,-1.7112,-1.7112,-1.712,-1.6766,-1.6669,-1.6848,-1.6375,-1.6346,-1.6681,-1.6774,-1.6681,-1.64,-1.6688,-1.6494,-1.6119,-1.6119,-1.6119,-1.6119,-1.6119,-1.5931,-1.5671,-1.5762,-1.5711,-1.5581,-1.573,-1.5879,-1.6008,-1.6069,-1.6083,-1.6083,-1.6083,-1.6083,-1.6083,-1.6083,-1.6083,-1.6083,-1.6083,-1.6083,-1.6083,-1.6083,-1.6083,-1.6083,-1.6083,-1.6083,-1.6083,-1.6083,-1.6083,-1.6083,-1.6083,-1.6083,-1.6083,-1.6083,-1.6083,-1.6083,-1.6083,-1.6083,-1.6083,-1.6083,-1.6083,-1.6083,-1.6083,-1.6083,-1.6056,-1.5995,-1.59,-1.5825,-1.5771,-1.5622,-1.5499,-1.5504,-1.5642,-1.5788,-1.5845,-1.5951,-1.5966,-1.5966,-1.5966,-1.6064,-1.6113,-1.6316,-1.6568,-1.6877,-1.7031,-1.7112,-1.7112,-1.7112,-1.7112,-1.7112,-1.7112,-1.7112,-1.7112,-1.7112,-1.7112,-1.7112,-1.7112,-1.7112,-1.7112,-1.7112,-1.7112,-1.7112,-1.7112,-1.7112,-1.7112,-1.7112,-1.7112,-1.7112,-1.7112,-1.7112,-1.7112,-1.7112,-1.7112,-1.7112,-1.7112,-1.7112,-1.712,-1.6888,-1.6892,-1.7112,-1.6689,-1.6672,-1.6962,-1.7429,-1.7336,-1.6962,-1.725,-1.7055,-1.6681,-1.6681,-1.6681,-1.6681,-1.6681,-1.6306,-1.5967,-1.6116,-1.5897,-1.5669,-1.5811,-1.5961,-1.6083,-1.6083,-1.6083,-1.6083,-1.6083,-1.6083,-1.6083,-1.6083,-1.6083,-1.6083,-1.6083,-1.6083,-1.6083,-1.6083,-1.6083,-1.6083,-1.6083,-1.6083,-1.6083,-1.6083,-1.6083,-1.6083,-1.6083,-1.6083,-1.6083,-1.6083,-1.6083,-1.6083,-1.6083,-1.6083,-1.6083,-1.6083,-1.6083,-1.6083,-1.6083,-1.6083,-1.6083,-1.6083,-1.5974,-1.5927,-1.592,-1.5778,-1.5649,-1.5463,-1.5642,-1.5813,-1.5999,-1.5958,-1.5966,-1.5966,-1.5966,-1.6097,-1.6267,-1.66,-1.6822,-1.708,-1.7112,-1.7112,-1.7112,-1.7112,-1.7112,-1.7112,-1.7112,-1.7112,-1.7112,-1.7112,-1.7112,-1.7112,-1.7112,-1.7112,-1.7112,-1.7112,-1.7112,-1.7112,-1.7112,-1.7112,-1.7112,-1.7112,-1.7112,-1.7112,-1.7112,-1.7112,-1.7112,-1.7112,-1.7112,-1.7112,-1.7112,-1.7112,-1.7112,-1.7112,-1.7315,-1.7549,-1.7104,-1.7133,-1.7429,-1.7989,-1.7896,-1.7437,-1.7437,-1.7149,-1.6681,-1.6681,-1.6681,-1.6681,-1.6681,-1.6306,-1.5967,-1.6116,-1.5897,-1.5669,-1.5811,-1.5961,-1.6083,-1.6083,-1.6083,-1.6083,-1.6083,-1.6083,-1.6083,-1.6083,-1.6083,-1.6083,-1.6083,-1.6083,-1.6083,-1.6083,-1.6083,-1.6083,-1.6083,-1.6083,-1.6083,-1.6083,-1.6083,-1.6083,-1.6083,-1.6083,-1.6083,-1.6083,-1.6083,-1.6083,-1.6083,-1.6083,-1.6083,-1.6083,-1.6083,-1.6083,-1.6083,-1.6083,-1.6083,-1.6083,-1.6083,-1.6083,-1.6076,-1.5927,-1.5852,-1.5268,-1.5455,-1.5634,-1.5813,-1.5951,-1.5966,-1.5966,-1.5966,-1.6129,-1.6438,-1.669,-1.6822,-1.708,-1.7112,-1.7112,-1.7112,-1.7112,-1.7112,-1.7112,-1.7112,-1.7112,-1.7112,-1.7112,-1.7112,-1.7112,-1.7112,-1.7112,-1.7112,-1.7112,-1.7112,-1.7112,-1.7112,-1.7112,-1.7112,-1.7112,-1.7112,-1.7112,-1.7112,-1.7112,-1.7112,-1.7112,-1.7112,-1.7112,-1.7112,-1.7112,-1.7112,-1.7112,-1.7315,-1.7566,-1.7732,-1.7893,-1.7989,-1.8176,-1.8083,-1.7989,-1.7989,-1.7896,-1.7803,-1.7803,-1.7803,-1.7803,-1.7803,-1.7429,-1.6928,-1.6825,-1.6558,-1.6167,-1.6039,-1.6049,-1.6083,-1.6083,-1.6083,-1.6083,-1.6083,-1.6083,-1.6083,-1.6083,-1.6083,-1.6083,-1.6083,-1.6083,-1.6083,-1.6083,-1.6083,-1.6083,-1.6083,-1.6083,-1.6083,-1.6083,-1.6083,-1.6083,-1.6083,-1.6083,-1.6083,-1.6083,-1.6083,-1.6083,-1.6083,-1.6083,-1.6083,-1.6083,-1.6083,-1.6083,-1.6083,-1.6083,-1.6083,-1.6083,-1.6083,-1.6083,-1.6083,-1.6035,-1.5954,-1.5277,-1.5431,-1.5577,-1.5821,-1.5967,-1.5982,-1.6129,-1.6202,-1.6341,-1.6633,-1.6828,-1.699,-1.7088,-1.7112,-1.7112,-1.7112,-1.7112,-1.7112,-1.7112,-1.7112,-1.7112,-1.7112,-1.7112,-1.7112,-1.7112,-1.7112,-1.7112,-1.7112,-1.7112,-1.7112,-1.7112,-1.7112,-1.7112,-1.7112,-1.7112,-1.7112,-1.7112,-1.7112,-1.7112,-1.7112,-1.7112,-1.7112,-1.7112,-1.7112,-1.7112,-1.712,-1.7258,-1.7445,-1.7664,-1.803,-1.8176,-1.8176,-1.8176,-1.8176,-1.8176,-1.8176,-1.8176,-1.8176,-1.8176,-1.8176,-1.8176,-1.8176,-1.785,-1.7491,-1.7482,-1.7121,-1.6738,-1.6503,-1.6374,-1.6374,-1.6182,-1.6083,-1.6083,-1.6083,-1.6083,-1.6083,-1.6083,-1.6083,-1.6083,-1.6083,-1.6083,-1.6083,-1.6083,-1.6083,-1.6083,-1.6083,-1.6083,-1.6083,-1.6083,-1.6083,-1.6083,-1.6083,-1.6083,-1.6083,-1.6083,-1.6083,-1.6083,-1.6083,-1.6083,-1.6083,-1.6083,-1.6083,-1.6083,-1.6083,-1.6083,-1.6083,-1.6083,-1.6083,-1.6083,-1.6083,-1.6083,-1.6035,-1.5415,-1.5512,-1.5601,-1.5959,-1.5974,-1.6113,-1.6292,-1.647,-1.6649,-1.6733,-1.699,-1.7112,-1.7112,-1.7112,-1.7112,-1.7112,-1.7112,-1.7112,-1.7112,-1.7112,-1.7112,-1.7112,-1.7112,-1.7112,-1.7112,-1.7112,-1.7112,-1.7112,-1.7112,-1.7112,-1.7112,-1.7112,-1.7112,-1.7112,-1.7112,-1.7112,-1.7112,-1.7112,-1.7112,-1.7112,-1.7112,-1.7112,-1.7112,-1.7112,-1.7112,-1.7128,-1.7486,-1.764,-1.7664,-1.803,-1.8176,-1.8176,-1.8176,-1.8176,-1.8176,-1.8176,-1.8176,-1.8176,-1.8176,-1.8176,-1.8176,-1.8176,-1.8016,-1.7812,-1.7889,-1.7672,-1.7351,-1.7019,-1.697,-1.6772,-1.6275,-1.6182,-1.6083,-1.6083,-1.6083,-1.6083,-1.6083,-1.6083,-1.6083,-1.6083,-1.6083,-1.6083,-1.6083,-1.6083,-1.6083,-1.6083,-1.6083,-1.6083,-1.6083,-1.6083,-1.6083,-1.6083,-1.6083,-1.6083,-1.6083,-1.6083,-1.6083,-1.6083,-1.6083,-1.6083,-1.6083,-1.6083,-1.6083,-1.6083,-1.6083,-1.6083,-1.6083,-1.6083,-1.6083,-1.6083,-1.6083,-1.6083,-1.5415,-1.5512,-1.5601,-1.5959,-1.6146,-1.63,-1.6479,-1.6665,-1.6803,-1.6758,-1.699,-1.7112,-1.7112,-1.7112,-1.7112,-1.7112,-1.7112,-1.7112,-1.7112,-1.7112,-1.7112,-1.7112,-1.7112,-1.7112,-1.7112,-1.7112,-1.7112,-1.7112,-1.7112,-1.7112,-1.7112,-1.7112,-1.7112,-1.7112,-1.7112,-1.7112,-1.7112,-1.7112,-1.7112,-1.7112,-1.7112,-1.7112,-1.7112,-1.7112,-1.7112,-1.7128,-1.7486,-1.764,-1.7664,-1.803,-1.8176,-1.8176,-1.8176,-1.8176,-1.8176,-1.8176,-1.8176,-1.8176,-1.8176,-1.8176,-1.8176,-1.8176,-1.8298,-1.8295,-1.7984,-1.7971,-1.7946,-1.762,-1.7268,-1.6871,-1.6772,-1.6374,-1.6083,-1.6083,-1.6083,-1.6083,-1.6083,-1.6083,-1.6083,-1.6083,-1.6083,-1.6083,-1.6083,-1.6083,-1.6083,-1.6083,-1.6083,-1.6083,-1.6083,-1.6083,-1.6083,-1.6083,-1.6083,-1.6083,-1.6083,-1.6083,-1.6083,-1.6083,-1.6083,-1.6083,-1.6083,-1.6083,-1.6083,-1.6083,-1.6083,-1.6083,-1.6083,-1.6083,-1.6083,-1.6083,-1.6083,-1.6083,-1.5415,-1.5512,-1.5601,-1.5959,-1.6243,-1.6462,-1.656,-1.6787,-1.6974,-1.6974,-1.7047,-1.7112,-1.7112,-1.7112,-1.7112,-1.7112,-1.7112,-1.7112,-1.7112,-1.7112,-1.7112,-1.7112,-1.7112,-1.7112,-1.7112,-1.7112,-1.7112,-1.7112,-1.7112,-1.7112,-1.7112,-1.7112,-1.7112,-1.7112,-1.7112,-1.7112,-1.7112,-1.7112,-1.7112,-1.7112,-1.7112,-1.7112,-1.7112,-1.7112,-1.7112,-1.7128,-1.7486,-1.764,-1.7664,-1.803,-1.8176,-1.8176,-1.8176,-1.8176,-1.8176,-1.8176,-1.8176,-1.8176,-1.8176,-1.8176,-1.8176,-1.8176,-1.8363,-1.8598,-1.8304,-1.8519,-1.8545,-1.7848,-1.7474,-1.7169,-1.6672,-1.6282,-1.6083,-1.6083,-1.6083,-1.6083,-1.6083,-1.6083,-1.6083,-1.6083,-1.6083,-1.6083,-1.6083,-1.6083,-1.6083,-1.6083,-1.6083,-1.6083,-1.6083,-1.6083,-1.6083,-1.6083,-1.6083,-1.6083,-1.6083,-1.6083,-1.6083,-1.6083,-1.6083,-1.6083,-1.6083,-1.6083,-1.6083,-1.6083,-1.6083,-1.6083,-1.6083,-1.6083,-1.6083,-1.6083,-1.6083,-1.6083,-1.5415,-1.5561,-1.5675,-1.5893,-1.6316,-1.6584,-1.6584,-1.6852,-1.7112,-1.7112,-1.7112,-1.7112,-1.7112,-1.7112,-1.7112,-1.7112,-1.7112,-1.7112,-1.7112,-1.7112,-1.7112,-1.7112,-1.7112,-1.7112,-1.7112,-1.7112,-1.7112,-1.7112,-1.7112,-1.7112,-1.7112,-1.7112,-1.7112,-1.7112,-1.7112,-1.7112,-1.7112,-1.7112,-1.7112,-1.7112,-1.7112,-1.7112,-1.7112,-1.7112,-1.7112,-1.7128,-1.7486,-1.764,-1.7664,-1.803,-1.8176,-1.8176,-1.8176,-1.8176,-1.8176,-1.8176,-1.8176,-1.8176,-1.8176,-1.8176,-1.8176,-1.8176,-1.8428,-1.8728,-1.8728,-1.8972,-1.9157,-1.8267,-1.787,-1.7573,-1.6679,-1.6282,-1.6182,-1.6083,-1.6083,-1.6083,-1.6083,-1.6083,-1.6083,-1.6083,-1.6083,-1.6083,-1.6083,-1.6083,-1.6083,-1.6083,-1.6083,-1.6083,-1.6083,-1.6083,-1.6083,-1.6083,-1.6083,-1.6083,-1.6083,-1.6083,-1.6083,-1.6083,-1.6083,-1.6083,-1.6083,-1.6083,-1.6083,-1.6083,-1.6083,-1.6083,-1.6083,-1.6083,-1.6083,-1.6083,-1.6083,-1.6083,-1.5415,-1.574,-1.5901,-1.595,-1.6316,-1.6584,-1.6584,-1.6852,-1.7112,-1.7112,-1.7112,-1.7112,-1.7112,-1.7112,-1.7112,-1.7112,-1.7112,-1.7112,-1.7112,-1.7112,-1.7112,-1.7112,-1.7112,-1.7112,-1.7112,-1.7112,-1.7112,-1.7112,-1.7112,-1.7112,-1.7112,-1.7112,-1.7112,-1.7112,-1.7112,-1.7112,-1.7112,-1.7112,-1.7112,-1.7112,-1.7112,-1.7112,-1.7112,-1.7112,-1.7112,-1.7128,-1.7486,-1.764,-1.7664,-1.803,-1.8176,-1.8176,-1.8176,-1.8176,-1.8176,-1.8176,-1.8176,-1.8176,-1.8176,-1.8176,-1.8176,-1.8176,-1.8428,-1.8728,-1.8728,-1.8972,-1.9256,-1.9157,-1.8762,-1.8259,-1.7665,-1.7169,-1.6672,-1.6182,-1.6083,-1.6083,-1.6083,-1.6083,-1.6083,-1.6083,-1.6083,-1.6083,-1.6083,-1.6083,-1.6083,-1.6083,-1.6083,-1.6083,-1.6083,-1.6083,-1.6083,-1.6083,-1.6083,-1.6083,-1.6083,-1.6083,-1.6083,-1.6083,-1.6083,-1.6083,-1.6083,-1.6083,-1.6083,-1.6083,-1.6083,-1.6083,-1.6083,-1.6083,-1.6083,-1.6083,-1.6083,-1.6083,-1.5415,-1.5772,-1.5966,-1.5966,-1.6235,-1.6454,-1.656,-1.6779,-1.6998,-1.7088,-1.7112,-1.7112,-1.7112,-1.7112,-1.7112,-1.7112,-1.7112,-1.7112,-1.7112,-1.7112,-1.7112,-1.7112,-1.7112,-1.7112,-1.7112,-1.7112,-1.7112,-1.7112,-1.7112,-1.7112,-1.7112,-1.7112,-1.7112,-1.7112,-1.7112,-1.7112,-1.7112,-1.7112,-1.7112,-1.7112,-1.7112,-1.7112,-1.7112,-1.7112,-1.7112,-1.7128,-1.7486,-1.764,-1.7664,-1.803,-1.8176,-1.8176,-1.8176,-1.8176,-1.8176,-1.8176,-1.8176,-1.8176,-1.8176,-1.8176,-1.8192,-1.8298,-1.8509,-1.8744,-1.8842,-1.9053,-1.9256,-1.896,-1.8457,-1.7962,-1.7367,-1.6871,-1.6374,-1.6182,-1.6083,-1.6083,-1.6083,-1.6083,-1.6083,-1.6083,-1.6083,-1.6083,-1.6083,-1.6083,-1.6083,-1.6083,-1.6083,-1.6083,-1.6083,-1.6083,-1.6083,-1.6083,-1.6083,-1.6083,-1.6083,-1.6083,-1.6083,-1.6083,-1.6083,-1.6083,-1.6083,-1.6083,-1.6083,-1.6083,-1.6083,-1.6083,-1.6083,-1.6083,-1.6083,-1.6083,-1.6083,-1.6083,-1.5439,-1.5772,-1.5966,-1.5966,-1.6178,-1.6349,-1.6535,-1.6722,-1.6901,-1.7071,-1.7112,-1.7112,-1.7112,-1.7112,-1.7112,-1.7112,-1.7112,-1.7112,-1.7112,-1.7112,-1.7112,-1.7112,-1.7112,-1.7112,-1.7112,-1.7112,-1.7112,-1.7112,-1.7112,-1.7112,-1.7112,-1.7112,-1.7112,-1.7112,-1.7112,-1.7112,-1.7112,-1.7112,-1.7112,-1.7112,-1.7112,-1.7112,-1.7112,-1.7112,-1.7112,-1.7128,-1.7486,-1.764,-1.7664,-1.803,-1.8176,-1.8176,-1.8176,-1.8176,-1.8176,-1.8176,-1.8176,-1.8176,-1.8176,-1.8176,-1.82,-1.8338,-1.8541,-1.8753,-1.8874,-1.9077,-1.9256,-1.8853,-1.8358,-1.7764,-1.7268,-1.6672,-1.6275,-1.6275,-1.6182,-1.6083,-1.6083,-1.6083,-1.6083,-1.6083,-1.6083,-1.6083,-1.6083,-1.6083,-1.6083,-1.6083,-1.6083,-1.6083,-1.6083,-1.6083,-1.6083,-1.6083,-1.6083,-1.6083,-1.6083,-1.6083,-1.6083,-1.6083,-1.6083,-1.6083,-1.6083,-1.6083,-1.6083,-1.6083,-1.6083,-1.6083,-1.6083,-1.6083,-1.6083,-1.6083,-1.6083,-1.6083,-1.5512,-1.5772,-1.5966,-1.5966,-1.6178,-1.6349,-1.6535,-1.6722,-1.6901,-1.7071,-1.7112,-1.7112,-1.7112,-1.7112,-1.7112,-1.7112,-1.7112,-1.7112,-1.7112,-1.7112,-1.7112,-1.7112,-1.7112,-1.7112,-1.7112,-1.7112,-1.7112,-1.7112,-1.7112,-1.7112,-1.7112,-1.7112,-1.7112,-1.7112,-1.7112,-1.7112,-1.7112,-1.7112,-1.7112,-1.7112,-1.7112,-1.7112,-1.7112,-1.7112,-1.7112,-1.7128,-1.7486,-1.764,-1.7664,-1.803,-1.8176,-1.8176,-1.8176,-1.8176,-1.8176,-1.8176,-1.8176,-1.8176,-1.8176,-1.8176,-1.8176,-1.8184,-1.8436,-1.8728,-1.8736,-1.898,-1.9256,-1.9256,-1.8861,-1.8358,-1.7764,-1.7268,-1.6864,-1.6864,-1.6474,-1.6083,-1.6083,-1.6083,-1.6083,-1.6083,-1.6083,-1.6083,-1.6083,-1.6083,-1.6083,-1.6083,-1.6083,-1.6083,-1.6083,-1.6083,-1.6083,-1.6083,-1.6083,-1.6083,-1.6083,-1.6083,-1.6083,-1.6083,-1.6083,-1.6083,-1.6083,-1.6083,-1.6083,-1.6083,-1.6083,-1.6083,-1.6083,-1.6083,-1.6083,-1.6083,-1.6083,-1.6083,-1.5512,-1.5772,-1.5966,-1.5966,-1.6006,-1.6219,-1.6511,-1.6633,-1.6763,-1.7047,-1.7112,-1.7112,-1.7112,-1.7112,-1.7112,-1.7112,-1.7112,-1.7112,-1.7112,-1.7112,-1.7112,-1.7112,-1.7112,-1.7112,-1.7112,-1.7112,-1.7112,-1.7112,-1.7112,-1.7112,-1.7112,-1.7112,-1.7112,-1.7112,-1.7112,-1.7112,-1.7112,-1.7112,-1.7112,-1.7112,-1.7112,-1.7112,-1.7112,-1.7112,-1.7112,-1.712,-1.7372,-1.7543,-1.7656,-1.7908,-1.807,-1.8176,-1.8176,-1.8176,-1.8176,-1.8176,-1.8176,-1.8176,-1.8176,-1.8176,-1.8192,-1.8314,-1.8525,-1.8744,-1.8858,-1.9061,-1.9256,-1.9256,-1.896,-1.8358,-1.787,-1.7268,-1.6772,-1.6474,-1.6474,-1.6474,-1.6182,-1.6083,-1.6083,-1.6083,-1.6083,-1.6083,-1.6083,-1.6083,-1.6083,-1.6083,-1.6083,-1.6083,-1.6083,-1.6083,-1.6083,-1.6083,-1.6083,-1.6083,-1.6083,-1.6083,-1.6083,-1.6083,-1.6083,-1.6083,-1.6083,-1.6083,-1.6083,-1.6083,-1.6083,-1.6083,-1.6083,-1.6083,-1.6083,-1.6083,-1.6083,-1.6083,-1.5601,-1.5821,-1.5966,-1.5966,-1.5966,-1.6121,-1.6422,-1.6535,-1.6665,-1.6966,-1.7071,-1.7112,-1.7112,-1.7112,-1.7112,-1.7112,-1.7112,-1.7112,-1.7112,-1.7112,-1.7112,-1.7112,-1.7112,-1.7112,-1.7112,-1.7112,-1.7112,-1.7112,-1.7112,-1.7112,-1.7112,-1.7112,-1.7112,-1.7112,-1.7112,-1.7112,-1.7112,-1.7112,-1.7112,-1.7112,-1.7112,-1.7112,-1.7112,-1.7112,-1.7112,-1.712,-1.7242,-1.7429,-1.7656,-1.7843,-1.8022,-1.8176,-1.8176,-1.8176,-1.8176,-1.8176,-1.8176,-1.8176,-1.8176,-1.8176,-1.8192,-1.8322,-1.8525,-1.8744,-1.8858,-1.9061,-1.9256,-1.9256,-1.896,-1.8457,-1.8061,-1.7665,-1.7268,-1.6573,-1.6772,-1.707,-1.6474,-1.6282,-1.6083,-1.6083,-1.6083,-1.6083,-1.6083,-1.6083,-1.6083,-1.6083,-1.6083,-1.6083,-1.6083,-1.6083,-1.6083,-1.6083,-1.6083,-1.6083,-1.6083,-1.6083,-1.6083,-1.6083,-1.6083,-1.6083,-1.6083,-1.6083,-1.6083,-1.6083,-1.6083,-1.6083,-1.6083,-1.6083,-1.6083,-1.6083,-1.6083,-1.6083,0.0,0.0,0.0,-1.5966,-1.5966,-1.6089,-1.6267,-1.6446,-1.6633,-1.6725,-1.699,-1.7112,-1.7112,-1.7112,-1.7112,-1.7112,-1.7112,-1.7112,-1.7112,-1.7112,-1.7112,-1.7112,-1.7112,-1.7112,-1.7112,-1.7112,-1.7112,-1.7112,-1.7112,-1.7112,-1.7112,-1.7112,-1.7112,-1.7112,-1.7112,-1.7112,-1.7112,-1.7112,-1.7112,-1.7112,-1.7112,-1.7112,-1.7112,-1.7112,-1.7112,-1.7112,-1.7112,-1.7315,-1.7656,-1.7835,-1.8014,-1.8176,-1.8176,-1.8176,-1.8176,-1.8176,-1.8176,-1.8176,-1.8176,-1.8176,-1.8176,-1.8176,-1.8428,-1.8728,-1.8728,-1.8972,-1.9256,-1.9256,-1.896,-1.8556,-1.8457,-1.8457,-1.8259,-1.7162,-1.7367,-1.7573,-1.707,-1.6474,-1.6083,-1.6083,-1.6083,-1.6083,-1.6083,-1.6083,-1.6083,-1.6083,-1.6083,-1.6083,-1.6083,-1.6083,-1.6083,-1.6083,-1.6083,-1.6083,-1.6083,-1.6083,-1.6083,-1.6083,-1.6083,-1.6083,-1.6083,-1.6083,-1.6083,-1.6083,-1.6083,-1.6083,-1.6083,-1.6083,-1.6083,-1.6083,-1.6083,-1.6083,-1.5772,0.0,0.0,0.0,0.0,0.0,-1.6267,-1.6446,-1.6633,-1.6725,-1.699,-1.7112,-1.7112,-1.7112,-1.7112,-1.7112,-1.7112,-1.7112,-1.7112,-1.7112,-1.7112,-1.7112,-1.7112,-1.7112,-1.7112,-1.7112,-1.7112,-1.7112,-1.7112,-1.7112,-1.7112,-1.7112,-1.7112,-1.7112,-1.7112,-1.7112,-1.7112,-1.7112,-1.7112,-1.7112,-1.7112,-1.7112,-1.7112,-1.7112,-1.7112,-1.7112,-1.7112,-1.7315,-1.7648,-1.7697,-1.79,-1.8176,-1.8176,-1.8176,-1.8176,-1.8176,-1.8176,-1.8176,-1.8176,-1.8176,-1.8176,-1.8176,-1.8428,-1.8728,-1.8728,-1.8972,-1.9256,-1.9256,-1.9157,-1.896,-1.8556,-1.8457,-1.8358,-1.7665,-1.7566,-1.7573,-1.707,-1.6474,-1.6083,-1.6083,-1.6083,-1.6083,-1.6083,-1.6083,-1.6083,-1.6083,-1.6083,-1.6083,-1.6083,-1.6083,-1.6083,-1.6083,-1.6083,-1.6083,-1.6083,-1.6083,-1.6083,-1.6083,-1.6083,-1.6083,-1.6083,-1.6083,-1.6083,-1.6083,-1.6083,-1.6083,-1.6083,-1.6083,-1.6083,-1.6083,-1.6083,-1.6083,-1.5886,-1.5967,-1.5966,-1.5966,0.0,0.0,-1.617,-1.6397,-1.6609,-1.6714,-1.6942,-1.7112,-1.7112,-1.7112,-1.7112,-1.7112,-1.7112,-1.7112,-1.7112,-1.7112,-1.7112,-1.7112,-1.7112,-1.7112,-1.7112,-1.7112,-1.7112,-1.7112,-1.7112,-1.7112,-1.7112,-1.7112,-1.7112,-1.7112,-1.7112,-1.7112,-1.7112,-1.7112,-1.7112,-1.7112,-1.7112,-1.7112,-1.7112,-1.7112,-1.7112,-1.7112,-1.7112,-1.7315,-1.764,-1.764,-1.7851,-1.8176,-1.8176,-1.8176,-1.8176,-1.8176,-1.8176,-1.8176,-1.8176,-1.8176,-1.8176,-1.8176,-1.8428,-1.8728,-1.8728,-1.8972,-1.9256,-1.9256,-1.9256,-1.9157,-1.8655,-1.8655,-1.8663,-1.816,-1.787,-1.7573,-1.7268,-1.6672,-1.6083,-1.6083,-1.6083,-1.6083,-1.6083,-1.6083,-1.6083,-1.6083,-1.6083,-1.6083,-1.6083,-1.6083,-1.6083,-1.6083,-1.6083,-1.6083,-1.6083,-1.6083,-1.6083,-1.6083,-1.6083,-1.6083,-1.6083,-1.6083,-1.6083,-1.6083,-1.6083,-1.6083,-1.6083,-1.6083,-1.6083,-1.6083,-1.6083,-1.6083,-1.5966,-1.5966,-1.5966,-1.5966,-1.5966,0.0,-1.5966,-1.6324,-1.6584,-1.6584,-1.686,-1.7112,-1.7112,-1.7112,-1.7112,-1.7112,-1.7112,-1.7112,-1.7112,-1.7112,-1.7112,-1.7112,-1.7112,-1.7112,-1.7112,-1.7112,-1.7112,-1.7112,-1.7112,-1.7112,-1.7112,-1.7112,-1.7112,-1.7112,-1.7112,-1.7112,-1.7112,-1.7112,-1.7112,-1.7112,-1.7112,-1.7112,-1.7112,-1.7112,-1.7112,-1.7112,-1.7112,-1.7315,-1.764,-1.764,-1.7851,-1.8176,-1.8176,-1.8176,-1.8176,-1.8176,-1.8176,-1.8176,-1.8176,-1.8176,-1.8176,-1.8176,-1.8428,-1.8728,-1.8728,-1.8972,-1.9256,-1.9256,-1.9256,-1.9157,-1.8754,-1.896,-1.9157,-1.8655,-1.816,-1.7672,-1.7672,-1.6878,-1.6083,-1.6083,-1.6083,-1.6083,-1.6083,-1.6083,-1.6083,-1.6083,-1.6083,-1.6083,-1.6083,-1.6083,-1.6083,-1.6083,-1.6083,-1.6083,-1.6083,-1.6083,-1.6083,-1.6083,-1.6083,-1.6083,-1.6083,-1.6083,-1.6083,-1.6083,-1.6083,-1.6083,-1.6083,-1.6083,-1.6083,-1.6083,-1.6083,-1.6083,-1.5966,-1.5966,-1.5966,-1.5966,-1.5966,0.0,-1.5966,-1.6324,-1.6584,-1.6584,-1.686,-1.7112,-1.7112,-1.7112,-1.7112,-1.7112,-1.7112,-1.7112,-1.7112,-1.7112,-1.7112,-1.7112,-1.7112,-1.7112,-1.7112,-1.7112,-1.7112,-1.7112,-1.7112,-1.7112,-1.7112,-1.7112,-1.7112,-1.7112,-1.7112,-1.7112,-1.7112,-1.7112,-1.7112,-1.7112,-1.7112,-1.7112,-1.7112,-1.7112,-1.7112,-1.7112,-1.7112,-1.7315,-1.764,-1.764,-1.7851,-1.8176,-1.8176,-1.8176,-1.8176,-1.8176,-1.8176,-1.8176,-1.8176,-1.8176,-1.8176,-1.8176,-1.8428,-1.8728,-1.8728,-1.8972,-1.9256,-1.9256,-1.9256,-1.9256,-1.9157,-1.9256,-1.9256,-1.9157,-1.8366,-1.7672,-1.7672,-1.6878,-1.6083,-1.6083,-1.6083,-1.6083,-1.6083,-1.6083,-1.6083,-1.6083,-1.6083,-1.6083,-1.6083,-1.6083,-1.6083,-1.6083,-1.6083,-1.6083,-1.6083,-1.6083,-1.6083,-1.6083,-1.6083,-1.6083,-1.6083,-1.6083,-1.6083,-1.6083,-1.6083,-1.6083,-1.6083,-1.6083,-1.6083,-1.6083,-1.6083,-1.6083,-1.5966,-1.5966,-1.5966,-1.5966,-1.5966,0.0,0.0,-1.6381,-1.6609,-1.6698,-1.6925,-1.7112,-1.7112,-1.7112,-1.7112,-1.7112,-1.7112,-1.7112,-1.7112,-1.7112,-1.7112,-1.7112,-1.7112,-1.7112,-1.7112,-1.7112,-1.7112,-1.7112,-1.7112,-1.7112,-1.7112,-1.7112,-1.7112,-1.7112,-1.7112,-1.7112,-1.7112,-1.7112,-1.7112,-1.7112,-1.7112,-1.7112,-1.7112,-1.7112,-1.7112,-1.7112,-1.7112,-1.7315,-1.764,-1.764,-1.7851,-1.8176,-1.8176,-1.8176,-1.8176,-1.8176,-1.8176,-1.8176,-1.8176,-1.8176,-1.8176,-1.8176,-1.8363,-1.8606,-1.8696,-1.8972,-1.9256,-1.9256,-1.9256,-1.9256,-1.9256,-1.9256,-1.9256,-1.896,-1.8267,-1.7672,-1.7367,-1.6672,-1.6083,-1.6083,-1.6083,-1.6083,-1.6083,-1.6083,-1.6083,-1.6083,-1.6083,-1.6083,-1.6083,-1.6083,-1.6083,-1.6083,-1.6083,-1.6083,-1.6083,-1.6083,-1.6083,-1.6083,-1.6083,-1.6083,-1.6083,-1.6083,-1.6083,-1.6083,-1.6083,-1.6083,-1.6083,-1.6083,-1.6083,-1.6083,-1.6083,-1.6083,-1.6146,-1.6146,-1.6146,-1.6146,-1.6146,-1.6186,0.0,0.0,0.0,-1.682,-1.699,-1.7112,-1.7112,-1.7112,-1.7096,-1.7063,-1.7088,-1.7096,-1.7063,-1.7088,-1.7112,-1.7112,-1.7112,-1.7112,-1.7112,-1.7112,-1.7112,-1.7112,-1.7112,-1.7112,-1.7112,-1.7112,-1.7112,-1.7112,-1.7112,-1.7112,-1.7112,-1.7112,-1.7112,-1.7112,-1.7112,-1.7112,-1.7112,-1.7112,-1.7112,-1.7112,-1.7112,-1.7315,-1.764,-1.764,-1.7851,-1.8176,-1.8176,-1.8176,-1.8176,-1.8176,-1.8176,-1.8176,-1.8176,-1.8176,-1.8176,-1.8176,-1.8322,-1.8541,-1.872,-1.9004,-1.9256,-1.9256,-1.9256,-1.9256,-1.9256,-1.9256,-1.9157,-1.8754,-1.816,-1.7566,-1.7169,-1.6573,-1.6083,-1.6083,-1.6083,-1.6083,-1.6083,-1.6083,-1.6083,-1.6083,-1.6083,-1.6083,-1.6083,-1.6083,-1.6083,-1.6083,-1.6083,-1.6083,-1.6083,-1.6083,-1.6083,-1.6083,-1.6083,-1.6083,-1.6083,-1.6083,-1.6083,-1.6083,-1.6083,-1.6083,-1.6083,-1.6083,-1.6083,-1.6083,-1.6083,-1.6083,-1.6519,-1.6519,-1.6519,-1.6519,-1.6519,-1.6527,-1.6544,0.0,-1.6741,-1.6766,0.0,-1.7112,-1.7112,0.0,0.0,-1.6822,-1.7006,-1.7055,-1.6814,-1.7015,-1.7112,-1.7112,-1.7112,-1.7112,-1.7112,-1.7112,-1.7112,-1.7112,-1.7112,-1.7112,-1.7112,-1.7112,-1.7112,-1.7112,-1.7112,-1.7112,-1.7112,-1.7112,-1.7112,-1.7112,-1.7112,-1.7112,-1.7112,-1.7112,-1.7112,-1.7112,-1.7112,-1.7315,-1.764,-1.764,-1.7851,-1.8176,-1.8176,-1.8176,-1.8176,-1.8176,-1.8176,-1.8176,-1.8176,-1.8176,-1.8176,-1.8176,-1.8412,-1.8728,-1.8899,-1.9094,-1.9256,-1.9256,-1.9256,-1.9256,-1.9256,-1.9256,-1.9256,-1.9256,-1.8465,-1.7672,-1.7672,-1.6779,-1.6083,-1.6083,-1.6083,-1.6083,-1.6083,-1.6083,-1.6083,-1.6083,-1.6083,-1.6083,-1.6083,-1.6083,-1.6083,-1.6083,-1.6083,-1.6083,-1.6083,-1.6083,-1.6083,-1.6083,-1.6083,-1.6083,-1.6083,-1.6083,-1.6083,-1.6083,-1.6083,-1.6083,-1.6083,-1.6083,-1.6083,-1.6083,-1.6083,-1.6083,-1.6584,-1.6584,-1.6584,-1.6584,-1.6584,-1.6609,-1.6714,0.0,-1.6798,-1.6982,0.0,0.0,0.0,0.0,0.0,0.0,-1.7063,-1.7088,-1.7015,-1.7063,-1.7112,-1.7112,-1.7112,-1.7112,-1.7112,-1.7112,-1.7112,-1.7112,-1.7112,-1.7112,-1.7112,-1.7112,-1.7112,-1.7112,-1.7112,-1.7112,-1.7112,-1.7112,-1.7112,-1.7112,-1.7112,-1.7112,-1.7112,-1.7112,-1.7112,-1.7112,-1.7112,-1.7315,-1.764,-1.764,-1.7851,-1.8176,-1.8176,-1.8176,-1.8176,-1.8176,-1.8176,-1.8176,-1.8176,-1.8176,-1.8176,-1.8176,-1.8355,-1.8598,-1.8777,-1.8956,-1.9118,-1.9232,-1.9256,-1.9256,-1.9256,-1.9256,-1.9256,-1.896,-1.8259,-1.7573,-1.7268,-1.6672,-1.6083,-1.6083,-1.6083,-1.6083,-1.6083,-1.6083,-1.6083,-1.6083,-1.6083,-1.6083,-1.6083,-1.6083,-1.6083,-1.6083,-1.6083,-1.6083,-1.6083,-1.6083,-1.6083,-1.6083,-1.6083,-1.6083,-1.6083,-1.6083,-1.6083,-1.6083,-1.6083,-1.6083,-1.6083,-1.6083,-1.6083,-1.6083,-1.6083,-1.6083,-1.673,-1.673,-1.673,-1.673,-1.673,-1.6763,0.0,0.0,0.0,0.0,-1.7112,0.0,0.0,0.0,-1.7096,-1.7047,0.0,-1.7096,-1.7047,-1.708,-1.7112,-1.7112,-1.7112,-1.7112,-1.7112,-1.7112,-1.7112,-1.7112,-1.7112,-1.7112,-1.7112,-1.7112,-1.7112,-1.7112,-1.7112,-1.7112,-1.7112,-1.7112,-1.7112,-1.7112,-1.7112,-1.7112,-1.7112,-1.7112,-1.7112,-1.7112,-1.7112,-1.7315,-1.764,-1.764,-1.7851,-1.8176,-1.8176,-1.8176,-1.8176,-1.8176,-1.8176,-1.8176,-1.8176,-1.8176,-1.8176,-1.8176,-1.8298,-1.8485,-1.8671,-1.8842,-1.9021,-1.9109,-1.9058,-1.9058,-1.8861,-1.8861,-1.8762,-1.8358,-1.7863,-1.7367,-1.697,-1.6474,-1.6083,-1.6083,-1.6083,-1.6083,-1.6083,-1.6083,-1.6083,-1.6083,-1.6083,-1.6083,-1.6083,-1.6083,-1.6083,-1.6083,-1.6083,-1.6083,-1.6083,-1.6083,-1.6083,-1.6083,-1.6083,-1.6083,-1.6083,-1.6083,-1.6083,-1.6083,-1.6083,-1.6083,-1.6083,-1.6083,-1.6083,-1.6083,-1.6083,-1.6083,-1.7096,-1.7096,-1.7096,-1.7096,0.0,0.0,0.0,0.0,-1.7104,0.0,0.0,0.0,0.0,0.0,0.0,0.0,0.0,0.0,0.0,-1.7006,-1.7112,-1.7112,-1.7112,-1.7112,-1.7112,-1.7112,-1.7112,-1.7112,-1.7112,-1.7112,-1.7112,-1.7112,-1.7112,-1.7112,-1.7112,-1.7112,-1.7112,-1.7112,-1.7112,-1.7112,-1.7112,-1.7112,-1.7112,-1.7112,-1.7112,-1.7112,-1.7112,-1.7315,-1.764,-1.764,-1.7851,-1.8176,-1.8176,-1.8176,-1.8176,-1.8176,-1.8176,-1.8176,-1.8176,-1.8176,-1.8176,-1.8176,-1.8298,-1.8485,-1.8671,-1.8842,-1.8923,-1.8608,-1.8556,-1.8457,-1.787,-1.7771,-1.7771,-1.7771,-1.7367,-1.697,-1.6864,-1.6474,-1.6083,-1.6083,-1.6083,-1.6083,-1.6083,-1.6083,-1.6083,-1.6083,-1.6083,-1.6083,-1.6083,-1.6083,-1.6083,-1.6083,-1.6083,-1.6083,-1.6083,-1.6083,-1.6083,-1.6083,-1.6083,-1.6083,-1.6083,-1.6083,-1.6083,-1.6083,-1.6083,-1.6083,-1.6083,-1.6083,-1.6083,-1.6083,-1.6083,-1.6083,0.0,0.0,-1.7112,-1.7112,0.0,0.0,0.0,0.0,0.0,0.0,0.0,0.0,0.0,0.0,0.0,0.0,0.0,0.0,0.0,-1.7071,-1.7112,-1.7112,-1.7112,-1.7112,-1.7112,-1.7112,-1.7112,-1.7112,-1.7112,-1.7112,-1.7112,-1.7112,-1.7112,-1.7112,-1.7112,-1.7112,-1.7112,-1.7112,-1.7112,-1.7112,-1.7112,-1.7112,-1.7112,-1.7112,-1.7112,-1.712,-1.7242,-1.7421,-1.7648,-1.777,-1.7965,-1.8176,-1.8176,-1.8176,-1.8176,-1.8176,-1.8176,-1.8176,-1.8176,-1.8176,-1.8176,-1.8176,-1.8217,-1.8322,-1.8631,-1.8769,-1.8778,-1.8576,-1.8457,-1.8358,-1.787,-1.7672,-1.7672,-1.7672,-1.7268,-1.6864,-1.6864,-1.6474,-1.6083,-1.6083,-1.6083,-1.6083,-1.6083,-1.6083,-1.6083,-1.6083,-1.6083,-1.6083,-1.6083,-1.6083,-1.6083,-1.6083,-1.6083,-1.6083,-1.6083,-1.6083,-1.6083,-1.6083,-1.6083,-1.6083,-1.6083,-1.6083,-1.6083,-1.6083,-1.6083,-1.6083,-1.6083,-1.6083,-1.6083,-1.6083,-1.6083,-1.6083,-1.806,-1.763,0.0,-1.7112,-1.7112,0.0,-1.7112,0.0,-1.7112,0.0,0.0,0.0,0.0,0.0,0.0,0.0,0.0,0.0,0.0,-1.7112,-1.7112,-1.7112,-1.7112,-1.7112,-1.7112,-1.7112,-1.7112,-1.7112,-1.7112,-1.7112,-1.7112,-1.7112,-1.7112,-1.7112,-1.7112,-1.7112,-1.7112,-1.7112,-1.7112,-1.7112,-1.7112,-1.7112,-1.7112,-1.7112,-1.7112,-1.712,-1.7307,-1.7486,-1.7656,-1.7843,-1.8022,-1.8176,-1.8176,-1.8176,-1.8176,-1.8176,-1.8176,-1.8176,-1.8176,-1.8176,-1.8176,-1.8176,-1.8176,-1.8233,-1.8533,-1.8671,-1.8576,-1.8118,-1.8167,-1.8046,-1.7301,-1.7133,-1.7176,-1.7176,-1.6871,-1.6573,-1.6573,-1.6374,-1.6083,-1.6083,-1.6083,-1.6083,-1.6083,-1.6083,-1.6083,-1.6083,-1.6083,-1.6083,-1.6083,-1.6083,-1.6083,-1.6083,-1.6083,-1.6083,-1.6083,-1.6083,-1.6083,-1.6083,-1.6083,-1.6083,-1.6083,-1.6083,-1.611,-1.6164,-1.611,-1.611,-1.6164,-1.611,-1.6083,-1.6083,-1.6083,-1.6083]},{"header":{"parameterUnit":"m.s-1","parameterCategory":1,"la1":30.6,"la2":29.2853,"lo1":-89.7004,"lo2":-87.6739,"dy":0.0162,"dx":0.0183,"nx":112,"ny":82,"refTime":"2023-10-22T06:00:00:Z","depth":0,"parameterNumber":3,"parameterNumberName":"V-component_of_WINDS"},"data":[0.0,0.0,0.0,0.0,0.0,0.0,0.0,0.0,0.0,0.0,0.0,0.0,0.0,0.0,0.0,0.0,0.0,0.0,0.0,0.0,0.0,0.0,0.0,0.0,0.0,0.0,0.0,0.0,0.0,0.0,0.0,0.0,0.0,0.0,0.0,0.0,0.0,0.0,0.0,0.0,0.0,0.0,0.0,0.0,0.0,0.0,0.0,0.0,0.0,0.0,0.0,0.0,0.0,0.0,0.0,0.0,0.0,0.0,0.0,0.0,0.0,0.0,0.0,0.0,0.0,0.0,0.0,0.0,0.0,0.0,0.0,0.0,0.0,0.0,0.0,0.0,0.0,0.0,0.0,0.0,0.0,0.0,0.0,0.0,0.0,0.0,0.0,0.0,0.0,0.0,5.2485,5.2485,5.3076,5.3518,5.3518,5.3518,5.3518,5.3518,0.0,0.0,0.0,0.0,0.0,0.0,0.0,0.0,0.0,0.0,0.0,0.0,0.0,0.0,0.0,0.0,0.0,0.0,0.0,0.0,0.0,0.0,0.0,0.0,0.0,0.0,0.0,0.0,0.0,0.0,0.0,0.0,0.0,0.0,0.0,0.0,0.0,0.0,0.0,0.0,0.0,0.0,0.0,0.0,0.0,0.0,0.0,0.0,0.0,0.0,0.0,0.0,0.0,0.0,0.0,0.0,0.0,0.0,0.0,0.0,0.0,0.0,0.0,0.0,0.0,0.0,0.0,0.0,0.0,0.0,0.0,0.0,0.0,0.0,0.0,0.0,0.0,0.0,0.0,0.0,0.0,0.0,0.0,0.0,0.0,0.0,0.0,0.0,0.0,0.0,0.0,0.0,0.0,0.0,0.0,0.0,0.0,0.0,0.0,0.0,0.0,0.0,0.0,0.0,5.3314,5.3314,5.3416,5.3518,5.3518,5.3518,5.3518,5.3518,0.0,0.0,0.0,0.0,0.0,0.0,0.0,0.0,0.0,0.0,0.0,0.0,0.0,0.0,0.0,0.0,0.0,0.0,0.0,0.0,0.0,0.0,0.0,0.0,0.0,0.0,0.0,0.0,0.0,0.0,0.0,0.0,0.0,0.0,0.0,0.0,0.0,0.0,0.0,0.0,0.0,0.0,0.0,0.0,0.0,0.0,0.0,0.0,0.0,0.0,0.0,0.0,0.0,0.0,0.0,0.0,0.0,0.0,0.0,0.0,0.0,0.0,0.0,0.0,0.0,0.0,0.0,0.0,0.0,0.0,0.0,0.0,0.0,0.0,0.0,0.0,0.0,0.0,0.0,0.0,0.0,0.0,0.0,0.0,0.0,0.0,0.0,0.0,0.0,0.0,0.0,0.0,0.0,0.0,0.0,0.0,0.0,0.0,0.0,0.0,0.0,0.0,0.0,5.328,5.3518,5.3518,5.3518,5.3518,5.3518,5.3518,5.3518,5.3518,5.3518,0.0,0.0,0.0,0.0,0.0,0.0,0.0,0.0,0.0,0.0,0.0,0.0,0.0,0.0,0.0,0.0,0.0,0.0,0.0,0.0,0.0,0.0,0.0,0.0,0.0,0.0,0.0,0.0,0.0,0.0,0.0,0.0,0.0,0.0,0.0,0.0,0.0,0.0,0.0,0.0,0.0,0.0,0.0,0.0,0.0,0.0,0.0,0.0,0.0,0.0,0.0,0.0,0.0,0.0,0.0,0.0,0.0,0.0,0.0,0.0,0.0,0.0,0.0,0.0,0.0,0.0,0.0,0.0,0.0,0.0,0.0,0.0,0.0,0.0,0.0,0.0,0.0,0.0,0.0,0.0,0.0,0.0,0.0,0.0,0.0,0.0,0.0,0.0,0.0,0.0,0.0,0.0,0.0,0.0,0.0,0.0,0.0,0.0,0.0,0.0,0.0,0.0,5.3584,5.3618,5.3618,5.3618,5.3618,5.3618,5.3618,5.3584,5.3551,5.3551,0.0,0.0,0.0,0.0,0.0,0.0,0.0,0.0,0.0,0.0,0.0,0.0,0.0,0.0,0.0,0.0,0.0,0.0,0.0,0.0,0.0,0.0,0.0,0.0,0.0,0.0,0.0,0.0,0.0,0.0,0.0,0.0,0.0,0.0,0.0,0.0,0.0,0.0,0.0,0.0,0.0,0.0,0.0,0.0,0.0,0.0,0.0,0.0,0.0,0.0,0.0,0.0,0.0,0.0,0.0,0.0,0.0,0.0,0.0,0.0,0.0,0.0,0.0,0.0,0.0,0.0,0.0,0.0,0.0,0.0,0.0,0.0,0.0,0.0,0.0,0.0,0.0,0.0,0.0,0.0,0.0,0.0,0.0,0.0,0.0,0.0,0.0,0.0,0.0,0.0,0.0,0.0,0.0,0.0,0.0,0.0,0.0,0.0,0.0,0.0,0.0,0.0,5.3849,5.3948,5.3948,5.3948,5.3948,5.3948,5.3948,5.3882,5.3717,5.3684,0.0,0.0,0.0,0.0,0.0,0.0,0.0,0.0,0.0,0.0,0.0,0.0,0.0,0.0,0.0,0.0,0.0,0.0,0.0,0.0,0.0,0.0,0.0,0.0,0.0,0.0,0.0,0.0,0.0,0.0,0.0,0.0,0.0,0.0,0.0,0.0,0.0,0.0,0.0,0.0,0.0,0.0,0.0,0.0,0.0,0.0,0.0,0.0,0.0,0.0,0.0,0.0,0.0,0.0,0.0,0.0,0.0,0.0,0.0,0.0,0.0,0.0,0.0,0.0,0.0,0.0,0.0,0.0,0.0,0.0,0.0,0.0,0.0,0.0,0.0,0.0,0.0,0.0,0.0,0.0,0.0,0.0,0.0,0.0,0.0,0.0,0.0,0.0,0.0,0.0,0.0,0.0,0.0,0.0,0.0,0.0,0.0,0.0,0.0,0.0,0.0,0.0,5.3948,5.398,5.398,5.398,5.398,5.398,5.398,5.398,5.3882,0.0,0.0,0.0,0.0,0.0,0.0,0.0,0.0,0.0,0.0,0.0,0.0,0.0,0.0,0.0,0.0,0.0,0.0,0.0,0.0,0.0,0.0,0.0,0.0,0.0,0.0,0.0,0.0,0.0,0.0,0.0,0.0,0.0,0.0,0.0,0.0,0.0,0.0,0.0,0.0,0.0,0.0,0.0,0.0,0.0,0.0,0.0,0.0,0.0,0.0,0.0,0.0,0.0,0.0,0.0,0.0,0.0,0.0,0.0,0.0,0.0,0.0,0.0,0.0,0.0,0.0,0.0,0.0,0.0,0.0,0.0,0.0,0.0,0.0,0.0,0.0,0.0,0.0,0.0,0.0,0.0,0.0,0.0,0.0,0.0,0.0,0.0,0.0,0.0,0.0,0.0,0.0,0.0,0.0,0.0,0.0,0.0,0.0,0.0,0.0,0.0,0.0,5.4112,5.4316,5.4417,5.4177,5.4143,5.4239,5.4428,5.446,5.4428,5.4365,0.0,0.0,0.0,0.0,0.0,0.0,0.0,0.0,0.0,0.0,0.0,0.0,0.0,0.0,0.0,0.0,0.0,0.0,0.0,0.0,0.0,0.0,0.0,0.0,0.0,0.0,0.0,0.0,0.0,0.0,0.0,0.0,0.0,0.0,0.0,0.0,0.0,0.0,0.0,0.0,0.0,0.0,0.0,0.0,0.0,0.0,0.0,0.0,0.0,0.0,0.0,0.0,0.0,0.0,0.0,0.0,0.0,0.0,0.0,0.0,0.0,0.0,0.0,0.0,0.0,0.0,0.0,0.0,0.0,0.0,0.0,0.0,0.0,0.0,0.0,0.0,0.0,0.0,0.0,0.0,0.0,0.0,0.0,0.0,0.0,0.0,0.0,0.0,0.0,0.0,0.0,0.0,0.0,0.0,0.0,0.0,0.0,0.0,0.0,0.0,0.0,0.0,5.4342,5.5053,5.5357,5.4598,5.4529,5.4776,5.5408,5.5467,5.5343,0.0,0.0,0.0,0.0,0.0,0.0,0.0,0.0,0.0,0.0,0.0,0.0,0.0,0.0,0.0,0.0,0.0,0.0,0.0,0.0,0.0,0.0,0.0,0.0,0.0,0.0,0.0,0.0,0.0,0.0,0.0,0.0,0.0,0.0,0.0,0.0,0.0,0.0,0.0,0.0,0.0,0.0,0.0,0.0,0.0,0.0,0.0,0.0,0.0,0.0,0.0,0.0,0.0,0.0,0.0,0.0,0.0,0.0,0.0,0.0,0.0,0.0,0.0,0.0,0.0,0.0,0.0,0.0,0.0,0.0,0.0,0.0,0.0,0.0,0.0,0.0,0.0,0.0,0.0,0.0,0.0,0.0,0.0,0.0,0.0,0.0,0.0,0.0,0.0,0.0,0.0,0.0,0.0,0.0,0.0,0.0,0.0,0.0,0.0,0.0,0.0,0.0,0.0,5.6714,5.7314,5.7677,5.7494,5.7458,5.7517,5.7719,5.7719,5.7304,5.6245,0.0,0.0,0.0,0.0,0.0,0.0,0.0,0.0,0.0,0.0,0.0,0.0,0.0,0.0,0.0,0.0,0.0,0.0,0.0,0.0,0.0,0.0,0.0,0.0,0.0,0.0,0.0,0.0,0.0,0.0,0.0,0.0,0.0,0.0,0.0,0.0,0.0,0.0,0.0,0.0,0.0,0.0,0.0,0.0,0.0,0.0,0.0,0.0,0.0,0.0,0.0,0.0,0.0,0.0,0.0,0.0,0.0,0.0,0.0,0.0,0.0,0.0,0.0,0.0,0.0,0.0,0.0,0.0,0.0,0.0,0.0,0.0,0.0,0.0,0.0,0.0,0.0,0.0,0.0,0.0,0.0,0.0,0.0,0.0,0.0,0.0,0.0,0.0,0.0,0.0,0.0,0.0,0.0,0.0,0.0,0.0,0.0,0.0,0.0,0.0,0.0,0.0,5.8142,5.8708,5.9038,5.8716,5.868,5.8801,5.9023,5.905,5.8705,5.784,0.0,0.0,0.0,0.0,0.0,0.0,0.0,0.0,0.0,0.0,0.0,0.0,0.0,0.0,0.0,0.0,0.0,0.0,0.0,0.0,0.0,0.0,0.0,0.0,0.0,0.0,0.0,0.0,0.0,0.0,0.0,0.0,0.0,0.0,0.0,0.0,0.0,0.0,0.0,0.0,0.0,0.0,0.0,0.0,0.0,0.0,0.0,0.0,0.0,0.0,0.0,0.0,0.0,0.0,0.0,0.0,0.0,0.0,0.0,0.0,0.0,0.0,0.0,0.0,0.0,0.0,0.0,0.0,0.0,0.0,0.0,0.0,0.0,0.0,0.0,0.0,0.0,0.0,0.0,0.0,0.0,0.0,0.0,0.0,0.0,0.0,0.0,0.0,0.0,0.0,0.0,0.0,0.0,0.0,0.0,0.0,0.0,0.0,0.0,0.0,0.0,0.0,5.9087,5.9652,5.9824,5.9171,5.9099,5.9293,5.9849,5.9901,5.9838,5.9714,0.0,0.0,0.0,0.0,0.0,0.0,0.0,0.0,0.0,0.0,0.0,0.0,0.0,0.0,0.0,0.0,0.0,0.0,0.0,0.0,0.0,0.0,0.0,0.0,0.0,0.0,0.0,0.0,0.0,0.0,0.0,0.0,0.0,0.0,0.0,0.0,0.0,0.0,0.0,0.0,0.0,0.0,0.0,0.0,0.0,0.0,0.0,0.0,0.0,0.0,0.0,0.0,0.0,0.0,0.0,0.0,0.0,0.0,0.0,0.0,7.0237,7.0164,0.0,0.0,0.0,0.0,0.0,0.0,0.0,0.0,0.0,0.0,0.0,0.0,0.0,0.0,0.0,0.0,0.0,0.0,0.0,0.0,0.0,0.0,0.0,0.0,0.0,0.0,0.0,0.0,0.0,0.0,0.0,0.0,0.0,0.0,0.0,0.0,0.0,0.0,0.0,0.0,6.1226,6.1749,6.2109,6.1927,6.1927,6.1978,6.2116,6.2116,6.1671,6.06,6.0537,0.0,0.0,0.0,0.0,0.0,0.0,0.0,0.0,0.0,0.0,0.0,0.0,0.0,0.0,0.0,0.0,0.0,0.0,0.0,0.0,0.0,0.0,0.0,0.0,0.0,0.0,0.0,0.0,0.0,0.0,0.0,0.0,0.0,0.0,0.0,0.0,0.0,0.0,0.0,0.0,0.0,0.0,0.0,0.0,0.0,0.0,0.0,0.0,0.0,0.0,0.0,0.0,0.0,0.0,0.0,0.0,0.0,0.0,0.0,7.0697,7.0477,0.0,0.0,0.0,0.0,0.0,0.0,0.0,0.0,0.0,0.0,0.0,0.0,0.0,0.0,0.0,0.0,0.0,0.0,0.0,0.0,0.0,0.0,0.0,0.0,0.0,0.0,0.0,0.0,0.0,0.0,0.0,0.0,0.0,0.0,0.0,0.0,0.0,0.0,0.0,0.0,6.298,6.2885,6.278,6.278,6.278,6.278,6.278,6.278,6.2496,6.1802,6.174,0.0,0.0,0.0,0.0,0.0,0.0,0.0,0.0,0.0,0.0,0.0,0.0,0.0,0.0,0.0,0.0,0.0,0.0,0.0,0.0,0.0,0.0,0.0,0.0,0.0,0.0,0.0,0.0,0.0,0.0,0.0,0.0,0.0,0.0,0.0,0.0,0.0,0.0,0.0,0.0,0.0,0.0,0.0,0.0,0.0,0.0,0.0,0.0,0.0,0.0,0.0,0.0,0.0,7.2496,7.2496,7.2496,7.2496,7.2165,7.1468,7.0807,7.0367,7.011,7.011,0.0,0.0,0.0,0.0,0.0,0.0,0.0,0.0,0.0,0.0,0.0,0.0,0.0,0.0,0.0,0.0,0.0,0.0,0.0,0.0,0.0,0.0,0.0,0.0,6.7767,6.74,6.6077,0.0,0.0,0.0,0.0,0.0,0.0,0.0,0.0,0.0,0.0,0.0,6.431,6.3686,6.322,6.322,6.3135,6.3025,6.3025,6.289,6.278,6.278,6.2805,6.2805,0.0,0.0,0.0,0.0,0.0,0.0,0.0,0.0,0.0,0.0,0.0,0.0,0.0,0.0,0.0,0.0,0.0,0.0,0.0,0.0,0.0,0.0,0.0,0.0,0.0,0.0,0.0,0.0,0.0,0.0,0.0,0.0,7.0914,7.1109,0.0,0.0,0.0,0.0,0.0,0.0,0.0,0.0,0.0,0.0,0.0,0.0,0.0,7.2496,7.2496,7.2496,7.2496,7.2496,7.2496,7.2496,7.2496,7.2496,7.2459,7.2349,7.2239,0.0,7.011,7.011,0.0,0.0,0.0,0.0,0.0,0.0,0.0,0.0,0.0,0.0,0.0,0.0,0.0,0.0,0.0,0.0,0.0,0.0,0.0,0.0,0.0,0.0,6.8055,6.8055,6.8055,6.7982,0.0,6.699,6.6329,6.6329,6.5778,0.0,0.0,0.0,0.0,0.0,0.0,0.0,6.5154,6.5044,6.4971,6.4971,6.4347,6.3906,6.3906,6.3246,6.278,6.278,6.2904,6.2929,6.2805,6.3002,0.0,0.0,0.0,0.0,0.0,0.0,0.0,0.0,0.0,0.0,0.0,0.0,0.0,0.0,0.0,0.0,0.0,0.0,0.0,0.0,0.0,0.0,0.0,0.0,0.0,0.0,0.0,0.0,0.0,7.1468,7.1982,7.1982,7.2312,7.2496,0.0,0.0,0.0,0.0,0.0,0.0,0.0,0.0,0.0,7.3327,7.3327,7.3327,7.3327,7.3087,7.2963,7.2963,7.2963,7.2963,7.2963,7.3235,7.3327,7.3327,7.3327,7.2918,7.2285,7.1987,7.1891,7.1907,0.0,0.0,0.0,0.0,7.0459,7.0422,7.0107,6.9981,6.9981,6.9981,0.0,0.0,0.0,0.0,0.0,0.0,0.0,6.837,0.0,0.0,6.8095,6.8095,6.8095,6.8095,6.8095,6.7734,6.7373,0.0,6.7063,6.6754,6.6754,0.0,0.0,0.0,0.0,6.5962,6.5962,6.5595,6.5301,6.5301,6.4971,6.4813,6.4853,6.4522,6.4352,6.4426,6.4033,6.3738,6.369,6.3381,6.3123,0.0,0.0,0.0,0.0,0.0,0.0,0.0,0.0,0.0,0.0,0.0,0.0,0.0,0.0,0.0,0.0,0.0,0.0,0.0,0.0,0.0,0.0,0.0,0.0,0.0,0.0,0.0,0.0,7.2271,7.263,7.2524,7.2742,7.2816,0.0,0.0,0.0,0.0,0.0,0.0,7.3479,7.3821,7.4009,7.4009,7.4009,7.4085,7.431,7.3989,7.3926,7.4138,7.4138,7.4163,7.4213,7.4563,7.4726,7.4726,7.4726,7.4575,7.4342,7.374,7.3466,7.3442,7.3194,7.3094,7.3026,7.2272,7.2036,7.1982,7.1862,7.179,7.179,7.179,7.179,7.179,7.179,0.0,0.0,0.0,0.0,6.9566,6.9588,6.9378,6.9134,6.9134,6.9134,6.9134,6.9134,6.8961,6.8654,0.0,6.7993,6.7978,6.7978,0.0,0.0,0.0,6.7279,6.6912,6.6912,6.6397,6.6029,6.6029,6.5845,6.575,6.5851,6.5667,6.5607,6.5706,6.5103,6.477,6.4746,6.4203,6.3931,6.3859,0.0,0.0,0.0,0.0,0.0,0.0,0.0,0.0,0.0,0.0,0.0,0.0,0.0,0.0,0.0,0.0,0.0,0.0,0.0,0.0,0.0,0.0,0.0,0.0,0.0,0.0,0.0,0.0,0.0,7.2553,7.3327,0.0,0.0,0.0,0.0,7.4003,7.3995,7.3995,7.4049,7.4018,7.4009,7.4009,7.4009,7.4385,7.5235,7.5211,7.5596,7.6436,7.6436,7.6482,7.6617,7.6639,7.6639,7.6639,7.6639,7.6186,7.535,7.4365,7.3986,7.3949,7.3972,7.3966,7.3944,7.316,7.2886,7.2843,7.2071,7.179,7.179,7.179,7.179,7.179,7.179,7.179,0.0,0.0,7.1875,7.1857,7.1994,7.1994,7.1975,7.1975,7.1975,7.1975,7.1975,7.1289,7.0164,0.0,6.807,6.807,6.807,0.0,6.807,6.807,6.807,6.8033,6.8033,6.7996,6.7959,6.7959,6.7294,6.6814,6.6814,6.6149,6.5706,6.5706,6.5791,6.5779,6.5657,6.5838,6.5838,6.5558,6.606,0.0,0.0,0.0,0.0,0.0,0.0,0.0,0.0,0.0,0.0,0.0,0.0,0.0,0.0,0.0,0.0,0.0,0.0,0.0,0.0,0.0,0.0,0.0,0.0,0.0,0.0,0.0,0.0,7.3479,7.3798,0.0,7.3832,7.3972,7.4094,7.4228,7.4502,7.4895,7.5466,7.578,7.6198,7.6732,7.677,7.6922,7.7227,7.6896,7.6848,7.7155,7.7155,7.7176,7.7275,7.7608,7.776,7.776,7.776,7.7569,7.7264,7.6922,7.5931,7.4667,7.4981,7.5112,7.5111,7.4916,7.4837,7.4834,7.4614,7.4516,7.4516,7.4516,7.4516,7.4516,7.4516,7.4095,7.3674,7.3707,7.3174,7.2579,7.2653,7.2433,7.2205,7.2205,7.2205,7.2205,7.2205,7.1958,7.1517,7.0863,6.9604,6.8595,6.8595,6.8383,6.8208,6.8095,6.8095,6.8095,6.8095,6.8095,6.8095,6.8095,6.7837,6.7714,6.779,6.7531,6.7542,6.7867,6.7472,6.7267,6.7484,6.7078,6.6834,6.6715,6.6916,6.6843,0.0,0.0,0.0,0.0,0.0,0.0,0.0,0.0,0.0,0.0,0.0,0.0,0.0,0.0,0.0,0.0,0.0,0.0,0.0,0.0,0.0,0.0,0.0,0.0,0.0,7.3963,7.4154,7.4033,7.4347,7.4519,7.4396,7.4527,7.4783,7.5207,7.5513,7.6079,7.6973,7.728,7.7686,7.8262,7.83,7.8415,7.8683,7.8344,7.835,7.8635,7.8635,7.8654,7.8746,7.9088,7.9242,7.9242,7.9242,7.9089,7.8804,7.8804,7.7752,7.6223,7.647,7.6591,7.6623,7.6724,7.6602,7.6325,7.6077,7.6015,7.6015,7.6015,7.6015,7.6015,7.6015,7.5592,7.513,7.513,7.4559,7.3942,7.3942,7.3739,7.3489,7.3489,7.3489,7.3489,7.3489,7.326,7.3052,7.3052,7.1387,7.003,7.003,6.9806,6.9547,6.9322,6.9405,6.9415,6.9298,6.9405,6.9486,6.9486,6.9486,6.951,6.9617,6.9617,6.9761,7.0114,6.9645,6.9486,6.9759,6.8981,6.8564,6.8564,6.8122,6.7926,6.7888,0.0,0.0,0.0,0.0,0.0,0.0,0.0,0.0,0.0,0.0,0.0,0.0,0.0,0.0,0.0,0.0,0.0,0.0,0.0,0.0,0.0,0.0,0.0,7.4101,7.4417,7.4582,7.4087,7.498,7.5424,7.4999,7.5442,7.6124,7.7085,7.7099,7.7483,7.8391,7.8404,7.8355,7.8393,7.8393,7.8777,7.9544,7.9544,7.9999,8.0888,8.0888,8.0975,8.1093,8.1093,8.1093,8.1093,8.1093,8.0631,7.9862,7.9862,7.9323,7.8538,7.8382,7.8366,7.8407,7.8407,7.7954,7.7207,7.6361,7.6092,7.6092,7.6092,7.6092,7.6092,7.6092,7.6092,7.6092,7.6092,7.6092,7.6092,7.6092,7.6092,7.6092,7.6092,7.6092,7.6092,7.6092,7.5399,7.4822,7.4822,7.3514,7.2357,7.2224,7.2224,7.2066,7.1702,7.1944,0.0,7.168,7.1944,7.2205,7.2205,7.2205,7.2205,7.2205,7.2205,7.2224,7.2224,7.2224,7.2243,7.2243,7.1485,7.1086,7.1086,6.987,6.9212,6.919,0.0,0.0,0.0,0.0,0.0,0.0,0.0,0.0,0.0,0.0,0.0,0.0,0.0,0.0,0.0,0.0,0.0,0.0,0.0,0.0,0.0,7.4523,7.4664,7.454,7.4942,7.5263,7.517,7.5424,7.5846,7.6454,7.6629,7.7085,7.8062,7.8085,7.8469,7.9369,7.9377,7.9684,8.0299,8.0338,8.0453,8.0645,8.0645,8.0799,8.1061,8.1061,8.1077,8.1093,8.1093,8.1093,8.1093,8.1093,8.0977,8.0746,8.0746,8.0592,8.0246,7.8931,7.8469,7.8485,7.8485,7.8346,7.813,7.79,7.7823,7.7823,7.7823,7.7823,7.7823,7.7823,7.7823,7.7823,7.7823,7.7823,7.7823,7.7823,7.7823,7.7823,7.7823,7.7823,7.7823,7.7823,7.763,7.7438,7.7438,7.7085,7.5879,7.3178,7.2433,7.2166,7.2046,7.2126,0.0,7.2046,7.2146,7.2205,7.2205,7.2205,7.2205,7.2205,7.2205,7.2339,7.2688,7.2706,7.2847,7.3131,7.2916,7.2801,7.2801,7.2456,7.1858,0.0,0.0,0.0,0.0,0.0,0.0,0.0,0.0,0.0,0.0,0.0,0.0,0.0,0.0,0.0,0.0,0.0,0.0,0.0,0.0,0.0,0.0,7.4922,7.5038,7.5132,7.5371,7.5719,7.6147,7.6219,7.6591,7.7531,7.7654,7.8047,7.8977,7.9054,7.9438,8.0285,8.0323,8.0592,8.1093,8.1093,8.1093,8.1093,8.1093,8.1093,8.1093,8.1093,8.1093,8.1093,8.1093,8.1093,8.1093,8.1093,8.1093,8.1093,8.1093,8.1093,0.0,0.0,0.0,0.0,0.0,7.9054,7.8977,7.8631,7.8477,7.8477,7.8477,7.8477,7.8477,7.8477,7.8477,7.8477,7.8477,7.8477,7.8477,7.8477,7.8477,7.8477,7.8477,7.8477,7.8477,7.8477,7.8477,7.8477,7.8477,7.8477,0.0,7.5632,7.5013,7.4783,7.4619,7.4747,7.4783,7.4619,7.4747,7.4854,7.4854,7.4854,7.4684,7.4379,7.434,0.0,0.0,0.0,7.4129,7.4,7.4014,0.0,0.0,0.0,7.3159,7.2387,7.2621,0.0,0.0,6.9337,6.8977,0.0,0.0,0.0,0.0,0.0,0.0,0.0,0.0,0.0,0.0,0.0,0.0,0.0,0.0,0.0,0.0,7.5358,7.5702,7.583,7.5896,7.6202,7.6936,7.7153,7.7585,7.8484,7.86,7.9015,7.99,7.9939,8.0285,8.1054,8.1093,0.0,0.0,0.0,8.1093,8.1093,8.1093,8.1093,8.1093,8.1093,8.1093,8.1093,8.1093,8.1093,8.1093,8.1093,8.1093,8.1093,8.1093,8.1093,8.1093,8.1093,8.1093,8.1016,8.0246,7.9939,7.9862,7.9054,0.0,0.0,7.8784,7.8784,7.8784,7.8784,7.8784,7.8784,7.8784,7.8784,7.8784,7.8784,7.8784,7.8784,7.8784,7.8784,7.8784,7.8784,7.8784,7.8784,7.8784,7.8784,7.8784,7.8784,7.8631,7.8384,7.8032,7.825,7.8384,7.8032,7.8267,7.8477,7.8477,0.0,0.0,7.7476,7.7438,7.7092,7.6322,7.6284,7.5899,7.5014,7.4976,7.463,7.3822,7.3783,7.3745,7.363,7.363,7.3591,7.3476,7.1898,7.1206,0.0,0.0,0.0,0.0,0.0,0.0,0.0,0.0,0.0,0.0,0.0,0.0,0.0,0.0,0.0,7.53,7.6071,7.665,7.6728,7.739,7.7668,7.7131,7.77,7.85,7.9446,7.9538,7.99,8.0785,8.0862,8.0939,8.1093,8.1093,8.1093,8.1093,8.1093,8.1093,8.1093,8.1093,8.1093,8.1093,8.1093,0.0,8.1093,8.1093,8.1093,8.1093,8.1093,8.1093,8.1093,8.1093,8.1093,8.1093,8.1093,8.1093,8.1093,8.09,8.0862,8.0823,8.0669,8.0592,8.0592,8.0592,8.0592,8.0592,8.0592,8.0592,0.0,8.0592,8.0592,8.0592,8.0592,8.0592,8.0592,8.0592,8.0592,8.0592,8.0592,8.0592,8.0592,8.0592,8.0592,8.0592,8.0592,7.9438,7.8462,7.84,7.8446,7.8462,7.84,7.8446,7.8477,7.8477,7.8477,7.8438,7.8284,7.8246,7.8207,7.8015,7.8015,7.763,7.6823,7.6784,7.6399,7.5515,7.5515,7.5168,7.4476,7.4476,7.413,7.35,7.3168,7.3014,0.0,0.0,0.0,0.0,0.0,0.0,0.0,0.0,0.0,0.0,0.0,7.4417,7.4664,0.0,7.5341,7.6071,7.6526,7.7016,7.762,7.8404,7.882,7.8477,7.8838,7.9469,8.0362,8.0439,8.0631,8.1054,8.1093,8.1093,8.1093,8.1093,8.1093,8.1093,8.1093,8.1093,8.1093,8.1093,8.1093,8.1093,8.1093,8.1093,8.1093,8.1093,8.1093,8.1093,8.1093,8.1093,8.1093,8.1093,8.1093,8.1093,8.1093,8.1093,8.1093,8.1093,8.1093,8.1093,8.1093,8.1093,8.1093,8.1093,8.1093,8.1093,8.1093,8.1093,8.1093,8.1093,8.1093,8.1093,8.1093,8.1093,8.1093,8.1093,8.1093,8.1093,8.1093,8.1093,8.1093,8.1093,8.1093,8.1093,8.1093,8.0362,7.9785,7.9785,7.9785,7.9785,7.9785,7.9785,7.9785,7.9785,7.9785,7.9631,7.9208,7.8746,7.8477,7.8477,7.8477,7.8323,7.79,7.79,7.7707,7.7246,7.6861,7.6438,7.6015,7.5553,7.513,7.4745,7.4745,7.4322,0.0,0.0,0.0,0.0,0.0,0.0,0.0,7.5185,7.502,7.4394,7.4602,7.4921,7.5073,7.5455,7.6032,7.6999,7.7194,7.7552,7.8513,7.9303,7.9873,8.0038,8.0054,8.0323,8.1016,8.1093,8.1093,8.1093,8.1093,8.1093,8.1093,8.1093,8.1093,8.1093,8.1093,8.1093,8.1093,8.1093,8.1093,8.1093,8.1093,8.1093,8.1093,8.1093,8.1093,8.1093,8.1093,8.1093,8.1093,8.1093,8.1093,8.1093,8.1093,8.1093,8.1093,8.1093,8.1093,8.1093,8.1093,8.1093,8.1093,8.1093,8.1093,8.1093,8.1093,8.1093,8.1093,8.1093,8.1093,8.1093,8.1093,8.1093,8.1093,8.1093,8.1093,8.1093,8.1093,8.1093,8.1093,8.1093,8.1093,8.1093,8.1093,8.1093,8.1093,8.1093,8.1093,8.1093,8.1093,8.1093,8.1093,8.1093,8.1093,8.0823,8.0131,7.94,7.9015,7.9015,7.9015,7.8938,7.8746,7.8746,7.8669,7.8477,7.7861,7.7515,7.7515,7.6823,7.6476,7.6476,7.6476,7.5592,7.6576,7.622,7.5382,7.551,7.4861,7.4237,0.0,7.4757,7.4859,7.5226,7.5374,7.5639,7.6364,7.6535,7.6873,7.7802,7.8654,7.9275,7.9544,8.0338,8.0923,8.0939,8.0939,8.0977,8.1093,8.1093,8.1093,8.1093,8.1093,8.1093,8.1093,8.1093,8.1093,8.1093,8.1093,8.1093,8.1093,8.1093,8.1093,8.1093,8.1093,8.1093,8.1093,8.1093,8.1093,8.1093,8.1093,8.1093,8.1093,8.1093,8.1093,8.1093,8.1093,8.1093,8.1093,8.1093,8.1093,8.1093,8.1093,8.1093,8.1093,8.1093,8.1093,8.1093,8.1093,8.1093,8.1093,8.1093,8.1093,8.1093,8.1093,8.1093,8.1093,8.1093,8.1093,8.1093,8.1093,8.1093,8.1093,8.1093,8.1093,8.1093,8.1093,8.1093,8.1093,8.1093,8.1093,8.1093,8.1093,8.1093,8.1093,8.1093,8.1093,8.1054,8.0977,8.0862,8.0823,8.0823,8.0823,8.0477,7.9708,7.9669,7.9285,7.853,7.84,7.8361,7.8361,7.8246,7.8207,7.8207,7.8207,7.7323,7.5539,7.5888,7.6082,7.5911,7.5723,7.5624,7.5837,7.5875,7.5798,7.5559,7.5844,7.6303,7.6647,7.7159,7.7806,7.87,7.9208,7.9714,8.0312,8.0728,8.0991,8.1093,8.1093,8.1093,8.1093,8.1093,8.1093,8.1093,8.1093,8.1093,8.1093,8.1093,8.1093,8.1093,8.1093,8.1093,8.1093,8.1093,8.1093,8.1093,8.1093,8.1093,8.1093,8.1093,8.1093,8.1093,8.1093,8.1093,8.1093,8.1093,8.1093,8.1093,8.1093,8.1093,8.1093,8.1093,8.1093,8.1093,8.1093,8.1093,8.1093,8.1093,8.1093,8.1093,8.1093,8.1093,8.1093,8.1093,8.1093,8.1093,8.1093,8.1093,8.1093,8.1093,8.1093,8.1093,8.1093,8.1093,8.1093,8.1093,8.1093,8.1093,8.1093,8.1093,8.1093,8.1093,8.1093,8.1093,8.1093,8.1093,8.1093,8.1093,8.1093,8.1093,8.1093,8.1093,8.1093,8.1093,8.1093,8.0939,8.0554,8.0554,8.04,8.0015,7.9515,7.9246,7.9246,7.8746,7.8477,7.8477,7.8477,7.813,7.5254,7.5769,7.6334,7.6019,7.6161,7.6379,7.6379,7.6379,7.6265,7.5921,7.6303,7.6838,7.7335,7.7997,7.8756,7.9616,7.9855,8.0131,8.0827,8.0959,8.0991,8.1093,8.1093,8.1093,8.1093,8.1093,8.1093,8.1093,8.1093,8.1093,8.1093,8.1093,8.1093,8.1093,8.1093,8.1093,8.1093,8.1093,8.1093,8.1093,8.1093,8.1093,8.1093,8.1093,8.1093,8.1093,8.1093,8.1093,8.1093,8.1093,8.1093,8.1093,8.1093,8.1093,8.1093,8.1093,8.1093,8.1093,8.1093,8.1093,8.1093,8.1093,8.1093,8.1093,8.1093,8.1093,8.1093,8.1093,8.1093,8.1093,8.1093,8.1093,8.1093,8.1093,8.1093,8.1093,8.1093,8.1093,8.1093,8.1093,8.1093,8.1093,8.1093,8.1093,8.1093,8.1093,8.1093,8.1093,8.1093,8.1093,8.1093,8.1093,8.1093,8.1093,8.1093,8.1093,8.1093,8.1093,8.1093,8.1093,8.1093,8.1093,8.1093,8.1093,8.0477,8.0169,8.0169,7.9515,7.9208,7.9208,7.9208,7.9092,7.6894,7.664,7.6334,7.5998,7.5723,7.5556,7.5556,7.5556,7.573,7.6494,7.6685,7.722,7.8919,7.9297,7.9654,8.0622,8.0822,8.092,8.1077,8.1093,8.1093,8.1093,8.1093,8.1093,8.1093,8.1093,8.1093,8.1093,8.1093,8.1093,8.1093,8.1093,8.1093,8.1093,8.1093,8.1093,8.1093,8.1093,8.1093,8.1093,8.1093,8.1093,8.1093,8.1093,8.1093,8.1093,8.1093,8.1093,8.1093,8.1093,8.1093,8.1093,8.1093,8.1093,8.1093,8.1093,8.1093,8.1093,8.1093,8.1093,8.1093,8.1093,8.1093,8.1093,8.1093,8.1093,8.1093,8.1093,8.1093,8.1093,8.1093,8.1093,8.1093,8.1093,8.1093,8.1093,8.1093,8.1093,8.1093,8.1093,8.1093,8.1093,8.1093,8.1093,8.1093,8.1093,8.1093,8.1093,8.1093,8.1093,8.1093,8.1093,8.1093,8.1093,8.1093,8.1093,8.1093,8.1093,8.1093,8.1093,8.1093,8.1093,8.1093,8.1093,8.1054,8.1054,8.1054,8.1016,8.1016,8.1016,8.1016,8.0554,7.6677,7.6334,7.5977,7.5723,7.5565,7.5633,7.615,7.6303,7.6532,7.7373,7.8022,7.8596,7.9187,7.9795,8.0343,8.0737,8.086,8.0943,8.0959,8.1061,8.1077,8.0975,8.1061,8.1093,8.1093,8.1093,8.1093,8.1093,8.1093,8.1093,8.1093,8.1093,8.1093,8.1093,8.1093,8.1093,8.1093,8.1093,8.1093,8.1093,8.1093,8.1093,8.1093,8.1093,8.1093,8.1093,8.1093,8.1093,8.1093,8.1093,8.1093,8.1093,8.1093,8.1093,8.1093,8.1093,8.1093,8.1093,8.1093,8.1093,8.1093,8.1093,8.1093,8.1093,8.1093,8.1093,8.1093,8.1093,8.1093,8.1093,8.1093,8.1093,8.1093,8.1093,8.1093,8.1093,8.1093,8.1093,8.1093,8.1093,8.1093,8.1093,8.1093,8.1093,8.1285,8.1823,8.1439,8.1093,8.1093,8.1093,8.1093,8.1093,8.1093,8.1093,8.1093,8.1093,8.1093,8.1093,8.1093,8.1093,8.1093,8.1093,8.1093,8.1093,8.1093,8.1093,8.1093,8.1093,8.1093,8.1093,8.1093,8.0939,7.6296,7.6057,7.5848,7.5565,7.5518,7.5692,7.6532,7.6685,7.7029,7.8213,7.8901,7.9378,7.9684,8.0216,8.0632,8.0702,8.0788,8.0877,8.0877,8.0926,8.0943,8.0893,8.0959,8.1045,8.1045,8.1077,8.1093,8.1093,8.1093,8.1093,8.1093,8.1093,8.1093,8.1093,8.1093,8.1093,8.1093,8.1093,8.1093,8.1093,8.1093,8.1093,8.1093,8.1093,8.1093,8.1093,8.1093,8.1093,8.1093,8.1093,8.1093,8.1131,8.14,8.1516,8.1554,8.1862,8.1977,8.19,8.1323,8.1093,8.1093,8.1093,8.1093,8.1093,8.1093,8.1093,8.1093,8.1093,8.1093,8.1093,8.1093,8.1093,8.1093,8.1093,8.1093,8.1093,8.1093,8.1323,8.1516,8.1516,8.1785,8.1977,8.1977,8.1977,8.217,8.267,8.2324,8.1977,8.1977,8.1977,8.1977,8.1977,8.1977,8.1977,8.1977,8.1977,8.1862,8.1554,8.1516,8.14,8.1093,8.1093,8.1093,8.1093,8.1093,8.1093,8.1093,8.1093,8.1093,8.1093,8.1093,8.1093,7.5977,7.5897,7.583,7.5565,7.5518,7.5692,7.6532,7.6685,7.7182,7.8958,7.9302,7.9569,8.0353,8.0542,8.0614,8.0614,8.0723,8.0792,8.0792,8.0792,8.0792,8.0792,8.086,8.0888,8.0888,8.1045,8.1093,8.1093,8.1093,8.1093,8.1093,8.1093,8.1093,8.1093,8.1093,8.1093,8.1093,8.1093,8.1093,8.1093,8.1093,8.1093,8.1093,8.1131,8.117,8.117,8.1208,8.1246,8.1246,8.1246,8.1246,8.1285,8.2054,8.2362,8.2477,8.3285,8.3593,8.3362,8.1785,8.1246,8.1246,8.1246,8.1246,8.1246,8.1246,8.1246,8.1246,8.1246,8.1246,8.1246,8.1246,8.1246,8.1246,8.1246,8.1246,8.1246,8.1246,8.1823,8.2362,8.2362,8.3016,8.3593,8.3593,8.3593,8.3593,8.367,8.367,8.3632,8.3593,8.3593,8.3593,8.3593,8.3593,8.3593,8.3593,8.3593,8.3247,8.2401,8.2362,8.2016,8.1246,8.1208,8.117,8.117,8.1131,8.1093,8.1093,8.1093,8.1093,8.1093,8.1093,8.1093,7.591,7.574,7.5605,7.5521,7.5518,7.5692,7.6532,7.6685,7.7182,7.8958,7.9302,7.9569,8.0353,8.0525,8.0523,8.0596,8.0632,8.065,8.065,8.0758,8.0775,8.0667,8.0737,8.086,8.0888,8.0943,8.0991,8.1093,8.1093,8.1093,8.1093,8.1093,8.1093,8.1093,8.1093,8.1093,8.1093,8.1093,8.1093,8.1093,8.1093,8.1093,8.1131,8.1708,8.1977,8.2016,8.267,8.2939,8.2939,8.2939,8.2939,8.2978,8.317,8.3247,8.3285,8.3516,8.3593,8.3516,8.3093,8.2939,8.2939,8.2939,8.2939,8.2939,8.2939,8.2939,8.2939,8.2939,8.2939,8.2939,8.2939,8.2939,8.2939,8.2939,8.2939,8.2939,8.2939,8.3131,8.3247,8.3247,8.3439,8.3593,8.3593,8.3593,8.3824,8.4478,8.4555,8.4324,8.367,8.3593,8.3593,8.3593,8.3593,8.3593,8.3593,8.3593,8.3516,8.3285,8.3247,8.317,8.2978,8.2324,8.1977,8.1977,8.14,8.1093,8.1093,8.1093,8.1093,8.1093,8.1093,8.1093,7.5722,7.5606,7.5518,7.5518,7.5518,7.5692,7.6532,7.6685,7.7105,7.8443,7.9016,7.9454,7.9895,8.0238,8.0525,8.0542,8.056,8.056,8.056,8.0634,8.0652,8.056,8.0632,8.0737,8.086,8.0871,8.0959,8.1093,8.1093,8.1093,8.1093,8.1093,8.1093,8.1093,8.1093,8.1093,8.1093,8.1093,8.1285,8.1631,8.1631,8.1823,8.2208,8.267,8.2862,8.2901,8.3401,8.3593,8.3593,8.3593,8.3593,8.3632,8.4016,8.417,8.4209,8.4555,8.4709,8.4709,8.4709,8.4709,8.4593,8.3824,8.3593,8.3593,8.3593,8.3593,8.3593,8.3593,8.3593,8.3593,8.3593,8.3593,8.3593,8.3593,8.3593,8.3593,8.3593,8.3901,8.4286,8.4632,8.4709,8.4709,8.4709,8.4709,8.4863,8.5363,8.544,8.5247,8.4747,8.4709,8.4709,8.4709,8.4709,8.4709,8.4709,8.4709,8.4555,8.417,8.417,8.3978,8.3593,8.3131,8.2862,8.2862,8.2054,8.1631,8.1631,8.1285,8.1093,8.1093,8.1093,8.1093,7.5518,7.5518,7.5518,7.5518,7.5518,7.5653,7.6379,7.6532,7.68,7.764,7.8519,7.9187,7.9302,7.9971,8.0506,8.0506,8.0506,8.0506,8.0506,8.0506,8.0506,8.0525,8.056,8.065,8.0809,8.0877,8.0959,8.1093,8.1093,8.1093,8.1093,8.1093,8.1093,8.1093,8.1093,8.1093,8.1093,8.1208,8.1593,8.2285,8.2401,8.2862,8.3593,8.3708,8.3747,8.3785,8.3901,8.3939,8.3939,8.3939,8.3939,8.4016,8.4747,8.5055,8.5132,8.5863,8.6094,8.6094,8.6094,8.6094,8.5863,8.4401,8.3939,8.3939,8.3939,8.3939,8.3939,8.3939,8.3939,8.3939,8.3939,8.3939,8.3939,8.3939,8.3939,8.3939,8.3939,8.4516,8.5286,8.5978,8.6094,8.6094,8.6094,8.6094,8.6094,8.6094,8.6094,8.6094,8.6094,8.6094,8.6094,8.6094,8.6094,8.6094,8.6094,8.6094,8.5786,8.5093,8.5055,8.4709,8.3939,8.3824,8.3747,8.3747,8.2901,8.2477,8.2477,8.1785,8.1362,8.1246,8.1246,8.1208,7.5518,7.5518,7.5518,7.5518,7.5518,7.5556,7.5671,7.5692,7.5921,7.6761,7.7602,7.8443,7.9187,7.9971,8.0506,8.0506,8.0506,8.0506,8.0506,8.0506,8.0543,8.0578,8.0596,8.0685,8.0855,8.0871,8.0959,8.1093,8.1093,8.1093,8.1093,8.1093,8.1093,8.1093,8.1093,8.1093,8.1093,8.1747,8.217,8.2324,8.3016,8.3439,8.3632,8.4362,8.467,8.4709,8.5401,8.567,8.567,8.567,8.567,8.567,8.5824,8.5901,8.5901,8.6055,8.6094,8.6094,8.6094,8.6094,8.6055,8.5747,8.567,8.567,8.567,8.567,8.567,8.567,8.567,8.567,8.567,8.567,8.567,8.567,8.567,8.567,8.567,8.5786,8.594,8.6055,8.6094,8.6094,8.6094,8.6094,8.6094,8.6094,8.6094,8.6094,8.6094,8.6094,8.6094,8.6094,8.6094,8.6094,8.6094,8.6094,8.6055,8.5901,8.5901,8.5824,8.567,8.5016,8.467,8.467,8.3824,8.3362,8.3362,8.3208,8.2785,8.2093,8.2093,8.1747,7.5518,7.5518,7.5518,7.5518,7.5518,7.5518,7.5518,7.5518,7.5615,7.5997,7.6723,7.7602,7.8443,7.9321,8.0009,8.043,8.0506,8.0506,8.0506,8.0506,8.0525,8.0542,8.0578,8.065,8.0737,8.0788,8.0877,8.0948,8.0959,8.1045,8.1093,8.1007,8.0991,8.0991,8.1452,8.1683,8.1683,8.2538,8.3208,8.367,8.4093,8.4516,8.4901,8.5324,8.5517,8.5555,8.594,8.6094,8.6094,8.6094,8.6094,8.6094,8.6094,8.6094,8.6094,8.6094,8.6094,8.6094,8.6094,8.6094,8.6094,8.6094,8.6094,8.6094,8.6094,8.6094,8.6094,8.6094,8.6094,8.6094,8.6094,8.6094,8.6094,8.6094,8.6094,8.6094,8.6094,8.6094,8.6094,8.6094,8.6094,8.6094,8.6094,8.6094,8.6094,8.6094,8.6094,8.6094,8.6094,8.6094,8.6094,8.6094,8.6094,8.6094,8.6094,8.6094,8.6094,8.6094,8.6094,8.6094,8.6094,8.5747,8.5517,8.5517,8.4709,8.4286,8.4286,8.3824,8.3401,8.2978,8.2978,8.2747,7.5518,7.5518,7.5518,7.5518,7.5518,7.5518,7.5518,7.5518,7.5518,7.5518,7.615,7.6953,7.7831,7.871,7.9551,8.0353,8.0506,8.0506,8.0506,8.0506,8.0525,8.0543,8.0578,8.0614,8.065,8.0758,8.0792,8.0792,8.086,8.0943,8.1061,8.1096,8.1124,8.1124,8.1985,8.2463,8.2463,8.3407,8.4209,8.4901,8.5093,8.5478,8.6094,8.6094,8.6094,8.6094,8.6094,8.6094,8.6094,8.6094,8.6094,8.6094,8.6094,8.6094,8.6094,8.6094,8.6094,8.6094,8.6094,8.6094,8.6094,8.6094,8.6094,8.6094,8.6094,8.6094,8.6094,8.6094,8.6094,8.6094,8.6094,8.6094,8.6094,8.6094,8.6094,8.6094,8.6094,8.6094,8.6094,8.6094,8.6094,8.6094,8.6094,8.6094,8.6094,8.6094,8.6094,8.6094,8.6094,8.6094,8.6094,8.6094,8.6094,8.6094,8.6094,8.6094,8.6094,8.6094,8.6094,8.6094,8.6094,8.6094,8.6094,8.6094,8.5478,8.517,8.517,8.4478,8.4055,8.3862,8.3862,8.3785,7.5518,7.5518,7.5518,7.5518,7.5518,7.5518,7.5518,7.5518,7.5518,7.5518,7.615,7.6953,7.7831,7.871,7.9551,8.0353,8.0506,8.0506,8.0506,8.0506,8.0505,8.0596,8.0614,8.065,8.0775,8.0792,8.0792,8.0792,8.0809,8.0843,8.0888,8.1534,8.1904,8.1904,8.2796,8.3308,8.3308,8.4275,8.4824,8.4901,8.5632,8.6017,8.6094,8.6094,8.6094,8.6094,8.6094,8.6094,8.6094,8.6094,8.6094,8.6094,8.6094,8.6094,8.6094,8.6094,8.6094,8.6094,8.6094,8.6094,8.6094,8.6094,8.6094,8.6094,8.6094,8.6094,8.6094,8.6094,8.6094,8.6094,8.6094,8.6094,8.6094,8.6094,8.6094,8.6094,8.6094,8.6094,8.6094,8.6094,8.6094,8.6094,8.6094,8.6094,8.6094,8.6094,8.6094,8.6094,8.6094,8.6094,8.6094,8.6094,8.6094,8.6094,8.6094,8.6094,8.6094,8.6094,8.6094,8.6094,8.6094,8.6094,8.6094,8.6094,8.6017,8.5978,8.5978,8.5901,8.5478,8.4786,8.4786,8.4362,7.5518,7.5518,7.5518,7.5518,7.5518,7.5518,7.5518,7.5518,7.5518,7.5518,7.573,7.6227,7.7067,7.7946,7.8787,7.9627,8.0162,8.0506,8.0506,8.0506,8.0525,8.0523,8.0578,8.0614,8.0634,8.067,8.0667,8.0667,8.0652,8.067,8.072,8.1489,8.1931,8.1931,8.3361,8.4105,8.4105,8.5142,8.5632,8.5632,8.594,8.6094,8.6094,8.6094,8.6094,8.6094,8.6094,8.6094,8.6094,8.6094,8.6094,8.6094,8.6094,8.6094,8.6094,8.6094,8.6094,8.6094,8.6094,8.6094,8.6094,8.6094,8.6094,8.6094,8.6094,8.6094,8.6094,8.6094,8.6094,8.6094,8.6094,8.6094,8.6094,8.6094,8.6094,8.6094,8.6094,8.6094,8.6094,8.6094,8.6094,8.6094,8.6094,8.6094,8.6094,8.6094,8.6094,8.6094,8.6094,8.6094,8.6094,8.6094,8.6094,8.6094,8.6094,8.6094,8.6094,8.6094,8.6094,8.6094,8.6094,8.6094,8.6094,8.6094,8.6094,8.6094,8.6094,8.6094,8.594,8.5632,8.5632,8.544,7.5518,7.5518,7.5518,7.5518,7.5518,7.5518,7.5518,7.5518,7.5518,7.5518,7.5518,7.573,7.6532,7.7411,7.829,7.9187,7.9971,8.0506,8.0506,8.0506,8.0506,8.0506,8.0523,8.0542,8.0506,8.0523,8.0578,8.0578,8.0543,8.0543,8.0578,8.1593,8.2205,8.2205,8.3998,8.4934,8.4934,8.574,8.6094,8.6094,8.6094,8.6094,8.6094,8.6094,8.6094,8.6094,8.6094,8.6094,8.6094,8.6094,8.6094,8.6094,8.6094,8.6094,8.6094,8.6094,8.6094,8.6094,8.6094,8.6094,8.6094,8.6094,8.6094,8.6094,8.6094,8.6094,8.6094,8.6094,8.6094,8.6094,8.6094,8.6094,8.6094,8.6094,8.6094,8.6094,8.6094,8.6094,8.6094,8.6094,8.6094,8.6094,8.6094,8.6094,8.6094,8.6094,8.6094,8.6094,8.6094,8.6094,8.6094,8.6094,8.6094,8.6094,8.6094,8.6094,8.6094,8.6094,8.6094,8.6094,8.6094,8.6094,8.6094,8.6094,8.6094,8.6094,8.6094,8.6094,8.6094,8.6094,8.6094,8.6094,7.5518,7.5518,7.5518,7.5518,7.5518,7.5518,7.5518,7.5518,7.5518,7.5518,7.5518,7.573,7.6532,7.7411,7.829,7.9187,7.9971,8.0506,8.0506,8.0506,8.0506,8.0506,8.0506,8.0506,8.0506,8.0506,8.0506,8.0506,8.0506,8.0506,8.0506,8.2073,8.3009,8.3009,8.4804,8.5777,8.5777,8.5992,8.6094,8.6094,8.6094,8.6094,8.6094,8.6094,8.6094,8.6094,8.6094,8.6094,8.6094,8.6094,8.6094,8.6094,8.6094,8.6094,8.6094,8.6094,8.6094,8.6094,8.6094,8.6094,8.6094,8.6094,8.6094,8.6094,8.6094,8.6094,8.6094,8.6094,8.6094,8.6094,8.6094,8.6094,8.6094,8.6094,8.6094,8.6094,8.6094,8.6094,8.6094,8.6094,8.6094,8.6094,8.6094,8.6094,8.6094,8.6094,8.6094,8.6094,8.6094,8.6094,8.6094,8.6094,8.6094,8.6094,8.6094,8.6094,8.6094,8.6094,8.6094,8.6094,8.6094,8.6094,8.6094,8.6094,8.6094,8.6094,8.6094,8.6094,8.6094,8.6094,8.6094,8.6094,7.5518,7.5518,7.5518,7.5518,7.5518,7.5518,7.5518,7.5518,7.5518,7.5518,7.5518,7.5594,7.5806,7.7029,7.8099,7.8366,7.9589,8.0506,8.0506,8.0506,8.0506,8.0506,8.0506,8.0506,8.0506,8.0506,8.0506,8.0506,8.0506,8.0506,8.0506,8.1576,8.2416,8.299,8.4842,8.5815,8.5815,8.594,8.6026,8.6094,8.5958,8.594,8.6048,8.594,8.594,8.6048,8.6048,8.6082,8.6094,8.6094,8.6094,8.6094,8.6094,8.6094,8.6094,8.6094,8.6094,8.6094,8.6094,8.6094,8.6094,8.6094,8.6094,8.6094,8.6094,8.6094,8.6094,8.6094,8.6517,8.6978,8.6978,8.744,8.7863,8.7863,8.7863,8.7863,8.7863,8.7863,8.7709,8.7094,8.6978,8.6786,8.6209,8.6094,8.6094,8.6094,8.6094,8.6094,8.6094,8.6094,8.6094,8.6094,8.6094,8.6094,8.6094,8.6094,8.6094,8.6094,8.6094,8.6094,8.6094,8.6094,8.6094,8.6094,8.6094,8.6094,8.6094,8.6094,8.6094,8.6094,8.6094,8.6094,7.5518,7.5518,7.5518,7.5518,7.5518,7.5518,7.5518,7.5518,7.5518,7.5518,7.5518,7.5518,7.5518,7.6876,7.8022,7.8022,7.9398,8.0506,8.0506,8.0506,8.0506,8.0506,8.0506,8.0506,8.0506,8.0506,8.0506,8.0506,8.0506,8.0506,8.0506,8.1347,8.2034,8.2531,8.4327,8.5416,8.576,8.5852,8.594,8.5992,8.587,8.5852,8.5905,8.5834,8.587,8.5996,8.5996,8.6048,0.0,8.6094,8.6094,8.6094,8.6094,8.6094,8.6094,8.6094,8.6094,8.6094,8.6094,8.6094,8.6094,8.6094,8.6094,8.6094,8.6094,8.6094,8.617,8.6517,8.6978,8.7478,8.7825,8.8286,8.8709,8.8709,8.8709,8.8709,8.8709,8.8709,8.8517,8.7979,8.7902,8.7709,8.7171,8.6824,8.6594,8.6594,8.6324,8.6094,8.6094,8.6094,8.6247,8.6555,8.6594,8.6709,8.7055,8.6478,8.6094,8.6094,8.6094,8.6094,8.6094,8.6094,8.6094,8.6094,8.6094,8.6094,8.6094,8.6094,8.6094,8.6094,8.6094,8.6094,0.0,7.5518,7.5518,7.5518,7.5518,7.5518,7.5518,7.5518,0.0,7.5518,7.5518,7.5518,7.5518,7.6876,7.8022,7.8022,7.9398,8.0506,8.0506,8.0506,8.0506,8.0506,8.0506,8.0506,8.0506,8.0506,8.0506,8.0506,8.0506,8.0506,8.0506,8.127,8.1729,8.1805,8.3391,8.4633,8.5514,8.5569,8.5606,8.5624,8.5606,8.5644,8.5682,8.5721,8.5813,8.5996,8.5996,8.6048,8.6094,8.6094,8.6094,8.6094,8.6094,8.6094,8.6094,8.6094,8.6094,8.6094,8.6094,8.6094,8.6094,8.6094,8.6094,8.6094,8.6094,8.6094,8.6286,8.7132,8.744,8.7671,8.8556,8.8825,8.8863,8.8863,8.8863,8.8863,8.8863,8.8863,8.8863,8.8786,8.8786,8.8748,8.8709,8.8017,8.7478,8.7478,8.6786,8.6286,8.6286,8.6286,8.6594,8.7401,8.7478,8.7825,8.8632,8.7209,8.6286,8.6286,8.6247,8.6209,8.6209,8.6132,8.6094,8.6094,8.6094,8.6094,8.6094,8.6094,8.6094,8.6094,8.6094,8.6094,7.5518,0.0,7.5518,7.5518,7.5518,7.5518,0.0,7.5518,7.5518,7.5518,7.5518,7.5518,7.5518,7.6876,7.8022,7.8022,7.9398,8.0506,8.0506,8.0506,8.0506,8.0506,8.0506,8.0506,8.0506,8.0506,8.0506,8.0506,8.0506,8.0506,8.0506,8.0697,8.1117,8.1767,8.2206,8.2836,8.3791,8.381,8.3826,8.3898,8.3714,8.4021,8.4747,8.4672,8.5073,8.5852,8.5852,8.594,8.6094,8.6094,8.6094,8.6094,8.6094,8.6094,8.6094,8.6094,8.6094,8.6094,8.6094,8.6094,8.6094,8.6094,8.6094,8.6094,8.6094,8.6094,8.6286,8.7132,8.7863,8.8594,8.9402,9.0094,9.0594,9.0594,9.0594,9.0594,9.0594,9.0594,9.0402,8.9748,8.9633,8.944,8.8786,8.8517,8.8402,8.8402,8.8209,8.8094,8.8094,8.8094,8.8171,8.8363,8.8402,8.8479,8.8671,8.8325,8.8094,8.8094,8.744,8.7094,8.7094,8.644,8.6094,8.6094,8.6094,8.6094,8.6094,8.6094,8.6094,8.6094,8.6094,8.6094,7.5518,7.5518,7.5518,7.5518,7.5518,7.5518,7.5518,7.5518,7.5518,7.5518,7.5518,7.5518,7.5518,7.6876,7.8022,7.8022,7.9398,8.0506,8.0506,8.0506,8.0506,8.0506,8.0506,8.0506,8.0506,8.0506,8.0506,8.0506,8.0506,8.0506,8.0506,8.0506,8.0735,8.1194,8.1194,8.1843,8.3123,8.3123,8.3141,8.3159,8.3047,8.3257,8.3754,8.3716,8.4251,8.524,8.524,8.5577,8.6094,8.6094,8.6094,8.6094,8.6094,8.6094,8.6094,8.6094,8.6094,8.6094,8.6094,8.6094,8.6094,8.6094,8.6094,8.6094,8.6094,8.6094,8.6363,8.7632,8.8325,8.8979,9.0171,9.0864,9.121,9.121,9.121,9.121,9.121,9.121,9.1056,9.0594,9.0517,9.0364,8.9902,8.9517,8.9248,8.9248,8.894,8.8709,8.8709,8.8709,8.8825,8.921,8.9248,8.9402,8.9825,8.9863,8.9517,8.8748,8.8248,8.7979,8.7979,8.7555,8.7094,8.6709,8.6709,8.6517,8.6094,8.6094,8.6094,8.6094,8.6094,8.6094,7.5518,7.5518,7.5518,7.5518,7.5518,7.5518,7.5518,7.5518,7.5518,7.5518,7.5518,7.5518,7.5518,7.6876,7.8022,7.8022,7.9398,8.0506,8.0506,8.0506,8.0506,8.0506,8.0506,8.0506,8.0506,8.0506,8.0506,8.0506,8.0506,8.0506,8.0506,8.0506,8.0506,8.0506,8.0506,8.1194,8.2607,8.2607,8.2607,8.2607,8.2607,8.2684,8.2798,8.2798,8.3409,8.4379,8.455,0.0,8.5923,8.6038,8.6094,8.6094,8.6094,8.6094,8.6094,8.6094,8.6094,8.6094,8.6094,8.6094,8.6094,8.6094,8.6094,8.6094,8.6094,8.6094,8.6478,8.8209,8.8709,8.9094,9.0748,9.121,9.121,9.121,9.121,9.121,9.121,9.121,9.121,9.121,9.121,9.121,9.121,9.0594,9.0094,9.0094,8.9517,8.9094,8.9094,8.9094,8.9325,9.0017,9.0094,9.0402,9.1133,9.121,9.0594,8.9171,8.894,8.8825,8.8709,8.8709,8.8363,8.7594,8.7594,8.7171,8.6286,8.6286,8.6247,8.6094,8.6094,8.6094,7.5518,7.5518,7.5518,7.5518,7.5518,7.5518,7.5518,7.5518,7.5518,7.5518,7.5518,7.5518,7.5518,7.6876,7.8022,7.8022,7.9398,8.0506,8.0506,8.0506,8.0506,8.0506,8.0506,8.0506,8.0506,8.0506,8.0506,8.0506,8.0506,8.0506,8.0506,8.0506,8.0506,8.0506,8.0506,8.0621,8.0888,8.0888,8.0888,8.0888,8.0888,8.127,8.1996,8.1996,8.2512,8.3445,0.0,8.4736,8.4993,8.5753,8.6094,8.6094,8.6094,8.6094,8.6094,8.6094,8.6094,8.6094,8.6094,8.6094,8.6094,8.6094,8.6094,8.6094,8.6094,8.6094,8.6478,8.8209,8.8709,8.9094,9.0748,9.121,9.121,9.121,9.121,9.121,9.121,9.121,9.121,9.121,9.121,9.121,9.121,9.1095,9.1018,9.1018,9.0902,9.0825,9.0825,9.0825,9.0864,9.0979,9.1018,9.1056,9.121,9.121,9.1095,9.0825,9.0133,8.9402,8.8709,8.8709,8.8632,8.8479,8.8479,8.8055,8.7209,8.7209,8.6824,8.6094,8.6094,8.6094,7.5518,7.5518,7.5518,7.5518,7.5518,7.5518,7.5518,7.5518,7.5518,7.5518,7.5518,7.5633,7.6074,7.7144,7.829,7.9207,8.0009,8.0506,8.0506,8.0506,8.0506,8.0506,8.0506,8.0506,8.0506,8.0506,8.0506,8.0506,8.0506,8.0506,8.0506,8.0506,8.0506,8.0506,8.0506,8.0506,8.0506,8.0506,8.0506,8.0506,8.0506,8.0697,8.1117,8.1117,8.1594,8.2546,0.0,8.4199,8.4767,8.5714,8.6094,8.6094,8.6094,8.606,8.6065,8.6065,8.6043,8.6094,8.6094,8.6094,8.6094,8.6094,8.6094,8.6094,8.6094,8.644,8.7055,8.8325,8.8709,8.9094,9.0748,9.121,9.121,9.121,9.121,9.121,9.121,9.121,9.121,9.121,9.121,9.121,9.121,9.121,9.121,9.121,9.121,9.121,9.121,9.121,9.121,9.121,9.121,9.121,9.121,9.121,9.121,9.121,9.0825,9.0441,9.0056,9.0056,8.9825,8.9363,8.9363,8.894,8.8094,8.7632,8.7171,8.6786,8.6324,8.6094,7.5195,7.5348,7.5518,7.5518,7.5518,7.5518,7.5518,7.5518,7.5518,7.5518,7.5653,7.5959,7.657,7.7564,7.8787,8.0277,8.0506,8.0506,8.0506,8.0506,8.0506,8.0506,8.0506,8.0506,8.0506,8.0506,8.0506,8.0506,8.0506,8.0506,8.0506,8.0506,8.0506,8.0506,8.0506,8.0506,8.0506,8.0506,8.0506,8.0506,8.0506,8.0506,8.0506,8.0506,8.0906,8.1629,8.258,8.3494,8.4408,8.5356,8.5851,8.6026,8.606,8.6065,8.5996,8.5996,8.6065,8.6094,8.6094,8.6094,8.6094,8.6094,8.6094,8.6094,8.6094,8.6709,8.7594,8.844,8.8825,8.9325,9.0825,9.121,9.121,9.121,9.121,9.121,9.121,9.121,9.121,9.121,9.121,9.121,9.121,9.121,9.121,9.121,9.121,9.121,9.121,9.121,9.121,9.121,9.121,9.121,9.121,9.121,9.121,9.121,9.121,9.121,9.121,9.121,9.0902,9.021,9.021,8.9787,8.8979,8.8325,8.7902,8.7671,8.6824,8.6401,7.4278,7.4889,7.5518,7.5518,7.5518,7.5518,7.5518,7.5518,7.5518,7.5518,7.6074,7.6647,7.6685,7.8061,7.9493,8.0353,8.0506,8.0506,8.0506,8.0506,8.0506,8.0506,8.0506,8.0506,8.0506,8.0506,8.0506,8.0506,8.0506,8.0506,8.0506,8.0506,8.0506,8.0506,8.0506,8.0506,8.0506,8.0506,8.0506,8.0506,8.0506,8.0506,8.0506,8.0506,8.0544,8.0639,8.1591,8.2508,8.3368,8.4391,8.5193,8.5834,8.5979,8.6014,8.5996,8.5996,8.6065,8.6094,8.6094,8.6094,8.6094,8.6094,8.6094,8.6094,8.6094,8.6709,8.7594,8.844,8.9248,9.0017,9.0979,9.121,9.121,9.121,9.121,9.121,9.121,9.121,9.121,9.121,9.121,9.121,9.121,9.121,9.121,9.121,9.121,9.121,9.121,9.121,9.121,9.121,9.121,9.121,9.121,9.121,9.121,9.121,9.121,9.121,9.121,9.121,9.1171,9.1133,9.1133,9.0671,8.9825,8.9748,8.9325,8.8594,8.7709,8.7325,7.3437,7.4049,7.4698,7.4698,7.508,7.5518,7.5518,7.5518,7.5518,7.5518,7.615,7.7029,7.8099,7.9245,8.0162,8.043,8.0506,8.0506,8.0506,8.0506,8.0506,8.0506,8.0506,8.0506,8.0506,8.0506,8.0506,8.0506,8.0506,8.0506,8.0506,8.0506,8.0506,8.0506,8.0506,8.0506,8.0506,8.0506,8.0506,8.0506,8.0506,8.0506,8.0506,8.0506,8.0506,8.0544,8.1496,8.2393,8.3274,8.4243,8.5084,8.5815,8.5797,8.5815,8.587,8.5854,8.5852,8.5923,8.5923,8.5923,8.5923,8.5923,8.5958,8.6125,8.6624,8.7427,8.8363,8.921,9.0056,9.0787,9.1133,9.121,9.121,9.121,9.121,9.121,9.121,9.121,9.121,9.121,9.121,9.121,9.121,9.121,9.121,9.121,9.121,9.121,9.121,9.121,9.121,9.121,9.121,9.121,9.121,9.121,9.121,9.121,9.121,9.121,9.121,9.121,9.121,9.121,9.121,9.1056,9.071,9.0171,8.9748,8.944,8.8594,8.7902,7.2941,7.359,7.4278,7.4545,7.5042,7.5518,7.5518,7.5518,7.5577,7.5806,7.6761,7.7946,7.9398,8.0124,8.0506,8.0506,8.0506,8.0506,8.0506,8.0506,8.0506,8.0506,8.0506,8.0506,8.0506,8.0506,8.0506,8.0506,8.0506,8.0506,8.0506,8.0506,8.0506,8.0506,8.0506,8.0506,8.0506,8.0506,8.0506,8.0506,8.0506,8.0506,8.0506,8.0506,8.0506,8.0544,8.1192,8.2108,8.318,8.3903,8.4782,8.576,8.5667,8.5686,8.576,8.5743,8.5742,8.5815,8.5815,8.5815,8.5815,8.5815,8.5887,8.615,8.6956,8.791,8.8863,8.9671,9.0517,9.121,9.121,9.121,9.121,9.121,9.121,9.121,9.121,9.121,9.121,9.121,9.121,9.121,9.121,9.121,9.121,9.121,9.121,9.121,9.121,9.121,9.121,9.121,9.121,9.121,9.121,9.121,9.121,9.121,9.121,9.121,9.121,9.121,9.121,9.121,9.121,9.121,9.121,9.0594,9.0325,9.0287,8.9479,8.8748,7.275,7.359,7.4393,7.5271,7.548,7.5518,7.5518,7.5518,7.573,7.6532,7.8099,7.9569,8.0353,8.0506,8.0506,8.0506,8.0506,8.0506,8.0506,8.0506,8.0506,8.0506,8.0506,8.0506,8.0506,8.0506,8.0506,8.0506,8.0506,8.0506,8.0506,8.0506,8.0506,8.0506,8.0506,8.0506,8.0506,8.0506,8.0506,8.0506,8.0506,8.0506,8.0506,8.0506,8.0506,8.0506,8.0506,8.1461,8.3009,8.3141,8.4212,8.5667,8.5551,8.557,8.5705,8.5705,8.5723,8.5815,8.5815,8.5815,8.5815,8.5815,8.5887,8.615,8.6956,8.791,8.8863,8.9671,9.0517,9.121,9.121,9.121,9.121,9.121,9.121,9.121,9.121,9.121,9.121,9.121,9.121,9.121,9.121,9.121,9.121,9.121,9.121,9.121,9.121,9.121,9.121,9.121,9.121,9.121,9.121,9.121,9.121,9.121,9.121,9.121,9.121,9.121,9.121,9.121,9.121,9.121,9.121,9.121,9.121,9.1171,9.0325,8.9902,7.1833,7.2711,7.3552,7.4393,7.5042,7.5518,7.5518,7.5518,7.5883,7.7335,7.8519,7.9569,8.0353,8.0506,8.0506,8.0506,8.0506,8.0506,8.0506,8.0506,8.0506,8.0506,8.0506,8.0506,8.0506,8.0506,8.0506,8.0506,8.0506,8.0506,8.0506,8.0506,8.0506,8.0506,8.0506,8.0506,8.0506,8.0506,8.0506,8.0506,8.0506,8.0506,8.0506,8.0506,8.0506,8.0506,8.0506,8.1461,8.3085,8.4327,8.5092,8.5551,8.5511,8.5531,8.5551,8.5551,8.557,8.559,8.559,8.559,8.559,8.559,8.5667,8.6086,8.7578,8.8265,8.8853,9.0385,9.1018,9.121,9.121,9.121,9.121,9.121,9.121,9.121,9.121,9.121,9.121,9.121,9.121,9.121,9.121,9.121,9.121,9.121,9.121,9.121,9.121,9.121,9.121,9.121,9.121,9.121,9.121,9.121,9.121,9.121,9.121,9.121,9.121,9.121,9.121,9.121,9.121,9.121,9.121,9.121,9.121,9.121,9.0941,9.0479,7.1871,7.2597,7.3284,7.4431,7.5119,7.5594,7.5883,7.6227,7.6876,7.8252,7.9169,7.9933,8.0391,8.0506,8.0506,8.0506,8.0506,8.0506,8.0506,8.0506,8.0506,8.0506,8.0506,8.0506,8.0506,8.0506,8.0506,8.0506,8.0506,8.0506,8.0506,8.0506,8.0506,8.0506,8.0506,8.0506,8.0506,8.0506,8.0506,8.0506,8.0506,8.0506,8.0506,8.0506,8.0506,8.0544,8.1194,8.2073,8.3104,8.4824,8.5511,8.5511,8.5511,8.5511,8.5511,8.5511,8.5511,8.5511,8.5511,8.5511,8.5511,8.5511,8.5819,8.6451,8.7887,8.8595,8.9225,9.0698,9.1118,9.1118,9.1192,9.121,9.121,9.121,9.121,9.121,9.121,9.121,9.121,9.121,9.121,9.121,9.121,9.121,9.121,9.121,9.121,9.121,9.121,9.121,9.121,9.121,9.121,9.121,9.121,9.121,9.121,9.121,9.121,9.121,9.121,9.121,9.121,9.121,9.121,9.121,9.121,9.121,9.121,9.121,9.121,9.0941,7.252,7.2979,7.3399,7.508,7.5556,7.5806,7.6647,7.7487,7.8328,7.9149,7.9933,8.0506,8.0506,8.0506,8.0506,8.0506,8.0506,8.0506,8.0506,8.0506,8.0506,8.0506,8.0506,8.0506,8.0506,8.0506,8.0506,8.0506,8.0506,8.0506,8.0506,8.0506,8.0506,8.0506,8.0506,8.0506,8.0506,8.0506,8.0506,8.0506,8.0506,8.0506,8.0506,8.0506,8.0506,8.0582,8.2264,8.299,8.3104,8.4824,8.5511,8.5511,8.5511,8.5511,8.5511,8.5511,8.5511,8.5511,8.5511,8.5511,8.5511,8.5511,8.6144,8.7064,8.7925,8.8845,8.9784,9.0722,9.1009,9.1046,9.1136,9.1192,9.121,9.121,9.121,9.121,9.121,9.121,9.121,9.121,9.121,9.121,9.121,9.121,9.121,9.121,9.121,9.121,9.121,9.121,9.121,9.121,9.121,9.121,9.121,9.121,9.121,9.121,9.121,9.121,9.121,9.121,9.121,9.121,9.121,9.121,9.121,9.121,9.121,9.121,9.121,9.121,7.252,7.2979,7.3399,7.508,7.5959,7.6685,7.7526,7.8404,7.9054,7.9263,7.9933,8.0506,8.0506,8.0506,8.0506,8.0506,8.0506,8.0506,8.0506,8.0506,8.0506,8.0506,8.0506,8.0506,8.0506,8.0506,8.0506,8.0506,8.0506,8.0506,8.0506,8.0506,8.0506,8.0506,8.0506,8.0506,8.0506,8.0506,8.0506,8.0506,8.0506,8.0506,8.0506,8.0506,8.0506,8.0582,8.2264,8.299,8.3104,8.4824,8.5511,8.5511,8.5511,8.5511,8.5511,8.5511,8.5511,8.5511,8.5511,8.5511,8.5511,8.5511,8.6084,8.7003,8.7906,8.8825,8.9707,9.0647,9.0953,9.1028,9.1046,9.1118,9.121,9.121,9.121,9.121,9.121,9.121,9.121,9.121,9.121,9.121,9.121,9.121,9.121,9.121,9.121,9.121,9.121,9.121,9.121,9.121,9.121,9.121,9.121,9.121,9.121,9.121,9.121,9.121,9.121,9.121,9.121,9.121,9.121,9.121,9.121,9.121,9.121,9.121,9.121,9.121,7.252,7.2979,7.3399,7.508,7.6418,7.7449,7.7908,7.8978,7.9856,7.9856,8.02,8.0506,8.0506,8.0506,8.0506,8.0506,8.0506,8.0506,8.0506,8.0506,8.0506,8.0506,8.0506,8.0506,8.0506,8.0506,8.0506,8.0506,8.0506,8.0506,8.0506,8.0506,8.0506,8.0506,8.0506,8.0506,8.0506,8.0506,8.0506,8.0506,8.0506,8.0506,8.0506,8.0506,8.0506,8.0582,8.2264,8.299,8.3104,8.4824,8.5511,8.5511,8.5511,8.5511,8.5511,8.5511,8.5511,8.5511,8.5511,8.5511,8.5511,8.5511,8.639,8.7498,8.7999,8.9032,9.0143,9.0762,9.0954,9.0972,9.1064,9.1175,9.121,9.121,9.121,9.121,9.121,9.121,9.121,9.121,9.121,9.121,9.121,9.121,9.121,9.121,9.121,9.121,9.121,9.121,9.121,9.121,9.121,9.121,9.121,9.121,9.121,9.121,9.121,9.121,9.121,9.121,9.121,9.121,9.121,9.121,9.121,9.121,9.121,9.121,9.121,9.121,7.252,7.3208,7.3743,7.5174,7.6761,7.8022,7.8022,7.9283,8.0506,8.0506,8.0506,8.0506,8.0506,8.0506,8.0506,8.0506,8.0506,8.0506,8.0506,8.0506,8.0506,8.0506,8.0506,8.0506,8.0506,8.0506,8.0506,8.0506,8.0506,8.0506,8.0506,8.0506,8.0506,8.0506,8.0506,8.0506,8.0506,8.0506,8.0506,8.0506,8.0506,8.0506,8.0506,8.0506,8.0506,8.0582,8.2264,8.299,8.3104,8.4824,8.5511,8.5511,8.5511,8.5511,8.5511,8.5511,8.5511,8.5511,8.5511,8.5511,8.5511,8.5511,8.6696,8.811,8.811,8.9256,9.0614,9.0798,9.0877,9.0935,9.1103,9.1175,9.1192,9.121,9.121,9.121,9.121,9.121,9.121,9.121,9.121,9.121,9.121,9.121,9.121,9.121,9.121,9.121,9.121,9.121,9.121,9.121,9.121,9.121,9.121,9.121,9.121,9.121,9.121,9.121,9.121,9.121,9.121,9.121,9.121,9.121,9.121,9.121,9.121,9.121,9.121,9.121,7.252,7.4049,7.5212,7.5442,7.6761,7.8022,7.8022,7.9283,8.0506,8.0506,8.0506,8.0506,8.0506,8.0506,8.0506,8.0506,8.0506,8.0506,8.0506,8.0506,8.0506,8.0506,8.0506,8.0506,8.0506,8.0506,8.0506,8.0506,8.0506,8.0506,8.0506,8.0506,8.0506,8.0506,8.0506,8.0506,8.0506,8.0506,8.0506,8.0506,8.0506,8.0506,8.0506,8.0506,8.0506,8.0582,8.2264,8.299,8.3104,8.4824,8.5511,8.5511,8.5511,8.5511,8.5511,8.5511,8.5511,8.5511,8.5511,8.5511,8.5511,8.5511,8.6696,8.811,8.811,8.9256,9.0593,9.0614,9.0697,9.0759,9.0877,9.0972,9.1064,9.1192,9.121,9.121,9.121,9.121,9.121,9.121,9.121,9.121,9.121,9.121,9.121,9.121,9.121,9.121,9.121,9.121,9.121,9.121,9.121,9.121,9.121,9.121,9.121,9.121,9.121,9.121,9.121,9.121,9.121,9.121,9.121,9.121,9.121,9.121,9.121,9.121,9.121,9.121,7.252,7.4201,7.5518,7.5518,7.6379,7.7411,7.7908,7.8939,7.9971,8.0391,8.0506,8.0506,8.0506,8.0506,8.0506,8.0506,8.0506,8.0506,8.0506,8.0506,8.0506,8.0506,8.0506,8.0506,8.0506,8.0506,8.0506,8.0506,8.0506,8.0506,8.0506,8.0506,8.0506,8.0506,8.0506,8.0506,8.0506,8.0506,8.0506,8.0506,8.0506,8.0506,8.0506,8.0506,8.0506,8.0582,8.2264,8.299,8.3104,8.4824,8.5511,8.5511,8.5511,8.5511,8.5511,8.5511,8.5511,8.5511,8.5511,8.5511,8.5588,8.6084,8.7078,8.8186,8.8644,8.9638,9.0593,9.0656,9.0719,9.0819,9.0934,9.1028,9.1118,9.1192,9.121,9.121,9.121,9.121,9.121,9.121,9.121,9.121,9.121,9.121,9.121,9.121,9.121,9.121,9.121,9.121,9.121,9.121,9.121,9.121,9.121,9.121,9.121,9.121,9.121,9.121,9.121,9.121,9.121,9.121,9.121,9.121,9.121,9.121,9.121,9.121,9.121,9.121,7.2635,7.4201,7.5518,7.5518,7.6112,7.6914,7.7793,7.8672,7.9513,8.0315,8.0506,8.0506,8.0506,8.0506,8.0506,8.0506,8.0506,8.0506,8.0506,8.0506,8.0506,8.0506,8.0506,8.0506,8.0506,8.0506,8.0506,8.0506,8.0506,8.0506,8.0506,8.0506,8.0506,8.0506,8.0506,8.0506,8.0506,8.0506,8.0506,8.0506,8.0506,8.0506,8.0506,8.0506,8.0506,8.0582,8.2264,8.299,8.3104,8.4824,8.5511,8.5511,8.5511,8.5511,8.5511,8.5511,8.5511,8.5511,8.5511,8.5511,8.5626,8.6275,8.7231,8.8224,8.8797,8.9752,9.0593,9.0638,9.0739,9.0858,9.0953,9.1064,9.1136,9.1136,9.1192,9.121,9.121,9.121,9.121,9.121,9.121,9.121,9.121,9.121,9.121,9.121,9.121,9.121,9.121,9.121,9.121,9.121,9.121,9.121,9.121,9.121,9.121,9.121,9.121,9.121,9.121,9.121,9.121,9.121,9.121,9.121,9.121,9.121,9.121,9.121,9.121,9.121,7.2979,7.4201,7.5518,7.5518,7.6112,7.6914,7.7793,7.8672,7.9513,8.0315,8.0506,8.0506,8.0506,8.0506,8.0506,8.0506,8.0506,8.0506,8.0506,8.0506,8.0506,8.0506,8.0506,8.0506,8.0506,8.0506,8.0506,8.0506,8.0506,8.0506,8.0506,8.0506,8.0506,8.0506,8.0506,8.0506,8.0506,8.0506,8.0506,8.0506,8.0506,8.0506,8.0506,8.0506,8.0506,8.0582,8.2264,8.299,8.3104,8.4824,8.5511,8.5511,8.5511,8.5511,8.5511,8.5511,8.5511,8.5511,8.5511,8.5511,8.5511,8.555,8.6734,8.811,8.8148,8.9294,9.0593,9.0593,9.0676,9.0739,9.0858,9.0953,9.0989,9.0989,9.11,9.121,9.121,9.121,9.121,9.121,9.121,9.121,9.121,9.121,9.121,9.121,9.121,9.121,9.121,9.121,9.121,9.121,9.121,9.121,9.121,9.121,9.121,9.121,9.121,9.121,9.121,9.121,9.121,9.121,9.121,9.121,9.121,9.121,9.121,9.121,9.121,9.121,7.2979,7.4201,7.5518,7.5518,7.5709,7.6303,7.7678,7.8252,7.8863,8.02,8.0506,8.0506,8.0506,8.0506,8.0506,8.0506,8.0506,8.0506,8.0506,8.0506,8.0506,8.0506,8.0506,8.0506,8.0506,8.0506,8.0506,8.0506,8.0506,8.0506,8.0506,8.0506,8.0506,8.0506,8.0506,8.0506,8.0506,8.0506,8.0506,8.0506,8.0506,8.0506,8.0506,8.0506,8.0506,8.0544,8.1729,8.2531,8.3066,8.425,8.5015,8.5511,8.5511,8.5511,8.5511,8.5511,8.5511,8.5511,8.5511,8.5511,8.5588,8.6161,8.7154,8.8186,8.8721,8.9676,9.0593,9.0593,9.0656,9.0739,9.0877,9.0953,9.1046,9.11,9.11,9.11,9.1192,9.121,9.121,9.121,9.121,9.121,9.121,9.121,9.121,9.121,9.121,9.121,9.121,9.121,9.121,9.121,9.121,9.121,9.121,9.121,9.121,9.121,9.121,9.121,9.121,9.121,9.121,9.121,9.121,9.121,9.121,9.121,9.121,9.121,9.121,9.121,7.3399,7.4431,7.5518,7.5518,7.5518,7.5844,7.7258,7.7793,7.8404,7.9818,8.0315,8.0506,8.0506,8.0506,8.0506,8.0506,8.0506,8.0506,8.0506,8.0506,8.0506,8.0506,8.0506,8.0506,8.0506,8.0506,8.0506,8.0506,8.0506,8.0506,8.0506,8.0506,8.0506,8.0506,8.0506,8.0506,8.0506,8.0506,8.0506,8.0506,8.0506,8.0506,8.0506,8.0506,8.0506,8.0544,8.1117,8.1996,8.3066,8.3945,8.4785,8.5511,8.5511,8.5511,8.5511,8.5511,8.5511,8.5511,8.5511,8.5511,8.5588,8.6199,8.7154,8.8186,8.8721,8.9676,9.0593,9.0593,9.0656,9.0719,9.0799,9.0877,9.0953,9.1082,9.1046,9.0991,9.11,9.1175,9.121,9.121,9.121,9.121,9.121,9.121,9.121,9.121,9.121,9.121,9.121,9.121,9.121,9.121,9.121,9.121,9.121,9.121,9.121,9.121,9.121,9.121,9.121,9.121,9.121,9.121,9.121,9.121,9.121,9.121,9.121,9.121,9.121,9.121,0.0,0.0,0.0,7.5518,7.5518,7.5692,7.6532,7.7373,7.8252,7.9111,7.9933,8.0506,8.0506,8.0506,8.0506,8.0506,8.0506,8.0506,8.0506,8.0506,8.0506,8.0506,8.0506,8.0506,8.0506,8.0506,8.0506,8.0506,8.0506,8.0506,8.0506,8.0506,8.0506,8.0506,8.0506,8.0506,8.0506,8.0506,8.0506,8.0506,8.0506,8.0506,8.0506,8.0506,8.0506,8.0506,8.0506,8.1461,8.3066,8.3907,8.4747,8.5511,8.5511,8.5511,8.5511,8.5511,8.5511,8.5511,8.5511,8.5511,8.5511,8.5511,8.6696,8.811,8.811,8.9256,9.0593,9.0593,9.0656,9.0699,9.0719,9.0719,9.0759,9.0934,9.0934,9.0935,9.0991,9.11,9.121,9.121,9.121,9.121,9.121,9.121,9.121,9.121,9.121,9.121,9.121,9.121,9.121,9.121,9.121,9.121,9.121,9.121,9.121,9.121,9.121,9.121,9.121,9.121,9.121,9.121,9.121,9.121,9.121,9.121,9.121,9.121,9.121,9.121,7.4201,0.0,0.0,0.0,0.0,0.0,7.6532,7.7373,7.8252,7.9111,7.9933,8.0506,8.0506,8.0506,8.0506,8.0506,8.0506,8.0506,8.0506,8.0506,8.0506,8.0506,8.0506,8.0506,8.0506,8.0506,8.0506,8.0506,8.0506,8.0506,8.0506,8.0506,8.0506,8.0506,8.0506,8.0506,8.0506,8.0506,8.0506,8.0506,8.0506,8.0506,8.0506,8.0506,8.0506,8.0506,8.0506,8.1461,8.3028,8.3257,8.4212,8.5511,8.5511,8.5511,8.5511,8.5511,8.5511,8.5511,8.5511,8.5511,8.5511,8.5511,8.6696,8.811,8.811,8.9256,9.0593,9.0593,9.0614,9.0656,9.0699,9.0719,9.0739,9.0877,9.0896,9.0935,9.0991,9.11,9.121,9.121,9.121,9.121,9.121,9.121,9.121,9.121,9.121,9.121,9.121,9.121,9.121,9.121,9.121,9.121,9.121,9.121,9.121,9.121,9.121,9.121,9.121,9.121,9.121,9.121,9.121,9.121,9.121,9.121,9.121,9.121,9.121,9.121,7.4736,7.5119,7.5518,7.5518,0.0,0.0,7.6074,7.7144,7.8137,7.8634,7.9704,8.0506,8.0506,8.0506,8.0506,8.0506,8.0506,8.0506,8.0506,8.0506,8.0506,8.0506,8.0506,8.0506,8.0506,8.0506,8.0506,8.0506,8.0506,8.0506,8.0506,8.0506,8.0506,8.0506,8.0506,8.0506,8.0506,8.0506,8.0506,8.0506,8.0506,8.0506,8.0506,8.0506,8.0506,8.0506,8.0506,8.1461,8.299,8.299,8.3983,8.5511,8.5511,8.5511,8.5511,8.5511,8.5511,8.5511,8.5511,8.5511,8.5511,8.5511,8.6696,8.811,8.811,8.9256,9.0593,9.0593,9.0593,9.0614,9.0679,9.0679,9.0717,9.0779,9.0877,9.0935,9.0953,9.1064,9.121,9.121,9.121,9.121,9.121,9.121,9.121,9.121,9.121,9.121,9.121,9.121,9.121,9.121,9.121,9.121,9.121,9.121,9.121,9.121,9.121,9.121,9.121,9.121,9.121,9.121,9.121,9.121,9.121,9.121,9.121,9.121,9.121,9.121,7.5518,7.5518,7.5518,7.5518,7.5518,0.0,7.5518,7.68,7.8022,7.8022,7.9321,8.0506,8.0506,8.0506,8.0506,8.0506,8.0506,8.0506,8.0506,8.0506,8.0506,8.0506,8.0506,8.0506,8.0506,8.0506,8.0506,8.0506,8.0506,8.0506,8.0506,8.0506,8.0506,8.0506,8.0506,8.0506,8.0506,8.0506,8.0506,8.0506,8.0506,8.0506,8.0506,8.0506,8.0506,8.0506,8.0506,8.1461,8.299,8.299,8.3983,8.5511,8.5511,8.5511,8.5511,8.5511,8.5511,8.5511,8.5511,8.5511,8.5511,8.5511,8.6696,8.811,8.811,8.9256,9.0593,9.0593,9.0593,9.0614,9.0658,9.0656,9.0614,9.0679,9.0779,9.0915,9.0915,9.1066,9.121,9.121,9.121,9.121,9.121,9.121,9.121,9.121,9.121,9.121,9.121,9.121,9.121,9.121,9.121,9.121,9.121,9.121,9.121,9.121,9.121,9.121,9.121,9.121,9.121,9.121,9.121,9.121,9.121,9.121,9.121,9.121,9.121,9.121,7.5518,7.5518,7.5518,7.5518,7.5518,0.0,7.5518,7.68,7.8022,7.8022,7.9321,8.0506,8.0506,8.0506,8.0506,8.0506,8.0506,8.0506,8.0506,8.0506,8.0506,8.0506,8.0506,8.0506,8.0506,8.0506,8.0506,8.0506,8.0506,8.0506,8.0506,8.0506,8.0506,8.0506,8.0506,8.0506,8.0506,8.0506,8.0506,8.0506,8.0506,8.0506,8.0506,8.0506,8.0506,8.0506,8.0506,8.1461,8.299,8.299,8.3983,8.5511,8.5511,8.5511,8.5511,8.5511,8.5511,8.5511,8.5511,8.5511,8.5511,8.5511,8.6696,8.811,8.811,8.9256,9.0593,9.0593,9.0593,9.0593,9.0614,9.0593,9.0593,9.0614,9.0778,9.0915,9.0915,9.1066,9.121,9.121,9.121,9.121,9.121,9.121,9.121,9.121,9.121,9.121,9.121,9.121,9.121,9.121,9.121,9.121,9.121,9.121,9.121,9.121,9.121,9.121,9.121,9.121,9.121,9.121,9.121,9.121,9.121,9.121,9.121,9.121,9.121,9.121,7.5518,7.5518,7.5518,7.5518,7.5518,0.0,0.0,7.7067,7.8137,7.8557,7.9627,8.0506,8.0506,8.0506,8.0506,8.0506,8.0506,8.0506,8.0506,8.0506,8.0506,8.0506,8.0506,8.0506,8.0506,8.0506,8.0506,8.0506,8.0506,8.0506,8.0506,8.0506,8.0506,8.0506,8.0506,8.0506,8.0506,8.0506,8.0506,8.0506,8.0506,8.0506,8.0506,8.0506,8.0506,8.0506,8.0506,8.1461,8.299,8.299,8.3983,8.5511,8.5511,8.5511,8.5511,8.5511,8.5511,8.5511,8.5511,8.5511,8.5511,8.5511,8.639,8.7536,8.7957,8.9256,9.0593,9.0593,9.0593,9.0593,9.0593,9.0593,9.0593,9.0656,9.0798,9.0915,9.0934,9.1064,9.121,9.121,9.121,9.121,9.121,9.121,9.121,9.121,9.121,9.121,9.121,9.121,9.121,9.121,9.121,9.121,9.121,9.121,9.121,9.121,9.121,9.121,9.121,9.121,9.121,9.121,9.121,9.121,9.121,9.121,9.121,9.121,9.121,9.121,7.5959,7.5959,7.5959,7.5959,7.5959,7.615,0.0,0.0,0.0,7.913,7.9933,8.0506,8.0506,8.0506,8.043,8.0277,8.0391,8.043,8.0277,8.0391,8.0506,8.0506,8.0506,8.0506,8.0506,8.0506,8.0506,8.0506,8.0506,8.0506,8.0506,8.0506,8.0506,8.0506,8.0506,8.0506,8.0506,8.0506,8.0506,8.0506,8.0506,8.0506,8.0506,8.0506,8.0506,8.0506,8.0506,8.1461,8.299,8.299,8.3983,8.5511,8.5511,8.5511,8.5511,8.5511,8.5511,8.5511,8.5511,8.5511,8.5511,8.5511,8.6199,8.7231,8.8071,8.9409,9.0593,9.0593,9.0593,9.0593,9.0593,9.0593,9.0614,9.0658,9.0779,9.0896,9.0972,9.1082,9.121,9.121,9.121,9.121,9.121,9.121,9.121,9.121,9.121,9.121,9.121,9.121,9.121,9.121,9.121,9.121,9.121,9.121,9.121,9.121,9.121,9.121,9.121,9.121,9.121,9.121,9.121,9.121,9.121,9.121,9.121,9.121,9.121,9.121,7.7717,7.7717,7.7717,7.7717,7.7717,7.7755,7.7831,0.0,7.9187,7.9302,0.0,8.0506,8.0506,0.0,0.0,7.9569,8.0009,8.0238,7.9531,8.0047,8.0506,8.0506,8.0506,8.0506,8.0506,8.0506,8.0506,8.0506,8.0506,8.0506,8.0506,8.0506,8.0506,8.0506,8.0506,8.0506,8.0506,8.0506,8.0506,8.0506,8.0506,8.0506,8.0506,8.0506,8.0506,8.0506,8.0506,8.1461,8.299,8.299,8.3983,8.5511,8.5511,8.5511,8.5511,8.5511,8.5511,8.5511,8.5511,8.5511,8.5511,8.5511,8.6619,8.811,8.8912,8.9829,9.0593,9.0593,9.0593,9.0593,9.0593,9.0593,9.0593,9.0593,9.0758,9.0915,9.0915,9.1084,9.121,9.121,9.121,9.121,9.121,9.121,9.121,9.121,9.121,9.121,9.121,9.121,9.121,9.121,9.121,9.121,9.121,9.121,9.121,9.121,9.121,9.121,9.121,9.121,9.121,9.121,9.121,9.121,9.121,9.121,9.121,9.121,9.121,9.121,7.8022,7.8022,7.8022,7.8022,7.8022,7.8137,7.8634,0.0,7.9454,7.9895,0.0,0.0,0.0,0.0,0.0,0.0,8.0277,8.0391,8.0047,8.0277,8.0506,8.0506,8.0506,8.0506,8.0506,8.0506,8.0506,8.0506,8.0506,8.0506,8.0506,8.0506,8.0506,8.0506,8.0506,8.0506,8.0506,8.0506,8.0506,8.0506,8.0506,8.0506,8.0506,8.0506,8.0506,8.0506,8.0506,8.1461,8.299,8.299,8.3983,8.5511,8.5511,8.5511,8.5511,8.5511,8.5511,8.5511,8.5511,8.5511,8.5511,8.5511,8.6352,8.7498,8.8339,8.9179,8.9944,9.0478,9.0593,9.0593,9.0593,9.0593,9.0593,9.0656,9.0759,9.0935,9.0953,9.1064,9.121,9.121,9.121,9.121,9.121,9.121,9.121,9.121,9.121,9.121,9.121,9.121,9.121,9.121,9.121,9.121,9.121,9.121,9.121,9.121,9.121,9.121,9.121,9.121,9.121,9.121,9.121,9.121,9.121,9.121,9.121,9.121,9.121,9.121,7.871,7.871,7.871,7.871,7.871,7.8863,0.0,0.0,0.0,0.0,8.0506,0.0,0.0,0.0,8.043,8.02,0.0,8.043,8.02,8.0353,8.0506,8.0506,8.0506,8.0506,8.0506,8.0506,8.0506,8.0506,8.0506,8.0506,8.0506,8.0506,8.0506,8.0506,8.0506,8.0506,8.0506,8.0506,8.0506,8.0506,8.0506,8.0506,8.0506,8.0506,8.0506,8.0506,8.0506,8.1461,8.299,8.299,8.3983,8.5511,8.5511,8.5511,8.5511,8.5511,8.5511,8.5511,8.5511,8.5511,8.5511,8.5511,8.6084,8.6963,8.7842,8.8644,8.9485,9.0385,9.0635,9.0635,9.0676,9.0676,9.0697,9.0739,9.0838,9.0934,9.1009,9.11,9.121,9.121,9.121,9.121,9.121,9.121,9.121,9.121,9.121,9.121,9.121,9.121,9.121,9.121,9.121,9.121,9.121,9.121,9.121,9.121,9.121,9.121,9.121,9.121,9.121,9.121,9.121,9.121,9.121,9.121,9.121,9.121,9.121,9.121,8.043,8.043,8.043,8.043,0.0,0.0,0.0,0.0,8.0468,0.0,0.0,0.0,0.0,0.0,0.0,0.0,0.0,0.0,0.0,8.0009,8.0506,8.0506,8.0506,8.0506,8.0506,8.0506,8.0506,8.0506,8.0506,8.0506,8.0506,8.0506,8.0506,8.0506,8.0506,8.0506,8.0506,8.0506,8.0506,8.0506,8.0506,8.0506,8.0506,8.0506,8.0506,8.0506,8.0506,8.1461,8.299,8.299,8.3983,8.5511,8.5511,8.5511,8.5511,8.5511,8.5511,8.5511,8.5511,8.5511,8.5511,8.5511,8.6084,8.6963,8.7842,8.8644,8.9506,9.0449,9.0699,9.0719,9.0877,9.0896,9.0896,9.0896,9.0934,9.1009,9.0989,9.11,9.121,9.121,9.121,9.121,9.121,9.121,9.121,9.121,9.121,9.121,9.121,9.121,9.121,9.121,9.121,9.121,9.121,9.121,9.121,9.121,9.121,9.121,9.121,9.121,9.121,9.121,9.121,9.121,9.121,9.121,9.121,9.121,9.121,9.121,0.0,0.0,8.0506,8.0506,0.0,0.0,0.0,0.0,0.0,0.0,0.0,0.0,0.0,0.0,0.0,0.0,0.0,0.0,0.0,8.0315,8.0506,8.0506,8.0506,8.0506,8.0506,8.0506,8.0506,8.0506,8.0506,8.0506,8.0506,8.0506,8.0506,8.0506,8.0506,8.0506,8.0506,8.0506,8.0506,8.0506,8.0506,8.0506,8.0506,8.0506,8.0506,8.0544,8.1117,8.1958,8.3028,8.3601,8.4518,8.5511,8.5511,8.5511,8.5511,8.5511,8.5511,8.5511,8.5511,8.5511,8.5511,8.5511,8.5702,8.6199,8.7651,8.8301,8.8818,9.0296,9.0719,9.0739,9.0877,9.0915,9.0915,9.0915,9.0953,9.0989,9.0989,9.11,9.121,9.121,9.121,9.121,9.121,9.121,9.121,9.121,9.121,9.121,9.121,9.121,9.121,9.121,9.121,9.121,9.121,9.121,9.121,9.121,9.121,9.121,9.121,9.121,9.121,9.121,9.121,9.121,9.121,9.121,9.121,9.121,9.121,9.121,8.0219,8.0354,0.0,8.0506,8.0506,0.0,8.0506,0.0,8.0506,0.0,0.0,0.0,0.0,0.0,0.0,0.0,0.0,0.0,0.0,8.0506,8.0506,8.0506,8.0506,8.0506,8.0506,8.0506,8.0506,8.0506,8.0506,8.0506,8.0506,8.0506,8.0506,8.0506,8.0506,8.0506,8.0506,8.0506,8.0506,8.0506,8.0506,8.0506,8.0506,8.0506,8.0506,8.0544,8.1423,8.2264,8.3066,8.3945,8.4785,8.5511,8.5511,8.5511,8.5511,8.5511,8.5511,8.5511,8.5511,8.5511,8.5511,8.5511,8.5511,8.5779,8.7192,8.7842,8.8341,8.9553,9.03,9.0722,9.0589,9.078,9.101,9.101,9.1028,9.1082,9.1082,9.1118,9.121,9.121,9.121,9.121,9.121,9.121,9.121,9.121,9.121,9.121,9.121,9.121,9.121,9.121,9.121,9.121,9.121,9.121,9.121,9.121,9.121,9.121,9.121,9.121,9.1364,9.1672,9.1364,9.1364,9.1672,9.1364,9.121,9.121,9.121,9.121]}]]